GFSNE_prec_radar_000.txt.gz
Reflectivity
-20 -20 -20 -20 -20 -20 -20 -20 -20 7 -19 -20 -20 -20 -20 -20 -20 -20 -20 -20 -20 -20 -20 -20 -20 -15 -3 7 -10 11 15 19 23 32 30 29 41 33
-20 -20 -20 -20 -20 -20 -20 -20 -20 -20 -1 -20 -20 -20 -20 -20 -20 -20 -20 -20 -20 -20 -20 -20 -12 -20 -20 -20 -4 -1 -6 13 9 23 14 12 35 8
-20 -20 -20 -20 -20 -20 -20 -20 -20 -20 -2 -19 -20 -20 -20 -20 -20 -20 -20 -20 -20 -20 -20 7 -19 -20 -20 -20 -20 -20 -5 2 3 14 -13 0 16 1
-20 -20 -20 -20 -20 -20 -20 -20 -20 -20 4 14 -20 -20 -20 -20 -20 -20 -20 -20 -20 -20 -20 -20 -20 -20 -20 -20 -19 -20 -20 -17 -6 -10 14 -2 6 2
-20 -20 -20 -20 -20 -20 -20 -20 -20 -14 8 10 -12 -11 -12 -20 -15 -20 -8 -20 -20 -20 -20 -20 -16 -9 -2 15 -20 -20 -20 -20 -13 -20 -2 3 -18 -4
-20 -20 -20 -20 -20 -20 -20 -4 3 7 -20 11 13 9 -8 -20 -20 -20 -20 -20 3 -14 -20 -18 -13 -2 -20 -3 -9 -15 -2 7 -16 -13 -9 -17 13 -20
-20 -20 -20 -20 -20 -10 4 3 9 -7 12 15 15 5 -20 -15 -7 -14 -6 -20 -20 -13 14 6 16 18 -19 -20 -20 -20 -12 -1 12 -2 -20 -20 -20 -11
-20 -20 -20 -20 -20 -20 -5 12 10 16 18 23 13 7 -3 -20 -6 -10 13 6 9 1 16 -20 -20 -12 -20 -20 -16 6 -19 17 -8 -3 -20 -20 -20 -20
-20 -20 -20 -20 -14 8 -17 -20 18 18 8 -5 9 4 4 6 13 14 17 16 8 -0 14 -7 -2 9 -8 3 -20 -20 -16 -6 17 3 -20 -20 -20 -20
-20 -20 -20 -6 -19 -7 -2 16 10 -13 -20 -20 0 11 15 15 12 9 15 15 13 14 13 15 10 4 0 -1 14 16 27 30 -4 -20 -20 -20 -13 7
-20 -20 6 -10 -20 1 22 16 5 -20 -20 -15 4 -4 -20 -0 -7 14 12 17 6 11 6 22 11 14 15 -18 -11 7 6 -20 -20 -20 -20 -20 -2 -9
-11 -19 -20 1 -17 20 8 6 6 -20 9 4 -20 -20 -20 -7 -14 9 12 14 11 9 18 24 -8 19 7 11 17 18 14 6 -8 -10 3 -19 -18 -15
12 8 -13 13 14 -12 -8 2 -6 5 -5 -8 -12 -2 1 4 8 8 8 11 13 9 16 28 12 14 11 9 -6 -3 -13 26 27 10 12 15 20 17
8 7 15 4 -20 -20 5 -10 -13 -2 -7 4 4 6 6 5 9 3 1 2 5 9 1 13 14 13 7 7 4 5 16 33 17 12 4 20 22 24
-17 19 -0 -20 -20 -14 -19 5 -18 0 5 8 10 8 7 4 7 7 6 -3 1 2 -0 12 4 2 5 5 3 9 7 23 25 19 14 16 16 26
16 9 -20 -20 -15 -3 -18 -20 -8 -1 5 8 9 8 6 4 8 6 9 8 14 12 17 4 4 8 7 3 6 12 3 22 20 20 25 29 31 31
6 -15 -20 -20 -11 -11 -6 -18 -19 -4 5 9 9 6 7 8 7 4 5 14 14 13 6 8 12 3 19 8 10 11 4 18 18 7 17 15 23 20
-20 -6 -17 6 5 5 3 2 -2 -17 6 8 7 8 9 7 7 4 11 16 9 8 5 7 9 8 11 9 7 8 11 17 16 17 18 4 14 28
-18 6 9 7 6 7 6 4 1 -14 6 7 6 9 6 10 11 16 13 9 10 10 8 7 7 11 10 6 13 16 13 17 16 12 -10 1 1 14
3 10 9 7 7 7 5 -1 3 3 3 5 10 8 10 14 13 14 12 12 6 6 -0 4 8 16 15 14 8 16 18 16 11 3 10 14 15 14
6 7 7 8 8 5 2 0 6 9 13 11 9 11 11 9 8 9 11 10 7 3 1 -5 -3 -1 6 10 11 8 14 16 16 13 13 13 10 5
4 8 7 7 5 2 4 6 6 4 9 4 -8 -0 -11 6 0 -17 -16 -12 -18 -20 -20 -20 -20 -18 -18 -8 3 5 2 -5 -9 -7 -7 -10 -4 -1
8 8 7 4 2 -1 7 8 7 1 -16 -16 0 1 -7 7 -20 -20 -20 -20 -20 -5 -20 -20 -10 -20 -20 -20 -20 -20 -20 -20 -19 -7 -20 -20 -20 -20

GFSNE_prec_radar_003.txt.gz
Reflectivity
-20 -20 -20 -20 -20 -20 -20 -20 -20 -20 -20 -20 -20 -20 -20 -20 -20 -20 -20 -20 -20 -20 -20 -20 -20 -20 -20 -20 8 -20 -20 7 -1 20 32 31 30 11
-20 -20 -20 -20 -20 -20 -20 -20 -20 -20 -17 -20 -20 -20 -20 -20 -20 -20 -20 -20 -20 -20 -20 -20 -20 -20 -7 -20 -13 -11 -20 -20 7 7 27 28 20 25
-20 -20 -20 -20 -20 -20 -20 -20 -20 -20 -0 -20 -20 -20 -20 -20 -20 -20 -20 -20 -20 -20 -20 -20 -14 -2 -20 -20 -20 -20 -18 -7 11 4 -1 20 25 22
-20 -20 -20 -20 -20 -20 -20 -20 -20 -20 -9 5 -20 -20 -20 -20 -20 -20 -20 -20 -20 -20 -20 -20 -20 -20 15 -20 -13 -1 -20 -19 1 -11 -20 -18 14 14
-20 -20 -20 -20 -20 -20 -20 -20 -20 -12 6 6 -20 -20 -20 -20 -20 -20 -20 -20 -20 -20 -20 -20 -20 -20 -19 -8 -0 -2 19 11 -20 -20 -20 -15 -20 -9
-20 -20 -20 -20 -20 -20 -20 -6 4 2 -6 7 7 7 -7 -20 1 3 -20 -20 -20 -20 -20 -20 -6 -20 22 19 -12 -15 -20 -20 -20 -20 13 -10 3 -20
-20 -20 -20 -20 -20 -20 -11 1 5 1 8 10 9 6 -8 -20 -20 -20 -16 -7 -20 -20 -19 -20 1 10 -20 -20 -20 -20 -20 -20 -20 -1 3 -12 18 -20
-20 -20 -20 -20 -20 -20 -0 -20 10 2 8 9 21 9 -13 -20 -20 3 9 11 3 -12 8 -20 -16 -13 -20 -20 -20 19 15 11 7 -20 -17 6 12 -12
-20 -20 -20 -20 -20 -20 -20 -19 2 16 7 8 -7 -20 -20 6 3 11 10 4 -2 -17 11 -12 9 1 9 -20 -20 1 8 11 3 0 8 4 -7 19
-20 -20 -20 -20 -20 7 5 10 10 -6 -9 1 -2 -16 6 5 10 1 6 13 9 8 8 13 -2 18 -16 -18 -20 -18 -20 -1 13 13 10 -17 -12 -10
-20 -20 -15 -3 -20 13 9 4 -20 -20 -20 -20 4 -12 -12 -16 -12 7 6 12 8 0 -20 9 6 -7 -5 -20 -20 -20 20 4 -5 -20 -20 -20 -20 -18
-20 -20 -19 2 11 17 9 -20 -17 -3 7 1 -6 -20 -20 -20 4 4 7 12 9 -10 -20 8 3 11 13 -19 -20 -19 -20 -20 12 8 6 -17 -13 -20
6 3 -0 -20 15 6 -8 -20 5 8 -13 -19 -20 -20 -13 4 3 3 5 8 11 7 -20 8 7 5 10 3 12 11 -3 0 26 28 29 7 8 10
4 -4 -1 17 -9 -20 -13 -7 -10 6 -20 -16 -8 2 5 3 -2 -13 -20 -20 -11 2 -10 -7 13 3 3 1 -12 16 -11 3 32 33 23 18 16 19
-1 5 17 -19 -20 -20 -20 -20 -20 -20 -2 3 6 5 3 -6 -19 -13 -20 -20 -20 -20 -19 -19 12 12 -17 -14 -8 14 11 -1 28 30 9 25 10 -5
10 13 -20 -20 -20 -20 -19 -20 -20 -12 -9 -4 3 3 1 -6 -6 -5 8 -13 2 -6 7 -4 -15 -3 -15 -20 -10 -19 12 -4 15 20 27 29 23 13
14 -20 -20 -20 -20 -6 -15 -20 -20 -18 -10 3 4 -0 0 -3 -13 1 3 14 12 4 -9 -17 -12 -12 -14 16 -10 -2 -10 -3 16 22 34 30 32 37
-7 -11 -20 -3 3 -1 -2 -10 -20 -20 1 3 -2 -1 2 6 5 6 5 13 11 7 7 7 -4 -3 -7 10 8 -5 1 14 17 26 28 13 18 33
-2 1 5 4 -1 -2 -3 -20 -13 -4 -6 -4 5 7 10 1 11 -0 12 7 10 7 7 13 0 8 7 -1 11 13 15 17 12 1 0 -3 14 30
3 7 4 3 -1 -2 -19 -4 -0 -13 -19 -8 9 4 -5 -16 -2 5 -12 -13 4 3 11 12 8 12 12 10 -4 16 14 13 9 4 4 -7 17 31
6 4 3 -0 -1 -8 -7 2 -1 4 10 8 -14 -19 -19 -8 5 3 -9 -13 -8 -17 -17 10 6 5 14 2 5 15 21 27 17 7 12 6 -9 6
6 4 -4 -3 -7 3 5 2 -4 -20 -18 -18 -19 -20 -18 0 6 -2 -1 -14 -20 -15 -5 -4 -14 -3 -7 8 6 1 5 14 20 19 14 12 4 8
1 2 -2 -19 -3 5 1 -18 -19 -20 -18 -18 -16 -14 -12 2 -4 -15 -20 -20 -20 -20 -20 1 -20 -20 -20 -20 -20 -18 -15 -12 -3 -3 -8 -20 -19 -6

GFSNE_prec_radar_006.txt.gz
Reflectivity
-20 -20 -20 -20 -20 -20 -20 -20 -20 -20 -20 -20 -20 -20 -20 -20 -20 -20 -20 -20 -20 -20 -20 -20 -20 -20 -20 -20 -20 -20 -20 -20 -20 -6 13 -20 14 26
-20 -20 -20 -20 -20 -20 -20 -20 -20 -20 -20 -20 -20 -20 -20 -20 -20 -20 -20 -20 -20 -20 -20 -20 -20 -20 -20 -20 -20 -20 8 -8 -20 -20 -20 3 4 18
-20 -20 -20 -20 -20 -20 -20 -20 -20 -20 -18 -20 -20 -20 -20 -20 -20 -20 -20 -20 -20 -20 -20 -20 -20 -20 -20 -20 -20 -20 6 -1 6 12 -20 -3 16 12
-20 -20 -20 -20 -20 -20 -20 -20 -20 -20 -20 -20 -20 -20 -20 -20 -20 -20 -20 -20 -19 -20 -20 -20 -20 -20 -20 -20 -20 -20 6 14 20 22 21 12 -9 -18
-20 -20 -20 -20 -20 -20 -20 -20 -20 -20 -19 5 -20 -20 -20 -20 -20 -20 -20 -20 -20 -20 -20 -20 -15 -20 -15 -1 -20 -16 22 13 20 -15 -4 -16 -16 8
-20 -20 -20 -20 -20 -20 -20 -20 -20 -15 2 -8 -8 -4 -20 -20 23 -1 -20 -20 -20 -20 -20 -10 -6 -20 -9 -4 -20 -20 -20 -20 -2 10 14 -20 6 -7
-20 -20 -20 -20 -20 -20 -20 -20 -5 0 1 13 3 14 7 7 -20 -20 -20 -20 -20 -20 -12 -20 -20 -20 -20 -20 -20 -20 -20 12 12 23 17 6 -20 -20
-20 -20 -20 -20 -20 -20 -20 -20 5 10 11 13 6 -20 -20 -20 -19 -20 -20 -20 5 -20 -20 -20 -20 -20 -20 8 -15 18 21 -20 -20 -2 2 10 -7 -20
-20 -20 -20 -20 -20 -20 -20 11 15 14 -2 -11 -20 -20 -3 -12 -1 -11 6 13 -10 -20 -12 3 -2 5 -20 -20 -16 1 16 9 -20 4 14 9 4 7
-20 -20 -20 -20 -20 -5 3 18 -13 -20 -20 -20 -1 3 2 7 -2 0 -9 -20 -17 -0 5 10 -20 -20 -20 2 10 12 6 11 22 17 3 10 7 5
-20 -20 1 -11 -20 11 12 7 -1 -20 -20 -20 13 4 -20 -20 -12 5 1 7 -20 -16 -11 4 -20 -13 -7 7 10 8 28 8 -10 -20 -5 -1 -6 -6
-20 -4 -9 6 -18 1 13 1 -1 -20 -1 12 -20 -20 -20 -20 3 4 6 12 3 -14 -20 -19 -18 -8 1 8 10 9 0 -13 -20 -3 0 -0 4 -1
-14 -20 -11 -20 18 8 -2 -7 -13 6 2 -20 -20 -20 -20 -4 6 4 1 7 14 5 -20 7 9 -20 -13 -19 8 -2 -16 -20 -19 -20 -15 20 22 9
3 1 -12 15 -0 -13 -5 -20 -2 3 -20 -20 -20 -15 3 -15 -20 -20 -20 -20 -19 6 5 2 16 1 5 10 -17 -13 -14 -16 -7 13 34 34 23 21
3 -3 16 -10 1 -20 -20 3 -20 -20 -20 -20 6 -2 -2 -20 -20 -20 -20 -14 -5 7 6 15 9 4 -20 -20 -20 -20 -5 4 12 26 32 21 21 22
-16 18 -16 -20 -20 -20 -20 -20 -20 -20 -4 1 3 -6 -20 -20 -20 -20 -4 -20 -20 -18 -3 -5 -20 -20 -20 -20 -18 -17 5 7 -2 24 11 19 19 12
15 -20 -20 -20 -20 -20 -20 -20 -20 -20 3 -2 2 -10 -20 -20 -20 -20 -14 -17 -10 10 1 -19 -20 -20 -20 -19 -1 -14 8 8 10 14 22 16 26 28
-18 -20 -20 -10 -16 -20 -20 -20 -20 -5 -9 -8 -20 -18 -20 -4 -7 -9 1 3 -3 -1 7 0 -19 -20 -20 -20 -0 -2 12 0 8 17 32 9 26 35
-20 -20 -3 -1 1 -20 -20 -20 -5 -9 1 -12 -9 -9 -10 -20 -19 -20 -20 -3 -20 -11 -3 8 -14 -20 -20 -17 10 26 7 6 15 15 24 25 23 33
-20 2 1 -3 -20 -20 -18 -2 -2 -19 -20 -20 -20 -20 -20 -16 -11 -14 -14 1 -18 -18 -20 -1 0 -17 1 -2 2 19 28 12 3 11 18 22 26 31
-3 2 -11 -20 -20 -20 -8 -0 -1 -0 -11 -20 -19 -18 -17 -17 -14 -15 -11 -0 1 -20 -20 -14 1 8 1 -3 -9 -3 17 29 13 -0 -1 -8 13 18
5 -17 -20 -20 -20 -7 0 -7 -19 -20 -19 -19 -19 -18 -19 -13 -3 -17 -18 -19 -20 -6 -15 -20 -17 -11 9 2 -0 7 9 6 17 20 12 0 -8 5
-20 -20 -20 -20 -20 -14 -19 -19 -20 -20 -20 -16 -17 -19 -12 -3 -20 -20 -17 -19 -19 -17 -20 -20 -20 -20 -17 4 5 1 -4 -1 -1 -20 -20 14 23 25

GFSNE_prec_radar_009.txt.gz
Reflectivity
-20 -20 -20 -20 -20 -20 -20 -20 -20 -20 -20 -20 -20 -20 -20 -20 -20 -20 -20 -20 -20 -20 -17 -20 -20 -11 -20 2 -20 -20 -20 -20 -20 -20 -19 16 -15 -20
-20 -20 -20 -20 -20 -20 -20 -20 -20 -20 -20 -20 -20 -20 -20 -20 -20 -20 -20 -20 -20 -20 -20 -18 5 -20 -3 -20 -5 -20 -20 -20 -20 -9 -18 -3 -20 14
-20 -20 -20 -20 -20 -20 -20 -20 -20 -20 -20 -20 -20 -20 -20 -20 -20 -20 -20 -20 -20 -20 -19 -12 -20 -20 -20 -20 -20 4 -2 -20 -20 -19 -19 20 24 25
-20 -20 -20 -20 -20 -20 -20 -20 -20 -20 -20 -20 -20 -20 -20 -20 -20 -20 -20 -20 -20 -19 -20 -20 -20 -20 -20 -19 -20 14 18 -14 -3 -11 18 22 13 21
-20 -20 -20 -20 -20 -20 -20 -20 -20 -20 -20 -5 -16 -20 -20 -14 1 -20 -9 -20 -20 -20 -20 -20 -20 -20 -14 2 -20 -16 -0 17 -20 -7 9 20 -12 19
-20 -20 -20 -20 -20 -20 -20 -20 -20 -20 -20 -20 -14 8 7 8 -20 -20 -20 -20 -20 -20 -20 -20 -2 6 -20 -20 -20 -20 -20 -20 19 5 -20 18 13 11
-20 -20 -20 -20 -20 -20 -7 -20 -19 -14 -14 3 20 -6 -20 -20 -20 -20 -6 -20 -20 -20 -2 -20 -20 -20 -20 -20 -20 1 -2 18 4 21 23 23 7 -20
-20 -20 -20 -20 -20 -20 -20 -20 8 10 18 16 11 -20 -20 -20 -20 -19 14 10 -20 -13 -2 -20 -20 -20 -20 -20 5 10 -20 -20 -3 16 20 20 -20 -20
-20 -20 -20 -20 -20 -20 -20 12 2 13 21 9 -20 -20 -20 -20 16 15 -20 2 6 -20 4 -20 -9 -20 -20 -7 -20 -9 2 7 11 5 3 -20 -20 -10
-20 -20 -20 -20 -1 7 1 2 5 16 -4 -11 -10 -4 10 7 -4 -12 -11 1 -18 -14 -4 -20 -20 -20 -20 -20 -19 -12 3 18 16 20 29 10 16 -17
-20 -16 8 5 4 9 5 17 6 -20 -20 -20 14 6 -15 -20 -13 2 6 6 -6 -20 -20 -20 -20 -20 -20 -19 -20 -19 1 11 7 -14 1 3 -12 -20
-20 -20 -20 8 -20 7 23 6 -20 -20 -7 -9 -20 -20 -20 -20 2 -1 3 11 -8 -7 -20 6 -10 -20 6 -6 -19 -20 -20 -20 5 16 14 -0 9 -1
-7 -20 -20 -20 18 9 -2 -19 -14 4 -19 -20 -20 -20 -20 -4 -20 -20 -10 14 16 8 -20 13 10 -18 -14 -20 -20 -20 -9 -18 -12 5 1 6 6 8
-4 -8 -12 24 -20 -20 -20 -1 -19 2 -20 -20 -20 -13 -18 -20 -20 -19 -10 -12 -14 9 3 3 17 -5 -12 -6 -20 -20 -20 -20 6 14 19 26 21 15
7 13 7 -20 -20 -20 -20 -5 -18 -20 -20 -18 -1 -20 -20 -20 -20 -20 -19 -4 5 9 4 4 10 1 2 -8 -20 -20 2 -4 15 21 24 25 23 31
9 -10 -20 -20 -20 -20 -20 -20 -20 -13 6 3 -7 -20 -20 -20 -20 -20 -9 -20 -3 -2 9 9 6 4 -13 -20 -20 -20 -0 21 16 2 21 22 15 14
4 -20 -20 -20 -20 -20 -20 -20 -20 -20 -1 -19 -20 -20 -20 -20 -20 -20 -15 -16 -12 1 -10 -18 -15 -12 -20 -20 -17 7 8 0 9 18 13 24 7 23
-19 -20 -20 -20 -20 -20 -20 -20 -20 -14 -20 -20 -20 -20 -4 -4 -18 -20 -17 2 -1 -16 -16 -20 -18 -20 -20 -17 11 2 6 11 20 30 29 22 19 28
-20 -20 1 1 -20 -20 -20 -20 -20 -20 -20 -20 -17 -3 -16 -20 -12 -20 -20 -8 -20 -20 -19 -19 -12 -17 -19 -20 -20 26 14 12 21 30 25 25 20 29
-9 -2 -12 -20 -20 -20 -20 -20 -19 -20 -20 -19 -5 -17 -17 -20 -20 -20 -20 -17 -18 -19 -20 -20 -20 -20 -6 -3 -18 18 33 16 13 15 26 24 31 28
-9 -20 -20 -20 -20 -20 -20 -20 -19 -17 -3 -14 -17 -16 -20 -20 -20 -18 -18 -11 -5 -20 -20 -20 -14 5 6 -8 -12 -3 16 28 27 12 18 18 20 20
-20 -20 -20 -20 -19 -20 -20 -17 -18 -20 -20 -20 -20 -20 -20 -20 -6 -17 -20 -20 -19 -20 -20 -20 -20 -5 -3 -20 -19 -15 -19 -14 8 19 24 22 18 21
-20 -20 -20 -19 -19 -20 -20 -20 -20 -20 -20 -20 -20 -20 -20 -20 -5 -20 -20 -20 -20 -20 -20 -20 -20 -20 -20 -19 -20 -20 -20 -20 -20 -9 17 11 22 23

GFSNE_prec_radar_012.txt.gz
Reflectivity
-20 -20 -20 -20 -20 -20 -20 -20 -20 -20 -20 -20 -20 -20 -20 -20 -20 -20 -20 -20 -20 -20 -20 -20 -20 -20 -15 12 -3 18 16 -20 13 -15 -1 -17 13 12
-20 -20 -20 -20 -20 -20 -20 -20 -20 -20 -20 -20 -20 -20 -20 -20 -20 -20 -20 -20 -20 -20 -20 -20 -20 -20 8 4 -20 -15 -1 -13 -20 -20 -17 -19 -10 2
-20 -20 -20 -20 -20 -20 -20 -20 -20 -20 -20 -20 -20 -20 -20 -20 -20 -20 -20 -8 3 -20 -20 -20 -20 -18 -18 -20 -14 -19 -15 -2 2 12 15 -5 4 -1
-20 -20 -20 -20 -20 -20 -20 -20 -20 -20 -20 -20 -20 -20 -20 -20 -20 -18 -19 -20 -20 -20 -20 -20 -19 -20 -19 -20 -20 5 8 22 15 17 -7 16 -2 22
-20 -20 -20 -20 -20 -20 -20 -20 -20 -20 -20 -7 -20 -20 -20 -17 15 -20 -20 -20 -20 -20 -20 -20 -20 -20 5 19 19 18 -4 -20 -15 8 6 4 -0 -20
-20 -20 -20 -20 -20 -20 -20 -5 -11 -20 -20 -20 -5 -8 8 6 -20 -20 -20 -20 -20 -20 -4 -8 -16 -13 -20 -20 -20 -20 -19 -20 -9 4 15 -16 6 17
-20 -20 -20 -20 -20 -17 -1 -15 -5 -14 9 16 -17 0 13 -20 -20 -20 -20 -20 -2 -14 -20 -20 -20 -20 -20 -20 -20 -20 -2 -10 -9 4 13 4 1 -13
-20 -20 -20 -20 -20 3 -20 4 9 10 4 -3 23 -18 -20 -20 -20 -7 9 7 -20 -20 -20 -20 -4 -20 -20 -20 -20 2 5 -1 12 -18 1 13 10 -18
-20 -20 -20 -20 -0 -12 -19 9 -2 -3 23 -3 -20 -20 -3 4 15 4 -20 -7 -20 -20 -2 -20 -20 -20 -20 -20 -20 -16 1 -9 -6 12 15 13 10 10
-20 -20 -20 -16 -19 5 0 -5 18 -3 -20 -20 -5 2 7 -19 -4 -16 -17 -2 -20 -20 -16 2 -20 -20 -20 -20 -20 -20 -20 -1 6 12 18 23 18 16
-20 -20 -20 -20 -7 3 12 -5 -20 -20 -20 -20 12 -5 -20 -17 -15 14 -0 -16 -20 -20 -9 -3 -20 -20 -20 -20 -20 -20 -20 7 10 18 18 15 16 19
-20 -20 -20 6 11 15 -8 -20 -20 -20 -1 -20 -20 -20 -20 -20 -5 -12 5 11 -14 -19 -7 5 -12 -20 7 -20 -20 -20 -20 -13 -4 5 9 14 16 16
-6 -20 -20 6 1 -20 -3 -20 -17 2 -17 -20 -20 -20 -20 -20 -20 -20 -14 13 12 -2 -20 14 11 -20 -11 -18 -20 -20 -19 -20 -20 -16 5 23 25 23
-19 -20 6 8 -20 -20 -9 2 -2 -0 -20 -20 -20 -20 -20 -20 -20 -20 -20 -18 -10 12 4 2 15 8 5 -16 -20 -20 -20 -20 -13 -10 10 19 31 27
1 9 -17 -19 -20 -20 -20 -18 -18 -20 -20 -3 -18 -20 -20 -20 -20 -20 -14 -7 3 13 9 -7 14 7 -4 6 -20 -20 -20 -14 11 18 11 18 13 26
3 -20 -20 -20 -20 -20 -20 -20 -20 -20 -0 -5 -20 -20 -20 -20 -20 -20 -15 -20 -13 -1 8 8 1 7 -8 -20 -20 -18 -16 11 -4 4 20 25 28 24
1 -20 -20 -20 -20 -20 -20 -20 -20 -20 -7 -20 -20 -20 -20 -20 -20 -20 -11 -5 -9 -3 -20 -20 -20 -5 -20 -16 -4 -11 -7 10 9 21 17 13 18 25
-20 -20 -20 -20 -20 -20 -20 -20 -20 -16 -20 -20 -20 -20 -19 -20 -20 -20 -14 -15 5 -20 -19 -20 -19 -20 -11 -1 -0 8 7 8 11 35 31 19 18 13
-20 -20 -20 -20 -20 -20 -20 -20 -20 -20 -20 -20 -20 -14 -4 -20 -20 -20 -20 -18 -20 -20 -20 -19 -18 -18 -15 -18 -11 18 18 19 20 17 26 24 14 30
-20 -20 -20 -20 -20 -20 -20 -20 -20 -20 -20 -20 -11 -20 -20 -16 -20 -20 -20 -18 -17 -19 -20 -20 -20 -19 -11 2 -3 11 25 15 18 19 17 30 30 29
-20 -20 -20 -20 -20 -20 -20 -20 -20 -20 -8 -11 -20 -20 -12 -11 -20 -20 -20 -13 -7 -20 -20 -20 -15 6 10 4 -9 -20 -19 18 25 29 22 10 20 23
-20 -20 -20 -20 -20 -20 -20 -20 -20 -20 -20 -20 -20 -20 -20 -18 -11 -20 -20 -20 -20 -20 -20 -20 -20 -19 -20 -20 -20 -18 -20 -14 6 18 28 31 28 19
-20 -20 -20 -20 -20 -20 -20 -20 -20 -20 -20 -20 -20 -20 -20 -20 -20 -9 -13 -20 -20 -20 -20 -20 -20 -20 -20 -20 -20 -20 -20 -20 -15 10 25 29 34 31

GFSNE_prec_radar_015.txt.gz
Reflectivity
-20 -20 -20 -20 -20 -20 -20 -20 -20 -20 -20 -20 -20 -20 -20 -20 -20 -20 -20 -20 -20 -20 -20 -20 -20 -20 -20 -20 -20 -20 1 -3 19 21 19 18 12 -11
-20 -20 -20 -20 -20 -20 -20 -20 -20 -20 -20 -20 -20 -20 -20 -20 -20 -20 -20 -20 -20 3 -20 -20 -20 -20 -20 -20 -15 2 3 4 19 13 -0 17 19 2
-20 -20 -20 -20 -20 -20 -20 -20 -20 -20 -20 -20 -20 -20 -20 -20 -20 -20 -20 -14 15 -3 -20 -20 -20 -19 -20 -16 20 -1 -16 -12 -11 3 5 -1 2 18
-20 -20 -20 -20 -20 -20 -20 -20 -20 -20 -20 -18 -20 -20 -20 -20 -20 -20 5 -18 -5 -20 -20 -20 -20 -6 -2 15 -8 1 -17 -15 -20 17 22 19 17 19
-20 -20 -20 -20 -20 -20 -20 -20 -20 -16 -1 -18 -20 -20 -20 -20 -20 -1 -20 -20 -20 -20 -20 -20 -20 -16 -10 -18 -9 6 20 17 8 14 10 8 -5 -18
-20 -20 -20 -20 -20 -20 -20 -13 1 -20 -20 -20 1 -6 -20 -5 -10 -20 -20 -20 -20 -20 -20 -7 -20 -20 -20 -20 -20 -20 -19 -10 -8 -1 1 -1 9 -18
-20 -20 -20 -20 -20 -20 -0 -14 -20 -20 -4 6 -19 12 -13 -20 -20 -20 -20 -20 -9 -15 -20 -20 -20 -20 -20 -20 -20 -20 -5 5 2 4 -2 15 16 15
-20 -20 -20 -20 -20 -20 -10 0 8 5 9 21 -1 -20 -20 -20 -20 0 6 -20 -20 -20 -14 -11 -20 -20 -20 -20 -20 -7 4 5 6 11 13 12 10 20
-20 -20 -20 -20 -20 -20 -20 -7 26 13 -4 -18 -20 -20 -16 -2 10 -17 -20 -15 -20 -20 7 -1 -20 -20 -20 -20 -20 -20 -5 6 -11 5 9 14 14 13
-20 -20 -20 -20 -11 1 6 12 -20 -20 -20 -20 -17 -4 1 -16 -19 -9 -13 1 -14 -20 4 7 -20 -20 -20 -20 -20 -13 -20 4 3 4 10 10 11 18
-20 -20 1 8 1 11 5 -20 -20 -20 -20 -20 11 -4 -20 -18 -17 12 -7 -19 -20 -20 -15 -19 -20 -20 -20 -20 -20 -20 -10 4 1 -1 5 5 8 11
-20 -20 -7 2 8 13 -0 -20 -20 -20 2 -16 -20 -20 -20 -20 -20 -15 8 12 -12 -19 -20 7 -10 -17 8 -5 -20 -20 -20 -20 -20 -16 -0 4 3 16
-20 -20 -20 3 0 -20 -3 -20 -18 5 -16 -20 -20 -20 -20 -20 -20 -20 -18 12 13 3 -20 14 10 -20 -4 -19 -20 -20 -20 -20 -20 -20 -14 11 21 20
-2 -20 -19 8 -2 -19 -17 -0 5 -0 -20 -20 -20 -20 -20 -20 -20 -20 -20 -20 2 15 4 3 17 3 2 -9 -20 -20 -20 -18 -12 -20 7 8 26 31
-18 3 -1 -19 -20 -20 -20 -18 -18 -20 -20 -20 -20 -20 -20 -20 -20 -20 -20 -20 2 12 4 -19 -6 -10 6 10 -1 -20 -2 5 6 10 8 12 18 21
-20 -20 -20 -20 -20 -20 -20 -20 -20 -20 -17 -20 -20 -20 -20 -20 -20 -20 -20 -20 -20 -20 -18 -17 4 4 1 -12 9 -3 -4 18 -4 -11 5 14 28 33
-6 -20 -20 -20 -20 -20 -20 -20 -20 -20 -20 -20 -20 -20 -20 -20 -20 -20 -20 -20 -20 -16 -20 -20 -20 -5 -10 3 1 -5 4 -1 12 16 -0 -8 3 26
-20 -20 -20 -20 -20 -20 -20 -20 -20 -20 -20 -20 -20 -20 -20 -20 -20 -20 -20 -20 -10 -20 -20 -20 -20 -16 -14 -11 1 3 8 13 26 22 20 3 1 8
-20 -20 -20 -20 -20 -20 -20 -20 -20 -20 -20 -20 -20 -20 -15 -20 -20 -20 -20 -20 -20 -20 -20 -19 -20 -20 -20 -20 -3 15 13 23 11 14 26 16 15 10
-20 -20 -20 -20 -20 -20 -20 -20 -20 -20 -20 -20 -13 -20 -20 -20 -20 -20 -20 -20 -18 -19 -20 -20 -20 -20 3 7 11 3 22 17 12 19 16 27 33 27
-20 -20 -20 -20 -20 -20 -20 -20 -20 -20 -11 -12 -20 -20 -20 -20 -20 -20 -20 -20 -11 -20 -20 -20 -20 -3 -2 -20 -20 -20 13 22 31 27 19 19 15 12
-20 -20 -20 -20 -20 -20 -20 -20 -20 -20 -20 -20 -20 -20 -20 -20 -20 -20 -20 -20 -20 -20 -20 -20 -20 -20 -20 -20 -20 -20 3 6 27 25 22 30 19 18
-20 -20 -20 -20 -20 -20 -20 -20 -20 -20 -20 -12 -20 -20 -20 -20 -20 -20 -20 -20 -20 -20 -20 -20 -20 -20 -20 -20 -20 -20 -19 -16 8 13 28 32 34 32

GFSNE_prec_radar_018.txt.gz
Reflectivity
-20 -20 -20 -20 -20 -20 -20 -20 -20 -20 -20 -20 -20 -20 -20 -20 -20 -20 -20 -20 -20 -20 -20 -20 -20 -16 5 9 -5 1 -19 -18 -12 2 -0 12 12 3
-20 -20 -20 -20 -20 -20 -20 -20 -20 -20 -20 -20 -20 -20 -20 -20 -20 -20 -20 -20 -20 -20 -20 8 -8 -10 7 -13 -20 -20 -16 -2 6 5 19 18 11 19
-20 -20 -20 -20 -20 -20 -20 -20 -20 -20 -20 -20 -20 -20 -20 -20 -20 -20 -20 -20 -20 13 12 15 8 -20 -20 -5 4 14 10 19 19 20 17 17 18 19
-20 -20 -20 -20 -20 -20 -20 -20 -20 -20 -20 -20 -20 -20 -20 -20 -20 -20 -20 7 -20 -20 -20 -20 -20 -10 -17 3 19 18 16 18 16 3 -5 -20 18 -18
-20 -20 -20 -20 -20 -20 -20 -20 -20 -19 -1 -1 -20 -20 -20 -17 -18 -20 -20 -20 -20 -20 -20 -20 -20 -20 -17 2 5 12 12 19 19 12 15 18 18 17
-20 -20 -20 -20 -20 -20 -20 -20 -13 -20 -20 -20 -18 5 11 -20 -20 -20 -20 -20 -20 -20 -20 -20 -8 -20 -20 -20 -20 -20 -20 -9 -1 3 1 5 -1 -6
-20 -20 -20 -20 -20 -20 -7 -19 -20 -20 -7 18 -9 -20 -20 -20 -20 -20 -20 -20 -20 -17 -20 -20 -20 -20 -20 -20 -20 -20 -15 4 -20 -1 10 -2 15 14
-20 -20 -20 -20 -20 -20 -5 3 7 20 -10 -20 -20 -20 -20 -20 -20 -19 2 -20 -20 -20 -20 -14 -20 -20 -20 -20 -20 -11 2 5 3 8 14 13 13 16
-20 -20 -20 -20 -20 -20 -20 -11 22 -20 -20 -20 -20 -20 -20 -20 -1 -17 -20 -20 -20 -20 -14 -7 -20 -20 -20 -20 -20 -20 -3 4 5 5 10 15 15 14
-20 -20 -20 -20 -20 2 -9 8 -20 -20 -20 -20 -20 -11 2 -15 -20 -19 -8 -2 -20 -20 -19 6 -20 -20 -20 -20 -20 -20 -20 2 3 8 10 10 11 9
-20 -20 -16 -2 -5 7 8 -19 -20 -20 -20 -20 9 -2 -20 -20 -15 8 -13 -20 -20 -20 -20 -20 -20 -20 -20 -17 -20 -20 -20 -3 -3 4 4 5 8 11
-20 -20 -20 0 4 16 2 -20 -20 -20 -5 -4 -20 -20 -20 -20 -20 -20 -20 8 -19 -14 -20 6 -15 -15 9 -20 -20 -20 -20 -20 -20 -4 2 3 6 9
-20 -20 -20 -2 6 3 2 -20 -19 7 -17 -20 -20 -20 -20 -20 -20 -20 -20 8 13 3 -20 14 5 -20 -7 -7 -20 -17 -14 -19 -17 -14 2 8 16 11
-2 -20 -20 6 -3 -20 -20 -2 4 -2 -20 -20 -20 -20 -20 -20 -20 -20 -20 -20 -14 15 3 -12 14 2 2 -18 -20 -19 2 7 2 -11 -1 -4 3 19
-19 -1 -2 -20 -20 -20 -20 -18 -20 -20 -20 -20 -20 -20 -20 -20 -20 -20 -20 -20 -17 4 -10 -20 1 -12 3 12 7 -18 15 1 4 0 -9 -16 -8 4
-20 -20 -20 -20 -20 -20 -20 -20 -20 -20 -20 -20 -20 -20 -20 -20 -20 -20 -20 -20 -20 -20 -7 -20 -15 0 7 -5 17 8 12 16 -10 -8 16 21 18 27
-8 -20 -20 -20 -20 -20 -20 -20 -20 -20 -20 -20 -20 -20 -20 -20 -20 -20 -20 -20 -20 -20 -20 -20 -19 4 2 -10 -18 -4 -10 6 9 21 13 -3 18 33
-20 -20 -20 -20 -20 -20 -20 -20 -20 -20 -20 -20 -20 -20 -20 -20 -20 -20 -20 -20 -20 -20 -20 -20 -20 -20 -16 -0 -20 -2 -16 -17 4 20 0 11 19 22
-20 -20 -20 -20 -20 -20 -20 -20 -20 -20 -20 -20 -20 -20 -19 -20 -20 -20 -20 -20 -20 -20 -20 -20 -20 -20 -20 -20 -20 2 10 -8 -13 12 20 16 23 17
-20 -20 -20 -20 -20 -20 -20 -20 -20 -20 -20 -20 -20 -20 -20 -20 -20 -20 -20 -20 -19 -20 -20 -20 -20 -19 4 11 9 -20 18 10 7 21 24 30 28 22
-20 -20 -20 -20 -20 -20 -20 -20 -20 -20 -1 -0 -20 -18 -19 -20 -20 -20 -20 -20 -16 -20 -20 -20 -20 -20 -18 -20 -20 -20 -3 20 7 26 25 2 17 1
-20 -20 -20 -20 -20 -20 -20 -20 -20 -20 -19 -19 -18 -17 -19 -20 -20 -20 -20 -20 -20 -20 -20 -20 -20 -20 -20 -20 -20 -20 -9 9 4 12 11 26 19 14
-20 -20 -20 -20 -20 -20 -20 -20 -20 -20 -15 -10 -20 -20 -20 -20 -20 -20 -20 -20 -13 -20 -20 -20 -20 -20 -20 -20 -20 -20 -20 9 4 -3 -15 27 32 34

GFSNE_prec_radar_021.txt.gz
Reflectivity
-20 -20 -20 -20 -20 -20 -20 -20 -20 -20 -20 -20 -20 -20 -20 -20 -20 -20 -20 -20 -20 -20 -20 -20 -20 -19 4 -10 6 8 15 -11 15 13 15 8 9 21
-20 -20 -20 -20 -20 -20 -20 -20 -20 -20 -20 -20 -20 -20 -20 -20 -20 -20 -20 -20 -20 -20 -20 -8 -8 -19 -15 7 -1 -11 -18 -17 8 3 -8 -14 16 1
-20 -20 -20 -20 -20 -20 -20 -20 -20 -20 -20 -20 -20 -20 -20 -20 -20 -20 -11 -20 -4 -20 -9 -20 -20 -12 -20 -20 -2 -13 -6 16 16 17 19 20 21 23
-20 -20 -20 -20 -20 -20 -20 -20 -20 -20 -20 -20 -20 -20 -20 -20 -20 7 3 -20 -20 -20 -20 -20 -1 -20 -20 -20 -10 -9 -2 -8 18 18 16 15 15 16
-20 -20 -20 -20 -20 -20 -20 -20 -20 -20 -7 8 -20 -20 -15 7 -5 -20 -20 -20 -20 -20 -20 -20 -20 -18 -15 -17 -14 -6 -15 -7 -9 -11 14 16 17 18
-20 -20 -20 -20 -20 -20 -20 -9 -5 4 -20 -20 -8 9 -13 -20 -20 -20 -20 -20 -18 -20 -20 -20 -20 -20 -20 -20 -20 -20 -0 -8 -18 -12 -1 12 13 15
-20 -20 -20 -20 -20 -18 1 2 -1 5 5 16 6 -20 -20 -20 -20 -20 -20 -3 2 -2 -20 -20 -20 -20 -20 -20 -20 -20 -15 1 5 -4 8 10 4 13
-20 -20 -20 -20 -20 -14 3 4 7 8 18 9 6 -7 -20 -20 -20 -11 10 6 -16 -20 -20 -20 -20 -20 -20 -20 -20 -15 -2 -19 -8 3 13 13 13 15
-20 -20 -20 -20 -20 -20 -20 3 4 16 -4 -18 -20 -20 -20 -20 2 10 6 8 -18 -20 -20 -20 -20 -20 -20 -20 -20 -20 -3 3 7 6 7 11 10 10
-20 -20 -20 -20 -20 2 -10 14 -9 -20 -20 -20 -20 -20 8 6 -8 3 6 8 -3 -20 -20 -20 -20 -20 -20 -20 -20 -20 -20 -2 4 8 11 11 8 9
-20 -20 -20 -8 2 1 10 5 -20 -20 -20 -20 4 -1 -19 -20 -17 3 3 -20 -20 -20 -20 -20 -20 -20 -20 -20 -20 -20 -3 3 -2 -4 3 6 4 5
-20 -20 -20 3 3 12 2 1 -4 -20 -18 6 -20 -20 -20 -20 -20 -20 2 4 -20 -18 -20 -4 -20 -12 2 -20 -20 -20 -20 -18 -20 -11 1 9 11 9
-20 -11 -20 -8 12 -15 1 -20 -19 3 -3 -20 -20 -20 -20 -20 -20 -20 -15 12 8 -10 -20 12 6 -20 -11 -20 -20 -20 -20 -15 -2 -19 -9 4 14 13
3 -20 -20 5 -3 -16 -20 -10 5 2 -20 -20 -20 -20 -20 -20 -20 -20 -20 -20 -3 5 -14 -6 12 -5 -1 -17 -20 -20 -20 -2 3 3 -3 -11 -19 10
-19 -3 -0 -19 -20 -20 -20 -20 -20 -20 -20 -20 -20 -20 -20 -20 -20 -20 -20 -20 -20 -20 -19 -20 -12 -18 -11 3 2 -20 -20 -11 -4 7 14 -5 -6 -14
-17 -20 -20 -20 -20 -20 -20 -20 -20 -20 -18 2 -20 -20 -20 -20 -20 -20 -20 -20 -20 -20 -15 -4 -13 5 1 -20 -20 -20 -20 9 2 19 26 18 -5 5
-2 -20 -20 -20 -20 -20 -20 -20 -20 -20 -20 -20 -20 -20 -20 -20 -20 -20 -20 -20 -20 -20 -20 -20 -20 -20 -19 -14 -20 -17 -3 -6 14 28 19 19 16 23
-20 -20 -20 -20 -20 -20 -20 -20 -20 -20 -20 -20 -20 -20 -20 -20 -20 -20 -20 -20 -20 -20 -20 -20 -20 -20 -20 -4 -13 -14 -15 -12 -5 25 30 0 -20 14
-20 -20 -20 -20 -20 -20 -20 -20 -20 -20 -20 -20 -20 -20 -20 -20 -19 -20 -20 -20 -20 -20 -20 -20 -20 -20 -20 -20 -18 -13 14 -12 -6 18 31 18 8 26
-20 -20 -20 -20 -20 -20 -20 -20 -20 -20 -20 -20 -20 -19 -18 -18 -20 -20 -20 -20 -19 -18 -20 -20 -20 -19 -10 4 9 -20 5 15 -4 -6 16 19 21 15
-20 -20 -20 -20 -20 -20 -20 -20 -20 -20 -11 -5 -20 -19 -18 -16 -20 -20 -20 -20 -13 -20 -20 -20 -20 -20 -20 -20 -20 -15 -20 -13 -2 18 14 2 -17 -11
-20 -20 -20 -20 -20 -20 -20 -20 -20 -20 -20 -20 -20 -20 -20 -14 -6 -20 -20 -8 -20 -20 -20 -20 -20 -20 -20 -20 -20 -20 -20 -20 -20 3 8 21 19 16
-20 -20 -20 -20 -20 -20 -20 -20 -20 -20 -20 -18 -20 -20 -20 -2 -20 -20 -20 -20 -20 -20 -20 -20 -20 -20 -20 -20 -20 -20 -20 -20 -20 -20 10 21 31 36

GFSNE_prec_radar_024.txt.gz
Reflectivity
-20 -20 -20 -20 -20 -20 -20 -20 -20 -20 -20 -20 -20 -20 -20 -20 -20 -20 -20 -20 -20 -20 -20 -20 -17 -18 -20 -15 4 -11 17 -18 -5 13 12 14 17 -1
-20 -20 -20 -20 -20 -20 -20 -20 -20 -20 -20 -20 -20 -20 -20 -20 -20 -20 -20 -20 -20 -20 -20 -20 -12 -20 -20 -20 -20 -19 -19 -8 9 8 11 17 -2 -20
-20 -20 -20 -20 -20 -20 -20 -20 -20 -20 -20 -20 -20 -20 -20 -20 -20 -20 -20 -20 -20 -20 -20 -20 -20 -3 -20 -2 4 5 -8 -10 -2 18 18 18 18 19
-20 -20 -20 -20 -20 -20 -20 -20 -20 -20 -20 -20 -20 -20 -20 -20 -20 -20 -20 -20 -20 -20 -20 -20 -20 -20 -7 3 1 -15 -18 -4 11 6 15 17 18 17
-20 -20 -20 -20 -20 -20 -20 -20 -20 -20 -18 -4 -20 -20 -8 -0 -16 -20 -20 -20 -20 -20 -20 -20 -20 -20 -20 -20 -20 -20 -20 -11 3 4 3 -13 1 -13
-20 -20 -20 -20 -20 -20 -20 -20 -20 -18 -16 -3 3 -1 10 -19 -20 -20 -20 -20 -20 -20 -20 -20 -20 -20 -20 -20 -20 -20 -19 -20 -1 8 -6 -2 -6 -1
-20 -20 -20 -20 -20 -20 -20 -20 -6 -9 8 11 10 12 -20 -20 -20 -20 -13 -9 -9 -18 -20 -20 -20 -20 -20 -20 -20 -20 -20 -20 -14 4 12 11 12 12
-20 -20 -20 -20 -20 -20 -12 -20 4 9 14 18 15 5 -20 -20 -20 -3 5 12 -1 -20 -20 -20 -20 -20 -20 -20 -20 -20 -20 -4 3 1 8 9 12 12
-20 -20 -20 -20 -20 -20 -20 -15 7 13 15 3 4 -20 -20 -20 -11 11 10 7 4 -20 -3 -20 -20 -20 -20 -20 -20 -20 -20 -20 -2 6 8 9 10 9
-20 -20 -20 -20 -20 -17 2 10 14 -12 -17 -20 -20 -20 -2 8 11 1 7 3 -2 -16 -20 -20 -20 -20 -20 -20 -20 -20 -20 -20 -18 4 12 11 9 10
-20 -20 -20 -13 -20 5 10 14 -4 -20 -20 -20 -20 4 6 -16 -15 -3 5 9 -20 -20 -20 -6 -20 -9 -20 -20 -20 -20 -20 -20 -20 -19 2 14 17 14
-20 -20 -20 -4 -20 -10 6 -1 -4 -20 -19 -3 1 -20 -20 -20 -20 -11 5 9 -18 -19 -20 -9 3 5 -13 -20 -20 -20 -20 -20 -20 -20 -20 -4 4 19
-20 -20 -20 -20 -11 -1 1 -20 -20 -1 -1 -18 -20 -20 -20 -20 -20 -20 -15 7 7 -18 -20 6 6 -15 6 -20 -20 -20 -20 -20 -20 -20 -20 -15 -2 16
-11 -20 -20 -5 -12 -20 -20 -20 2 4 -20 -20 -20 -20 -9 -8 -15 -4 -9 3 4 -12 -17 -11 11 -2 -9 -16 -20 -20 -20 -20 -20 -20 -17 -6 5 3
-4 -8 -1 -19 -20 -20 -20 -20 -20 -20 -20 -8 2 2 1 1 -4 -8 1 1 0 -5 -15 -20 5 0 6 2 -11 -20 -20 -20 -14 2 15 16 26 25
-20 -17 -20 -20 -20 -20 -20 -20 -20 -20 -20 -5 -2 -3 -18 3 -0 2 4 -20 -16 -20 -20 -20 -2 6 7 5 -20 -14 -20 -20 4 10 -9 3 1 23
-4 -20 -20 -20 -20 -20 -20 -20 -20 -20 -20 -20 -4 -15 -8 -8 -7 -1 2 5 -13 -20 -20 -20 -20 -9 6 5 -20 -20 -20 -4 3 -11 11 15 -14 26
-20 -20 -20 -20 -20 -20 -20 -20 -20 -20 -20 -8 -15 -20 -20 -6 -12 1 -4 -20 -20 -20 -20 -20 2 2 -20 -20 -20 -3 -4 1 -16 -17 6 20 7 -20
-20 -20 -20 -20 -20 -20 -20 -17 -2 -20 -20 -1 -19 -11 -19 3 -19 -20 -20 -20 -20 -20 -20 4 5 7 7 -20 -18 10 6 -15 -4 -14 1 22 17 17
-20 -20 -20 -20 -20 -20 -20 -20 -20 -15 -11 -18 0 -9 -13 -1 -16 -20 -20 -20 -15 -10 -3 -1 5 10 9 6 -6 -16 -13 22 16 3 -18 2 5 4
-20 -20 -20 -20 -20 -20 -11 -2 -11 -20 -9 -7 -20 -20 -20 -0 -18 -20 -20 -20 -11 -20 -8 0 -11 3 5 -1 5 -20 -20 -11 1 19 13 -1 -13 -20
-20 -20 -20 -20 -20 -20 -20 1 -20 -20 -20 -20 -20 -20 -20 -15 2 -20 -20 -20 -20 3 4 5 -2 4 5 6 4 -5 -20 -20 -20 -19 18 21 18 9
-20 -20 -20 -20 -20 -20 -20 -19 -20 -20 -20 -20 -20 -20 -20 -3 -20 -20 -20 -20 -2 8 2 -19 1 -0 -1 2 -1 -14 -20 -20 -13 -6 -8 21 21 31

GFSNE_prec_radar_027.txt.gz
Reflectivity
-20 -20 -20 -20 -20 -20 -20 -20 -20 -20 -20 -20 -20 -20 -20 -20 -20 -20 -20 -20 -20 -20 -20 -20 -20 -20 -20 -20 -20 2 -0 -6 -1 10 11 8 -19 4
-20 -20 -20 -20 -20 -20 -20 -20 -20 -20 -20 -20 -20 -20 -20 -20 -20 -20 -20 -20 -20 -20 -20 -20 -20 -20 -20 -20 -20 -20 7 10 5 2 6 19 20 21
-20 -20 -20 -20 -20 -20 -20 -20 -20 -20 -20 -20 -20 -20 -20 -20 -20 -20 -20 -20 -20 -20 -20 -7 -20 -20 -6 -11 -20 3 -16 7 10 0 -2 16 19 18
-20 -20 -20 -20 -20 -20 -20 -20 -20 -20 -20 -20 -20 -20 -20 -20 -20 -20 -20 -20 -20 -20 -20 -19 -20 -20 -20 -2 -11 -7 -15 3 7 12 15 12 8 20
-20 -20 -20 -20 -20 -20 -20 -20 -20 -20 -20 -20 -20 -20 -20 -20 -15 -12 -20 -20 -20 -20 -20 -20 -20 -20 -20 -6 -20 -18 -0 -1 -20 -15 2 -1 -18 -10
-20 -20 -20 -20 -20 -20 -20 -20 -20 -20 -20 -20 -20 -20 -13 0 -8 -20 -20 -20 -20 -20 -20 -20 -20 -20 -20 -20 -20 -20 -20 -12 -15 -20 3 -4 6 11
-20 -20 -20 -20 -20 -20 -20 -20 -20 -11 -8 -20 -2 -0 10 -20 -20 -20 -20 -20 -20 -20 -19 -20 -20 -20 -20 -20 -20 -20 -20 -20 -4 5 3 8 9 12
-20 -20 -20 -20 -20 -20 -20 -20 -6 2 6 9 12 8 -20 -20 -20 -20 -20 -20 -1 -20 -20 -20 -20 -20 -20 -20 -20 -20 -20 -20 -20 1 4 6 9 10
-20 -20 -20 -20 -20 -20 -20 -12 -20 3 10 9 2 1 -17 -20 -20 -20 -8 9 -20 -20 -20 -17 -20 -20 -20 -20 -20 -20 -20 -20 -20 -20 -17 -4 4 9
-20 -20 -20 -20 -20 -20 -20 -6 -16 -14 -12 -19 -20 -20 -20 -20 1 19 -8 -18 -20 -20 -13 -5 -20 -20 -20 -20 -20 -20 -20 -20 -20 -20 -20 -15 -1 4
-20 -20 -20 -20 -20 -16 -2 -9 -1 -17 -20 -20 -20 -13 1 -1 -17 -20 -20 -8 -20 -20 -20 -20 -20 -20 -20 -20 -20 -20 -20 -20 -20 -20 -20 -20 -0 2
-20 -20 -20 -20 -20 -20 1 -17 -20 -20 -20 -19 -20 -20 -20 -20 -20 -20 -14 8 -19 -20 -20 -10 -18 -14 -7 -20 -20 -20 -20 -20 -20 -20 -20 -20 -6 18
-20 -20 -20 -20 -20 5 0 -19 -20 -12 -18 -11 -20 -20 -20 -20 -19 -14 -20 -2 12 -8 -20 1 5 -20 -3 -20 -20 -20 -20 -20 -20 -20 -20 -20 -2 11
-20 -20 -20 -20 -0 -20 -14 -20 -1 -2 -20 -20 -20 -20 -13 -11 -15 -4 -14 -18 -19 -13 -20 -17 15 -4 -4 -7 -20 -19 -20 -20 -20 -20 -20 -20 1 10
-20 -20 -18 -20 -20 -20 -20 -20 -18 -20 -20 -20 -18 -13 -19 -8 -20 -14 -6 -6 -0 -18 -20 -20 -11 -6 -0 -5 -19 -20 -20 -20 -20 -20 -20 -13 5 6
-20 -20 -20 -20 -20 -20 -20 -20 -20 -20 -20 -20 -13 -20 -20 -20 -20 -9 -20 -5 -20 -20 -20 -20 -19 -1 9 -13 -16 -17 -20 -19 -20 -20 -14 -16 -20 -20
-2 -20 -20 -20 -20 -20 -20 -20 -20 -20 -18 -20 -6 -20 -20 -20 -20 -20 -20 -20 -9 -20 -20 -20 -20 -20 -20 -20 7 -19 -20 -20 -20 -20 2 -7 -20 -20
-20 -20 -20 -20 -20 -20 -20 -20 -20 -15 -18 -6 -20 -20 -20 -20 -20 -20 -20 -20 -19 -20 -20 -20 -20 -20 -20 -7 8 4 -11 -20 -20 -19 -14 8 -17 -20
-20 -20 -20 -20 -20 -20 -20 -17 -20 -20 -12 -20 -20 -20 -20 -20 -19 -20 -20 -20 -20 -20 -20 -20 -11 -15 2 -20 -20 13 14 -9 -20 -18 2 -20 -20 -20
-20 -20 -20 -20 -20 -15 -19 -20 -20 -20 -20 -20 -20 -20 -20 -20 -20 -20 -20 -20 -17 -20 -20 -20 -15 -6 10 7 0 4 -9 11 5 -2 -20 -20 -18 6
-20 -20 -20 -20 -20 -20 -20 -20 -20 -20 -11 -8 -20 -20 -20 -11 -20 -20 -20 -20 -14 -20 -20 -20 -20 -0 -20 -8 -15 -20 -20 4 10 13 6 -0 -14 -6
-20 -20 -20 -20 -20 -20 -20 -20 -20 -20 -20 -20 -20 -20 -13 -19 0 -11 -20 -20 -20 -20 -3 -13 -20 -20 -20 -14 -20 -20 -20 -20 -14 3 11 32 27 14
-20 -20 -20 -20 -20 -20 -20 -20 -20 -20 -19 -16 -16 -17 -5 4 -20 -20 -20 -20 -17 9 -20 -20 -20 -20 -20 -14 -0 -12 -20 -20 -19 -20 -11 -1 22 28

GFSNE_prec_radar_030.txt.gz
Reflectivity
-20 -20 -20 -20 -20 -20 -20 -20 -20 -20 -20 -20 -20 -20 -20 -20 -20 -20 -20 -20 -20 -20 -20 -20 -20 -20 1 -5 -20 -13 7 6 10 14 16 20 21 21
-20 -20 -20 -20 -20 -20 -20 -20 -20 -20 -20 -20 -20 -20 -20 -20 -20 -20 -20 -20 -20 -20 -20 -20 -20 -20 -20 -20 -12 1 9 8 10 12 15 21 22 21
-20 -20 -20 -20 -20 -20 -20 -20 -20 -20 -20 -20 -20 -20 -20 -20 -20 -20 -20 -20 -20 -20 -20 -20 -20 -16 -20 -18 -3 -6 -7 8 11 6 10 14 16 21
-20 -20 -20 -20 -20 -20 -20 -20 -20 -20 -20 -20 -20 -20 -20 -20 -20 -20 -20 -20 -20 -20 -20 -20 -20 -20 -20 -17 -20 -18 -2 3 5 7 10 7 5 11
-20 -20 -20 -20 -20 -20 -20 -20 -20 -20 -20 -20 -20 -20 -20 -20 -20 -20 -20 -20 -20 -20 -20 -20 -20 -20 -20 -20 -20 -16 -5 -20 -19 -13 -9 1 7 11
-20 -20 -20 -20 -20 -20 -20 -20 -20 -20 -20 -20 -20 -20 -20 -20 -18 -15 -20 -20 -20 -20 -20 -20 -20 -20 -20 -20 -20 -20 -20 -11 -20 -20 -7 4 10 5
-20 -20 -20 -20 -20 -20 -20 -20 -20 -20 -20 -20 -6 -7 -20 1 -20 -20 -20 -20 -20 -20 -20 -20 -20 -20 -20 -20 -20 -20 -20 -8 -1 9 7 9 10 6
-20 -20 -20 -20 -20 -20 -20 -20 -20 -6 -3 -6 0 9 -20 -20 -20 -20 -20 -20 -20 -20 -20 -20 -20 -20 -20 -20 -20 -20 -20 -16 3 9 11 5 1 4
-20 -20 -20 -20 -20 -20 -20 -20 -20 -20 1 3 -7 -20 -20 -20 -20 -20 -20 -15 -16 -20 -20 -20 -20 -20 -20 -20 -20 -20 -20 -20 -7 -7 9 11 6 11
-20 -20 -20 -20 -20 -20 -20 -20 -20 -20 -20 -16 -13 -20 -20 -20 -13 8 2 -20 -20 -20 -20 -20 -20 -20 -20 -20 -20 -20 -20 -20 -17 -20 -12 -10 6 10
-20 -20 -20 -20 -20 -20 -20 -20 -20 -20 -20 -20 -20 -14 3 -4 -18 -20 -20 -20 -20 -20 -20 -20 -20 -20 -20 -20 -20 -20 -20 -20 -20 -20 -20 -19 6 10
-20 -20 -20 -20 -20 -20 -0 2 -20 -20 -20 -19 -20 -20 -20 -20 -20 -20 -20 -19 -20 -19 -20 -0 -12 -19 -13 -20 -20 -20 -20 -20 -20 -20 -20 -20 -20 -20
-20 -20 -20 -20 -20 3 3 -18 -20 -15 -20 -20 -20 -20 -20 -20 -20 -20 -16 -6 2 -17 -20 6 8 -19 -3 -20 -20 -20 -20 -20 -20 -20 -20 -20 -20 -5
-20 -20 -20 -9 -6 -20 -13 -20 -19 -6 -20 -20 -20 -20 -20 -20 -20 -20 -20 -20 -20 -20 -20 -20 12 -6 1 -7 -20 -20 -20 -20 -20 -20 -20 -20 -20 -7
-20 -20 -19 -20 -20 -20 -20 -20 -20 -20 -20 -20 -20 -20 -20 -20 -20 -20 -20 -20 -20 -20 -20 -20 -15 -20 -5 -2 -20 -20 -20 -20 -20 -20 -20 -20 -20 -9
-20 -20 -20 -20 -20 -20 -20 -20 -20 -20 -20 -20 -20 -20 -20 -20 -20 -20 -20 -20 -20 -20 -20 -20 -20 -12 4 -20 -16 -18 -20 -20 -20 -20 -20 -20 -20 -20
-1 -20 -20 -20 -20 -20 -20 -20 -20 -20 -20 -20 -20 -20 -20 -20 -20 -20 -20 -19 -11 -20 -20 -20 -20 -20 -20 -20 -7 -19 -20 -20 -20 -20 -20 -13 -20 -15
-20 -20 -20 -20 -20 -20 -20 -20 -20 -20 -20 -20 -20 -20 -20 -20 -20 -20 -20 -20 -20 -20 -20 -20 -20 -20 -20 -3 13 12 1 -20 -20 -20 -20 -10 -13 -20
-20 -20 -20 -20 -20 -20 -20 -20 -20 -20 -20 -20 -20 -20 -20 -20 -20 -20 -20 -20 -20 -20 -20 -20 -20 -9 -1 -20 -4 15 19 7 -20 -20 -20 -20 -18 -20
-20 -20 -20 -20 -20 -20 -20 -20 -20 -20 -20 -20 -20 -19 -19 -20 -20 -20 -20 -20 -16 -17 -20 -20 -20 6 15 11 8 -10 3 13 8 -5 -20 -20 -20 -20
-20 -20 -20 -20 -20 -20 -20 -20 -20 -20 -8 -5 -20 -20 -20 -15 -20 -20 -20 -20 -16 -20 -20 -20 -20 2 -3 -13 -18 -20 -15 -2 6 15 8 -7 -20 -16
-20 -20 -20 -20 -20 -20 -20 -20 -20 -20 -20 -20 -20 -19 -20 -20 -13 -9 -20 -20 -20 -20 -20 -20 -5 -15 -20 -15 -20 -20 -20 -20 -20 -16 -7 9 20 19
-20 -20 -20 -20 -20 -20 -20 -20 -20 -20 -19 -18 -17 -19 -19 -11 -20 -20 -20 -20 -20 -6 2 -18 -20 -20 -20 -3 -6 -18 -20 -20 -20 -20 -20 0 16 19

GFSNE_prec_radar_036.txt.gz
Reflectivity
-11 -12 -20 -20 -20 -20 -20 -20 -20 -20 -20 -20 -20 -20 -20 -20 -20 -20 -20 -20 -20 -20 -20 -20 -14 -20 -20 -20 -19 -20 0 -14 11 11 10 10 17 21
-19 -20 -20 -20 -20 -20 -20 -20 -20 -20 -20 -20 -20 -20 -20 -20 -20 -20 -20 -20 -20 -20 -20 -20 -20 -20 -20 -12 3 3 -10 -11 -8 2 13 17 15 19
-20 -20 -20 -20 -20 -20 -20 -20 -20 -20 -20 -20 -20 -20 -20 -20 -20 -20 -20 -20 -20 -20 -20 -13 -20 -20 0 -20 -20 -12 -15 -10 9 13 14 11 15 19
-16 -20 -20 -20 -20 7 -13 -20 -20 -20 -20 -20 -20 -20 -20 -20 -20 -20 -20 -20 -20 -20 -20 -20 -20 -20 -20 -20 3 -20 8 9 -19 -20 1 4 -6 7
-20 -19 -16 -16 18 11 -4 -20 -20 -20 -20 -20 -20 -20 -20 -20 -20 -20 -20 -20 -20 -20 -20 -20 -20 -20 -20 -3 3 -0 -20 -20 -20 -18 -20 -20 -5 10
18 24 25 21 -7 -19 -15 -2 -20 -20 -20 -20 -20 -20 -20 -20 -20 -20 -20 -20 -20 -20 -20 -20 -20 -20 -20 -20 -20 -20 -20 -20 -20 -4 0 -4 8 10
31 16 0 -1 -3 -16 -17 -20 -20 -20 -20 -20 -20 -20 -20 -20 -20 -20 -20 -20 -20 -20 -20 -20 -20 -20 -20 -20 -20 -20 -20 -19 1 7 7 8 9 9
12 -0 -20 -20 -20 -20 -20 -20 -20 -20 -20 -20 -20 -20 -20 -20 -20 -20 -20 -20 -20 -20 -20 -20 -20 -20 -20 -20 -20 -20 -20 -17 1 1 9 7 10 10
-17 -20 -20 -20 -20 -20 -20 -20 -20 -20 -20 -0 -20 -20 -20 -20 -20 -20 -20 -19 -20 -20 -20 -20 -20 -20 -20 -20 -20 -20 -20 -20 -4 2 5 8 10 9
-20 -20 -20 -20 -20 -20 -20 -20 -20 -20 -20 -20 -20 -20 -20 -16 2 13 2 -20 -20 -20 -20 -20 -20 -20 -20 -20 -20 -20 -20 -20 -20 -5 1 -5 8 3
-20 -20 -20 -20 -20 -20 -20 -20 -20 -20 -20 -20 -20 -3 4 4 -19 -20 -20 -20 -20 -20 -20 -20 -20 -20 -20 -20 -20 -20 -20 -20 -20 -20 -20 -3 3 11
-20 -20 -20 -20 -20 -20 -0 -17 -20 -20 -20 -20 -20 -20 -20 -20 -20 -20 -20 -20 -20 -19 -20 -20 -20 -20 -20 -20 -20 -20 -20 -20 -20 -20 -20 -20 -2 -16
-20 -20 -20 -20 -14 3 -4 -20 -20 -15 -20 -20 -20 -20 -20 -20 -20 -20 -20 -20 -20 -20 -20 -1 -1 -20 -9 -20 -20 -20 -20 -20 -20 -20 -20 -20 -15 -1
-20 -20 -20 -20 0 -9 -20 -20 -20 -20 -20 -20 -20 -20 -20 -20 -20 -20 -20 -20 -20 -20 -20 -20 8 -20 -17 -15 -20 -20 -20 -20 -20 -20 -20 -20 -20 -13
-20 -20 3 -13 -19 -20 -20 -20 -20 -20 -20 -20 -20 -20 -20 -20 -20 -20 -20 -20 -20 -20 -20 -20 -16 -20 -13 -12 -20 -20 -20 -20 -20 -20 -20 -20 -20 -20
-20 -20 -20 -20 -20 -20 -20 -20 -20 -20 -20 -20 -20 -20 -20 -20 -20 -20 -20 -20 -20 -20 -20 -20 -20 -20 -19 -20 -14 -16 -20 -20 -20 -20 -20 -20 -20 -20
-11 -20 -20 -20 -20 -20 -20 -20 -20 -20 -20 -20 -20 -20 -20 -20 -20 -20 -20 -20 -20 -20 -20 -20 -20 -20 -20 -20 -4 -14 -20 -20 -20 -20 -20 -20 -20 -20
-20 -20 -20 -20 -20 -20 -20 -20 -20 -20 -20 -20 -20 -20 -20 -20 -20 -20 -20 -20 -20 -20 -20 -20 -20 -20 -20 -3 7 3 -9 -20 -20 -19 -14 3 -19 -20
-20 -20 -20 -20 -20 -20 -20 -20 -20 -20 -20 -20 -20 -20 -20 -20 -20 -20 -20 -20 -20 -20 -20 -20 -19 -0 7 -20 3 12 20 14 -13 -20 -20 -20 -20 -20
-20 -20 -20 -20 -20 -20 -20 -20 -20 -20 -20 -20 -20 -19 -20 -20 -20 -20 -20 -20 -20 -20 -20 -20 -20 -1 10 7 9 -2 9 12 13 5 -20 -20 -20 -20
-20 -20 -20 -20 -20 -20 -20 -20 -20 -20 -20 -20 -20 -20 -20 -17 -20 -20 -20 -20 -20 -20 -20 -20 -20 -20 -12 -13 -15 -20 -5 12 14 21 17 14 -14 -12
-20 -20 -20 -20 -20 -20 -20 -20 -20 -20 -20 -20 -20 -20 -20 -20 -20 -20 -20 -20 -20 -20 -20 -20 -20 -20 -20 1 -19 -20 -20 -20 3 13 16 22 21 20
-20 -20 -20 -20 -20 -20 -20 -20 -20 -20 -20 -20 -20 -20 -20 -19 -20 -20 -20 -20 -18 -7 -20 -20 -20 -20 -20 -20 -20 -1 -8 -7 -18 -20 -20 -1 -20 -20

GFSNE_prec_radar_039.txt.gz
Reflectivity
-14 18 -10 21 4 -20 6 -20 -20 -20 -20 -20 -20 -20 -20 -20 -20 -20 -20 -20 -20 -20 -20 -20 -20 -20 -20 -20 -20 -20 -20 -12 -8 0 8 13 18 14
2 -2 23 -10 -5 -20 -18 -20 -20 -20 -20 -20 -20 -20 -20 -20 -20 -20 -20 -20 -20 -20 -20 -20 -20 -15 -20 -20 -20 -0 7 -7 -5 10 15 12 14 13
11 13 32 7 -6 -15 5 -20 -20 -20 -20 -20 -20 -20 -20 -20 -20 -20 -20 -20 -20 -20 -20 -20 -20 -8 -20 7 -15 -18 -20 8 8 2 12 14 17 15
22 32 35 -6 -9 9 -17 -20 -3 -20 -20 -20 -20 -20 -20 -20 -20 -20 -20 -20 -20 -20 -20 -20 -11 -19 -20 -20 2 5 2 10 8 10 10 8 -3 -11
30 18 18 16 19 16 6 2 -17 -20 -20 -20 -20 -20 -20 -20 -20 -20 -20 -20 -20 -20 -20 -20 -20 -20 -17 1 4 -5 -13 -19 -19 -20 -20 -20 -20 -20
33 27 20 24 32 23 2 4 -0 -8 -16 -20 -20 -20 -20 -20 -20 -20 -20 -20 -20 -20 -20 -20 -20 -20 -20 -20 -20 -20 -20 -20 -20 -1 3 -7 -17 -9
38 33 34 26 8 4 4 -5 -18 -20 -20 -20 -20 -20 -20 -20 -20 -20 -20 -20 -20 -20 -20 -20 -20 -20 -20 -20 -20 -20 -20 -20 -12 2 5 8 7 11
24 30 15 6 11 8 -12 -14 -20 -20 -20 -20 -20 -20 -20 -20 -20 -20 -20 -20 -20 -20 -20 -20 -20 -20 -20 -20 -20 -20 -20 -20 -6 5 5 11 11 11
7 12 17 1 -11 -19 -18 -20 -20 -20 -20 -13 -20 -20 -20 -20 -20 -20 -20 -20 -20 -20 -20 -20 -20 -20 -20 -20 -20 -20 -20 -20 -8 -0 4 10 11 9
10 7 2 -10 -15 -20 -20 -20 -20 -20 -20 -20 -20 -20 -20 -20 -17 5 11 -9 -20 -20 -20 -20 -20 -20 -20 -20 -20 -20 -20 -20 -20 -11 0 7 7 8
-14 -20 -20 -20 -20 -20 -20 -20 -20 -20 -20 -20 -20 -19 -17 -1 -16 -20 -20 -20 -20 -20 -20 -20 -20 -20 -20 -20 -20 -20 -20 -20 -20 -20 -18 -5 1 5
-20 -20 -20 -20 -20 -20 -10 -19 -20 -20 -20 -20 -20 -20 -20 -20 -20 -20 -20 -20 -20 -20 -20 -20 -20 -20 -20 -20 -20 -20 -20 -20 -20 -20 -20 -20 -3 -20
-20 -20 -20 -20 -13 2 -1 -20 -20 -20 -20 -20 -20 -20 -20 -20 -20 -20 -20 -20 -20 -20 -20 -7 -4 -20 -2 -20 -20 -20 -20 -20 -20 -20 -20 -20 -20 -2
-20 -20 -20 -12 1 -19 -18 -20 -20 -20 -20 -20 -20 -20 -20 -20 -20 -20 -20 -20 -20 -20 -20 -20 8 -18 -7 -9 -20 -20 -20 -20 -20 -20 -20 -20 -20 -20
-20 -20 -18 -20 -20 -20 -20 -20 -20 -20 -20 -20 -20 -20 -20 -20 -20 -20 -20 -20 -20 -20 -20 -20 -15 -20 -4 -7 -20 -20 -20 -20 -20 -20 -20 -20 -20 -20
-20 -20 -20 -20 -20 -20 -20 -20 -20 -20 -20 -20 -20 -20 -20 -20 -20 -20 -20 -20 -20 -20 -20 -20 -20 -20 -19 -20 -11 -17 -20 -20 -20 -20 -20 -20 -20 -20
-20 -20 -20 -20 -20 -20 -20 -20 -20 -20 -20 -20 -20 -20 -20 -20 -20 -20 -20 -20 -20 -20 -20 -20 -20 -20 -20 -19 5 -16 -20 -20 -20 -20 -20 -20 -20 -20
-20 -20 -20 -20 -20 -20 -20 -20 -20 -20 -20 -20 -20 -20 -20 -20 -20 -20 -20 -20 -20 -20 -20 -20 -20 -20 -12 12 14 7 -7 -20 -20 -20 -20 7 -7 -9
-20 -20 -20 -20 -20 -20 -20 -20 -20 -20 -20 -20 -20 -20 -20 -20 -20 -20 -20 -20 -20 -20 -20 -20 -17 -4 2 -19 13 19 21 15 -1 -12 -20 -20 -20 -20
-20 -20 -20 -20 -20 -20 -20 -20 -20 -20 -20 -20 -20 -20 -20 -20 -20 -20 -20 -20 -20 -20 -20 -20 -20 2 13 11 11 -14 12 16 15 8 -19 -20 -17 -9
-20 -20 -20 -20 -20 -20 -20 -20 -20 -20 -20 -20 -20 -20 -20 -18 -20 -20 -20 -20 -20 -20 -20 -20 -20 -14 -10 -14 -20 -20 -3 16 16 19 13 12 -18 -13
-20 -20 -20 -20 -20 -20 -20 -20 -20 -20 -20 -20 -20 -20 -20 -20 -20 -20 -20 -19 -20 -20 -20 -20 -20 -20 -20 -0 -16 -20 -20 -20 7 12 13 20 18 17
-20 -20 -20 -20 -20 -20 -20 -20 -20 -20 -20 -20 -20 -20 -20 -19 -20 -20 -20 -20 -19 -3 -20 -20 -20 -20 -6 10 8 8 -3 -20 -20 -20 -20 4 -7 -20

GFSNE_prec_radar_042.txt.gz
Reflectivity
-0 -13 -19 38 24 11 8 19 15 -6 -20 -20 -7 -16 -20 -20 -20 -20 -20 -20 -20 -20 -20 -20 -20 -20 -20 -0 -20 -18 -1 -1 -20 -8 8 13 2 17
-19 -17 27 9 -20 14 -9 10 19 8 -7 -20 -20 -9 -20 -20 -20 -20 -20 -20 -20 -20 -20 -20 -20 -20 -2 -20 -15 -15 -4 -20 -20 8 -11 9 17 15
17 -20 29 -7 -20 20 32 20 31 25 -14 -20 -19 -20 -20 -20 -20 -20 -20 -20 -20 -20 -20 -20 -20 -8 -1 -1 -12 -17 -16 6 10 9 9 17 12 15
17 26 17 21 22 10 17 24 37 32 16 1 -20 -20 -20 -20 -20 -20 -20 -20 -20 -20 -20 -20 -20 -19 -20 -20 -20 -20 12 12 8 10 13 11 11 13
31 3 -10 32 11 29 31 29 29 18 12 -19 -20 -20 -20 -20 -20 -20 -20 -20 -20 -20 -20 -20 -20 -20 -20 -1 1 -2 -7 -7 -16 -20 -20 -20 -12 -19
29 27 19 27 27 27 35 28 20 12 13 -13 -20 -20 -20 -20 -20 -20 -20 -20 -20 -20 -20 -20 -20 -20 -20 -20 -20 -20 -20 -20 -3 2 -0 1 -6 -5
20 17 27 28 31 24 29 19 13 6 -19 -20 -7 -3 -20 -20 -20 -20 -20 -20 -20 -20 -20 -20 -20 -20 -20 -20 -20 -20 -20 -20 -6 1 2 6 10 11
13 26 25 20 21 16 14 11 14 -1 -14 -16 -20 -20 -20 -20 -20 -20 -20 -20 -20 -20 -20 -20 -20 -20 -20 -20 -20 -20 -20 -20 -20 1 5 12 11 10
18 18 31 18 16 8 -3 -10 -20 -20 -20 -20 -20 -20 -20 -20 -20 -20 -18 -20 -20 -20 -20 -20 -20 -20 -20 -20 -20 -20 -20 -20 -20 -1 1 -3 9 8
17 11 -3 -9 -20 -20 -20 -20 -20 -20 -20 -20 -20 -20 -20 -20 -19 -11 -13 -20 -20 -20 -20 -20 -20 -20 -20 -20 -20 -20 -20 -20 -20 -20 -0 -1 3 9
1 -6 -14 -20 -20 -20 -20 -20 -20 -20 -20 -20 -20 -20 -17 -18 -20 -20 -20 -20 -20 -20 -20 -20 -20 -20 -20 -20 -20 -20 -20 -20 -20 -20 -20 -20 -2 1
-20 -20 -20 -20 -20 -20 -11 -19 -20 -20 -20 -20 -20 -20 -20 -20 -20 -20 -20 -20 -20 -20 -20 -20 -20 -20 -20 -20 -20 -20 -20 -20 -20 -20 -20 -20 -20 -17
-20 -20 -20 -20 -4 1 -9 -20 -20 -20 -20 -20 -20 -20 -20 -20 -20 -20 -20 -20 -20 -20 -20 1 -2 -20 -15 -20 -20 -20 -20 -20 -20 -20 -20 -20 -20 -6
-20 -20 -20 -10 -12 -19 -20 -20 -20 -20 -20 -20 -20 -20 -20 -20 -20 -20 -20 -20 -20 -20 -20 -20 9 -20 -13 -20 -20 -20 -20 -20 -20 -20 -20 -20 -20 -20
-20 -20 -20 -20 -20 -20 -20 -20 -20 -20 -20 -20 -20 -20 -20 -20 -20 -20 -20 -20 -20 -20 -20 -20 -19 -20 -18 -19 -20 -20 -20 -20 -20 -20 -20 -20 -20 -20
-20 -20 -20 -20 -20 -20 -20 -20 -20 -20 -20 -20 -20 -20 -20 -20 -20 -20 -20 -20 -20 -20 -20 -20 -20 -12 -6 -20 -20 -20 -20 -20 -20 -20 -20 -20 -20 -20
-20 -20 -20 -20 -20 -20 -20 -20 -20 -20 -20 -20 -20 -20 -20 -20 -20 -20 -20 -20 -20 -20 -20 -20 -20 -20 -20 -20 -6 -19 -20 -20 -20 -20 -20 -20 -20 -20
-20 -20 -20 -20 -20 -20 -20 -20 -20 -20 -20 -20 -20 -20 -20 -20 -20 -20 -20 -20 -20 -20 -20 -20 -20 -20 -20 4 11 6 -7 -20 -20 -20 -20 -0 -18 1
-20 -20 -20 -20 -20 -20 -20 -20 -20 -20 -20 -20 -20 -20 -20 -20 -20 -20 -20 -20 -20 -20 -20 -20 -20 -20 -7 -20 2 15 19 10 -15 -20 -20 -20 -20 1
-20 -20 -20 -20 -20 -20 -20 -20 -20 -20 -20 -20 -20 -20 -20 -20 -20 -20 -20 -20 -20 -20 -20 -20 -20 -20 8 8 9 -20 14 16 9 3 -19 -20 -20 -18
-20 -20 -20 -20 -20 -20 -20 -20 -20 -20 -20 -20 -20 -20 -20 -20 -20 -20 -20 -20 -20 -20 -20 -20 -20 -20 -20 -13 -16 -20 -13 13 17 19 11 5 -20 -18
-20 -20 -20 -20 -20 -20 -20 -20 -20 -20 -20 -20 -20 -20 -20 -20 -20 -20 -20 -20 -20 -20 -20 -20 -20 -20 -20 7 -10 -20 -20 -20 10 7 11 10 13 16
-20 -20 -20 -20 -20 -20 -20 -20 -20 -20 -20 -20 -20 -20 -20 -19 -20 -20 -20 -20 -20 -20 -19 -20 -20 -20 -20 8 4 -0 -15 -20 -20 -20 -0 -17 -20 -20

GFSNE_prec_radar_045.txt.gz
Reflectivity
15 19 -17 -20 -20 -15 12 7 7 -9 -18 -10 8 5 -8 -18 -16 -19 -20 -20 -20 -20 -20 -20 -20 -20 -20 -20 -20 -20 -20 -20 -20 -2 -17 -20 13 11
9 -14 -18 -3 -20 -0 -6 -6 25 28 13 -12 4 25 15 21 19 14 6 -20 -20 -20 -20 -20 -20 -20 -20 -20 -20 -16 -8 -2 -10 11 2 4 16 18
-0 10 -4 -19 -4 9 13 27 15 28 19 12 16 30 28 35 24 18 -0 -20 -20 -20 -20 -20 -20 -20 -20 -20 -14 -20 -20 -20 -14 -6 8 15 18 15
24 1 -3 -11 17 14 35 18 30 17 24 20 12 17 29 33 21 7 -20 -20 -20 -20 -20 -20 -20 -20 -20 -20 -4 -20 -20 -13 10 12 11 12 13 12
6 8 33 21 -5 3 20 33 34 34 21 12 14 17 16 17 12 -6 -20 -20 -20 -20 -20 -20 -20 -20 -20 -19 -1 -3 -20 -7 -8 -16 -19 -18 -10 6
1 13 35 24 16 29 37 35 18 18 13 10 5 2 0 -13 -14 -17 -20 -20 -20 -20 -20 -20 -20 -20 -20 -20 -20 -20 -20 -20 -13 -1 1 8 10 7
17 22 24 28 35 37 27 21 26 29 23 18 -2 -9 -20 -20 -20 -20 -20 -20 -20 -20 -20 -20 -20 -20 -20 -20 -20 -20 -20 -20 -20 -3 0 5 9 10
17 22 19 22 13 5 4 16 5 3 3 -20 -20 -20 -20 -20 -20 -20 -20 -3 -3 -20 -20 -20 -20 -20 -20 -20 -20 -20 -20 -20 -20 2 2 6 9 9
22 12 12 13 20 18 18 15 14 6 -10 -20 -20 -20 -20 -20 -20 -20 -16 2 3 -20 -20 -20 -20 -20 -20 -20 -20 -20 -20 -20 -20 -5 2 6 6 10
14 11 5 5 3 10 8 -11 -19 -20 -20 -20 -20 -20 -20 -20 -16 -20 -7 -10 -20 -20 -20 -20 -20 -20 -20 -20 -20 -20 -20 -20 -20 -20 -3 2 7 7
11 15 13 10 -2 -18 -20 -20 -20 -20 -20 -20 -20 -20 -17 -18 -20 -20 -20 -20 -20 -20 -20 -20 -20 -20 -20 -20 -20 -20 -20 -20 -20 -20 -20 -20 -2 -5
4 -7 -16 -20 -20 -20 2 -20 -20 -20 -20 -20 -20 -20 -20 -20 -20 -20 -20 -20 -16 -20 -20 -20 -20 -19 -20 -20 -20 -20 -20 -20 -20 -20 -20 -20 -20 -6
-20 -20 -20 -20 -6 -6 -11 -20 -20 -20 -20 -20 -20 -20 -20 -20 -20 -20 -20 -2 -12 -20 -20 -6 -20 -20 -7 -20 -20 -20 -20 -20 -20 -20 -20 -20 -20 -5
-20 -20 -20 -2 -20 -20 -20 -20 -20 -20 -20 -20 -20 -20 -20 -20 -20 -20 -20 -20 -20 -20 -20 -12 4 -20 -20 -20 -20 -20 -20 -20 -20 -20 -20 -20 -20 -20
-20 -20 -20 -20 -20 -20 -20 -20 -20 -20 -20 -20 -20 -20 -20 -20 -20 -20 -20 -20 -20 -20 -20 -20 -20 -20 -18 -20 -20 -20 -20 -20 -20 -20 -20 -20 -20 -20
-20 -20 -20 -20 -20 -20 -20 -20 -20 -20 -20 -20 -20 -20 -20 -20 -20 -20 -20 -20 -20 -20 -20 -20 -20 -20 -20 -20 -20 -20 -20 -20 -20 -20 -20 -20 -20 -20
-20 -20 -20 -20 -20 -20 -20 -20 -20 -20 -20 -20 -20 -20 -20 -20 -20 -20 -20 -20 -20 -20 -20 -20 -20 -20 -20 -20 -20 -20 -20 -20 -20 -20 -20 -20 -20 -20
-20 -20 -20 -20 -20 -20 -20 -20 -20 -20 -20 -20 -20 -20 -20 -20 -20 -20 -20 -20 -20 -20 -20 -20 -20 -20 -20 -20 -20 -20 -13 -20 -20 -20 -20 -12 -16 -6
-20 -20 -20 -20 -20 -20 -20 -20 -20 -20 -20 -20 -20 -20 -20 -20 -20 -20 -20 -20 -20 -20 -20 -20 -20 -20 -3 -20 -17 5 8 4 4 -20 -20 -19 -20 -20
-20 -20 -20 -20 -20 -20 -20 -20 -20 -20 -20 -20 -20 -20 -20 -20 -20 -20 -20 -20 -20 -20 -20 -20 -20 -20 -7 -20 -6 -20 -9 -2 -5 -18 -20 -20 -20 -20
-20 -20 -20 -20 -20 -20 -20 -20 -20 -20 -20 -20 -20 -20 -20 -19 -20 -20 -20 -20 -11 -20 -20 -20 -20 -20 -20 -12 -3 -20 -20 2 9 12 -9 -4 -20 -20
-20 -20 -20 -20 -20 -20 -20 -20 -20 -20 -20 -20 -20 -20 -20 -20 -20 -20 -20 -20 -20 -20 -20 -20 -20 -19 4 5 0 -15 -20 -20 -17 -4 8 23 17 3
-20 -20 -20 -20 -20 -20 -20 -20 -20 -20 -20 -20 -20 -20 -20 -20 -20 -20 -20 -20 -20 -20 -20 -17 -15 2 3 9 5 -13 -20 -20 -20 -20 6 16 0 -20

GFSNE_prec_radar_048.txt.gz
Reflectivity
23 22 15 -11 -20 -19 -10 -20 7 -10 -20 23 10 26 15 26 18 10 4 14 20 1 -20 -20 -20 -20 -20 -20 -20 -20 -20 -20 -20 -20 -3 -13 -8 2
20 20 19 -20 -20 -5 22 10 -20 15 -14 -5 13 24 29 18 21 7 9 13 16 -9 -17 6 -6 -20 -20 -20 -20 -20 -20 -12 -20 -11 -12 -13 7 17
-6 -17 -13 13 16 8 27 25 3 5 -1 23 13 23 31 32 20 19 6 -5 -18 -20 -16 9 4 -19 -20 -20 -20 -20 -20 -20 -20 -5 -20 -9 18 16
17 13 -0 2 11 13 28 22 1 27 17 21 25 22 31 32 17 -7 -9 -20 -20 -20 -20 -7 -2 -11 -20 -20 -16 -4 -19 -20 -20 4 11 14 13 12
2 2 1 10 17 17 30 25 25 40 35 16 2 22 13 -1 -10 -2 -4 1 4 -20 -20 -20 -20 -20 -20 -20 -20 -20 -20 -20 -20 -20 -20 -20 -20 -15
2 10 11 8 26 11 29 26 35 34 27 17 -0 14 14 1 -15 -13 -19 -20 -20 -20 -20 -20 -20 -20 -20 -20 -20 -20 -20 -20 -20 -14 0 2 -8 -6
9 8 4 11 29 30 21 6 16 29 28 3 -10 -20 -18 -20 -15 -18 -20 -20 -20 -20 -20 -20 -20 -20 -20 -20 -20 -20 -20 -20 -20 -20 -2 2 6 7
4 14 28 32 31 17 11 4 0 -7 -2 -16 -20 -16 -2 -3 -20 -20 -20 -20 -20 -20 -20 -20 -20 -20 -20 -20 -20 -20 -20 -20 -20 -3 0 0 1 10
15 5 -3 -13 -2 12 12 -1 -17 -20 -20 -10 -9 -16 -20 -20 -20 -19 -8 -11 -11 -20 -20 -20 -20 -20 -20 -20 -20 -20 -20 -20 -20 -20 -2 3 4 2
-11 18 10 -6 -18 -18 -17 -20 -10 -6 -16 -20 -20 -20 -20 -20 -19 -10 -5 -11 -20 -20 -20 -20 -20 -20 -20 -20 -20 -20 -20 -20 -20 -20 -14 -0 -2 -2
6 -10 -20 -10 -15 -20 -20 -20 -20 -20 -20 -20 -20 -20 -20 -20 -20 -20 -20 -7 -11 -20 -20 -20 -20 -20 -20 -20 -20 -20 -20 -20 -20 -20 -20 -20 -12 -0
-10 -11 -20 -20 -20 -20 -12 -1 -20 -20 -20 -20 -20 -20 -20 -20 -20 -20 -20 -1 -6 -13 -20 -20 -20 -1 -17 -20 -20 -20 -20 -20 -20 -20 -2 -20 -20 -11
-11 -18 -16 -17 -5 -8 -20 -20 -20 -20 -20 -20 -20 -20 -20 -20 -20 -20 -20 -20 -13 -6 -20 -3 -13 -17 2 -20 -20 -20 -20 -20 -20 -20 -20 -20 -20 -5
-20 -20 -20 -20 -20 -20 -20 -20 -20 -20 -20 -20 -20 -20 -20 -20 -20 -20 -20 -20 -12 -11 -20 3 -1 -10 -13 -20 -20 -20 -20 -20 -16 -17 -9 -20 -20 -5
-20 -20 -20 -20 -20 -20 -20 -20 -20 -20 -20 -20 -20 -20 -20 -20 -20 -20 -20 -5 -19 -13 -15 -18 -5 -20 -14 -20 -20 -20 -20 -20 -20 -2 -3 -18 -1 1
-20 -20 -20 -20 -20 -20 -20 -20 -20 -20 -20 -20 -20 -20 -20 -20 -20 -20 -10 -20 -20 -20 -20 -20 -20 -2 -20 -20 -15 -20 -20 -16 -19 -20 -1 2 1 -0
-20 -20 -20 -20 -20 -20 -20 -20 -20 -20 -20 -20 -20 -20 -20 -20 -20 -20 -20 -20 -12 -20 -20 -20 -14 1 -7 -11 -18 -20 -20 -20 -10 -1 -6 -9 -15 -5
-20 -20 -20 -20 -20 -20 -20 -20 -20 -20 -20 -20 -20 -20 -9 -20 -20 -14 -9 -20 -18 -20 -20 -20 -11 -6 -13 -20 -16 -20 -20 -6 -8 1 3 4 -7 1
-20 -20 -20 -20 -20 -20 -20 -20 -20 -20 -20 -20 -18 -5 -7 -5 -8 -13 -4 -20 -8 -20 -20 -1 0 6 3 -20 -20 -20 -2 -6 -0 5 3 3 -9 -20
-20 -20 -20 -20 -20 -20 -20 -20 -20 -20 -20 -17 -7 -20 -20 -6 -20 -20 -20 -20 -17 -12 -20 -20 -9 3 6 6 5 -10 -20 -20 -10 -1 -3 -6 -7 -20
-20 -20 -20 -20 -20 -20 -20 -20 -20 -13 -20 -19 -20 -20 -15 -20 -20 -20 -20 -20 -17 -20 -12 -20 -20 -15 -17 -6 0 -12 -11 -13 -10 10 1 8 -20 -3
-20 -20 -20 -20 -20 -20 -20 -20 -20 -17 -16 -8 -20 -20 -9 -15 -20 -20 -20 -20 -20 -20 -20 -20 -20 4 6 3 6 -2 -20 -20 -20 -6 -3 10 14 2
-20 -20 -20 -20 -20 -20 -20 -20 -20 -20 -13 -20 -20 -20 -20 -19 -20 -20 -20 -20 -20 -20 -20 -20 2 8 9 9 9 7 -20 -20 -20 -20 -8 14 5 -20

GFSNE_prec_radar_054.txt.gz
Reflectivity
25 14 18 24 14 12 25 15 -15 -5 14 23 37 17 14 16 12 36 32 29 21 17 20 15 8 6 16 -13 -20 -20 -20 -20 -20 -20 -20 -20 -20 -18
21 19 23 23 21 18 17 19 19 19 24 17 35 41 42 24 33 38 32 20 19 7 31 10 21 11 -10 -20 -20 -20 -20 -20 -20 -20 -20 -20 -20 -20
13 6 20 28 19 20 23 17 17 20 20 20 30 32 26 38 31 28 11 10 -8 12 7 1 -15 -20 -20 -20 -20 -20 -20 -20 -20 -20 -20 -20 -14 -20
7 17 -0 15 21 23 22 25 31 30 35 31 34 20 -18 -5 -13 -15 -19 -20 -20 -20 -20 -19 -20 -20 -20 -20 -20 -20 -20 -20 -20 -20 -1 -19 -10 -1
10 21 11 1 7 15 19 14 16 -8 13 10 14 -4 -11 -5 -2 -16 -20 -18 -8 -20 -20 -20 -20 -20 -20 -20 -20 -20 -10 -3 -4 -2 -5 -17 -20 -20
-2 -9 19 14 8 5 12 9 14 7 -13 -8 -9 14 -16 -2 -14 -20 -20 -20 -20 -20 -20 -20 -20 -20 -20 -20 -20 -20 -20 -20 -20 -15 -11 -20 -20 -16
-20 -20 -3 7 8 2 -13 -8 -1 -14 9 -7 -20 -20 -20 -20 -9 -20 -20 -20 -20 -20 -20 -20 -20 -20 -20 -20 -20 -20 -20 -20 -20 -12 -15 -11 2 12
9 -9 24 20 7 4 11 23 5 -20 -20 -20 -20 -20 -20 -20 -20 -20 -20 -20 -20 -20 -20 -20 -20 -20 -20 -20 -20 -20 -20 -20 -20 -20 -20 -20 -20 -20
29 17 7 19 21 -8 -8 -19 -20 -20 -20 -20 -20 -20 -20 -20 -20 -20 -20 -20 -20 -20 -20 -20 -20 -20 -20 -20 -20 -20 -20 -20 -20 -20 -20 -8 -1 -2
31 15 -8 -20 -20 -20 -20 -20 -20 -20 -20 -20 -20 -20 -20 -20 -20 -20 -20 -20 -20 -20 -20 -20 -20 -20 -20 -20 -20 -20 -20 -20 -20 -20 -20 -11 -6 4
-20 -20 -18 -20 -20 -20 -20 -20 -20 -20 -20 -20 -20 -20 -20 -20 -20 -20 -20 -20 -20 -20 -20 -20 -20 -20 -20 -20 -20 -20 -20 -20 -20 -20 -20 -7 -3 1
-20 -20 -20 -20 -20 -20 -20 -20 -20 -20 -20 -20 -20 -20 -20 -20 -20 -20 -20 -20 -20 -20 -20 -20 -20 -20 -20 -20 -20 -20 -20 -20 -20 -20 -20 -20 -3 -19
-20 -20 -20 -20 -20 -20 -20 -20 -20 -20 -20 -20 -20 -20 -20 -20 -20 -20 -20 -20 -20 -20 -20 -20 -20 -20 -12 -20 -20 -20 -20 -20 -20 -20 -20 -20 -20 1
-20 -20 -20 -20 -20 -20 -20 -20 -20 -20 -20 -20 -20 -20 -20 -20 -20 -20 -20 -20 -20 -20 -20 -20 -20 -20 -20 -20 -20 -20 -20 -20 -20 -20 -20 -20 -20 -20
-20 -20 -20 -20 -20 -20 -20 -20 -20 -20 -20 -20 -20 -20 -20 -20 -20 -20 -20 -20 -20 -20 -19 -20 -20 -20 -17 -19 -19 -20 -20 -20 -20 -20 -20 -20 -20 -20
-20 -20 -20 -20 -20 -20 -20 -20 -20 -20 -20 -20 -20 -20 -20 -20 -20 -20 -20 -20 -20 -20 -20 -18 -20 -20 -17 -18 -16 -19 -20 -20 -20 -20 -20 -20 -20 -20
-20 -20 -20 -20 -20 -20 -20 -20 -20 -20 -20 -20 -20 -20 -20 -20 -20 -20 -20 -20 -19 -20 -20 -20 -20 -20 -20 -20 -19 -20 -20 -20 -20 -20 -20 -20 -20 -20
-20 -20 -20 -20 -20 -20 -20 -20 -20 -20 -20 -20 -20 -20 -20 -20 -20 -20 -20 -20 -20 -20 -20 -20 -20 -20 -20 -20 -20 -20 -20 -20 -20 -20 -20 -20 -20 -20
-20 -20 -20 -20 -20 -20 -20 -20 -20 -20 -20 -20 -20 -20 -20 -20 -13 -20 -20 -20 -20 -20 -20 -20 -18 -19 -18 -20 -20 -20 -20 -20 -20 -20 -20 -20 -20 -20
-20 -20 -20 -20 -20 -20 -20 -20 -20 -20 -20 -20 -20 -20 -20 -20 -20 -20 -20 -20 -20 -20 -20 -20 -20 -20 -11 -20 -9 -20 -20 -20 -20 -20 -20 -20 -20 -20
-20 -20 -20 -20 -20 -20 -20 -20 -20 -20 -19 -20 -20 -20 -20 -20 -20 -20 -20 -10 -3 -20 -20 -20 -20 -14 -17 -20 -15 -20 -20 -20 -20 -20 -20 -20 -20 -20
-20 -20 -20 -20 -20 -20 -20 -20 -20 -20 -20 -20 -20 -20 -20 -20 -20 -20 -20 -20 -20 -20 -20 -20 -20 -20 -18 -17 -20 -20 -20 -20 -20 -20 -20 -20 -12 -16
-20 -20 -20 -20 -20 -20 -20 -20 -20 -20 -20 -20 -20 -20 -20 -20 -20 -20 -20 -20 -20 -20 -20 -20 -20 -20 -20 -20 -20 -20 -20 -20 -20 -20 -20 -20 -20 -20

GFSNE_prec_radar_057.txt.gz
Reflectivity
-13 -16 16 -20 -20 23 29 22 27 23 14 4 -18 -20 -9 -11 30 35 34 37 36 27 36 35 33 27 21 17 15 11 8 -20 -20 -20 -20 -20 -20 -20
-15 2 13 -8 -16 -2 37 27 29 21 16 4 17 16 -1 24 27 33 33 24 34 34 19 22 25 18 7 17 11 2 -20 -20 -20 -20 -20 -20 -20 -20
-20 0 -11 4 3 6 25 12 -6 39 44 28 26 23 31 31 35 19 15 10 17 17 14 7 13 14 -1 -19 -19 -20 -20 -20 -20 -20 -20 -20 -20 -20
13 11 -5 -20 -20 5 1 -2 10 30 26 37 37 40 29 30 29 9 -3 7 -9 18 12 11 -12 -14 -20 -20 -20 -20 -20 -20 -20 -9 -0 -1 -3 5
10 15 9 -11 14 -14 -19 -20 -11 19 21 18 11 29 13 8 5 -19 -5 -1 -7 4 -4 -15 -9 -20 -20 -20 -20 -20 -20 -20 -20 -17 -16 -20 -20 -20
-20 -19 -20 -20 -20 -20 -20 -18 -20 -2 2 2 16 13 -7 8 -8 -19 -16 -20 -16 -20 -20 -20 -20 -20 -20 -20 -20 -20 -20 -20 -20 -20 -20 -20 -20 -20
-3 9 -9 3 10 -3 -20 -20 -19 -20 -19 -9 6 -13 -9 -15 -17 -20 -20 -20 -20 -20 -20 -20 -20 -20 -20 -20 -20 -20 -20 -20 -20 -20 -20 -20 -20 1
5 10 -14 5 7 20 20 9 -5 -20 -20 -20 -20 -20 -20 -20 -20 -20 -20 -20 -20 -20 -20 -20 -20 -20 -20 -20 -20 -20 -20 -20 -20 -20 -20 -20 -2 -20
-20 -20 -19 -10 3 24 7 -18 -14 6 -9 -20 -20 -20 -20 -20 -20 -20 -20 -20 -20 -20 -20 -20 -20 -20 -20 -20 -20 -20 -20 -20 -20 -20 -20 0 -2 0
-20 -20 -20 -20 -20 -20 -20 -20 -20 -20 -20 -20 -20 -20 -20 -20 -20 -20 -20 -20 -20 -20 -20 -20 -20 -20 -20 -20 -20 -20 -20 -20 -20 -20 -20 -20 -20 -13
-20 -20 -20 -20 -20 -20 -20 -20 -20 -20 -20 -20 -20 -20 -20 -20 -20 -20 -20 -20 -20 -20 -20 -20 -20 -20 -20 -20 -20 -20 -20 -20 -20 -20 -20 -20 -16 -12
-20 -20 -20 -20 -20 -20 -20 -20 -20 -20 -20 -20 -20 -20 -20 -20 -20 -20 -20 -20 -20 -20 -20 -20 -20 -20 -20 -20 -20 -20 -20 -20 -20 -20 -20 -20 -9 -20
-20 -20 -20 -20 -20 -20 -20 -20 -20 -20 -20 -20 -20 -20 -20 -20 -20 -20 -20 -20 -20 -20 -20 -20 -20 -20 -20 -20 -20 -20 -20 -20 -20 -20 -20 -20 -20 -12
-20 -20 -20 -20 -20 -20 -20 -20 -20 -20 -20 -20 -20 -20 -20 -20 -20 -20 -20 -20 -20 -20 -20 -20 -20 -20 -20 -20 -20 -20 -20 -20 -20 -20 -20 -20 -20 -20
-20 -20 -20 -20 -20 -20 -20 -20 -20 -20 -20 -20 -20 -20 -20 -20 -20 -20 -20 -20 -20 -20 -19 -20 -20 -20 -19 -19 -19 -20 -20 -20 -20 -20 -20 -20 -20 -20
-20 -20 -20 -20 -20 -20 -20 -20 -20 -20 -20 -20 -20 -20 -20 -20 -20 -20 -20 -20 -20 -20 -20 -17 -19 -20 -18 -19 -19 -20 -20 -20 -20 -20 -20 -20 -20 -20
-20 -20 -20 -20 -20 -20 -20 -20 -20 -20 -20 -20 -20 -20 -20 -20 -20 -20 -20 -20 -20 -20 -20 -20 -20 -20 -19 -20 -16 -20 -20 -20 -20 -20 -20 -20 -20 -20
-20 -20 -20 -20 -20 -20 -20 -20 -20 -20 -20 -20 -20 -20 -20 -20 -20 -20 -20 -20 -20 -20 -20 -20 -20 -20 -20 -20 -2 -20 -20 -20 -20 -20 -20 -20 -20 -20
-20 -20 -20 -20 -20 -20 -20 -20 -20 -20 -20 -20 -20 -20 -20 -20 -19 -20 -20 -20 -20 -20 -20 -20 -20 -19 -20 -20 -20 -20 -20 -20 -20 -20 -20 -20 -20 -20
-20 -20 -20 -20 -20 -20 -20 -20 -20 -20 -20 -20 -20 -20 -20 -20 -20 -20 -20 -20 -20 -20 -20 -20 -20 -20 -20 -20 -20 -20 -20 -20 -20 -20 -20 -20 -20 -20
-20 -20 -20 -20 -20 -20 -20 -20 -20 -20 -20 -20 -20 -20 -20 -20 -20 -20 -20 -11 -3 -20 -20 -20 -20 -20 -20 -20 -15 -20 -20 -20 -20 -20 -20 -20 -20 -20
-20 -20 -20 -20 -20 -20 -20 -20 -20 -20 -20 -20 -20 -20 -20 -20 -20 -20 -20 -20 -20 -20 -20 -20 -20 -20 -20 -18 -20 -20 -20 -20 -20 -20 -20 -20 -20 -20
-20 -20 -20 -20 -20 -20 -20 -20 -20 -20 -20 -20 -20 -20 -20 -20 -20 -20 -20 -20 -20 -20 -20 -20 -20 -20 -20 -19 -19 -20 -20 -20 -20 -20 -20 -20 -20 -20

GFSNE_prec_radar_060.txt.gz
Reflectivity
-20 -20 -6 -11 3 -13 -19 -18 6 26 -3 22 40 36 36 33 37 15 17 22 17 29 30 28 31 33 32 29 24 23 22 11 5 6 5 -13 -20 -20
-20 -20 -20 -15 -11 15 17 22 20 24 20 -1 27 35 31 31 27 37 27 23 22 36 23 14 30 31 26 16 11 14 12 6 3 -8 -16 -20 -20 -20
-20 -20 -20 -20 4 9 -17 1 12 10 -6 11 -0 23 35 29 15 22 37 29 25 20 25 16 18 21 20 19 12 4 -10 -18 -20 -20 -20 -20 -20 -20
-20 -12 11 11 -20 17 12 1 -20 -19 -20 -11 6 2 22 16 27 26 21 20 14 16 14 3 11 21 4 -1 -19 -20 -20 -20 -20 -20 -20 -4 -20 9
-20 2 -0 -15 5 17 -1 8 1 -18 7 -17 -15 10 -11 25 20 18 25 22 3 21 12 3 14 -17 -20 -20 -20 -20 -20 -20 -20 -8 -20 -20 -20 -14
-20 -20 -3 -18 -5 -20 11 -5 10 -13 -19 16 -3 -2 -6 -4 17 5 -2 2 5 -18 -20 -19 -20 -20 -20 -20 -20 -20 -20 -20 -20 -20 -20 -20 -20 -20
-20 -20 -11 0 4 -3 -20 -20 -20 -20 -13 -13 -18 -15 -15 -13 -13 11 -4 -15 -17 -20 -20 -20 -20 -20 -20 -20 -20 -20 -20 -20 -20 -20 -20 -12 -7 1
-20 -20 -20 -15 -1 14 9 -0 -20 -20 -19 -18 -17 -20 -20 -20 -20 -20 -20 -20 -20 -20 -20 -20 -20 -20 -20 -20 -20 -20 -20 -20 -20 -20 -20 -5 -5 10
-20 -20 -20 -20 -20 -20 -20 -20 -20 -20 -20 -20 -20 -20 -20 -20 -20 -20 -20 -20 -20 -20 -20 -20 -20 -20 -20 -20 -20 -20 -20 -20 -20 -20 -20 -17 -15 -9
-20 -20 -20 -20 -20 -20 -20 -20 -20 -20 -20 -20 -20 -20 -20 -20 -20 -20 -20 -20 -20 -20 -20 -20 -20 -20 -20 -20 -20 -20 -20 -20 -20 -20 -20 -20 -20 -13
-20 -20 -20 -20 -20 -20 -20 -20 -20 -20 -20 -20 -20 -20 -20 -20 -20 -20 -20 -20 -20 -20 -20 -20 -20 -20 -20 -20 -20 -20 -20 -20 -20 -20 -20 -20 -20 -20
-20 -20 -20 -20 -20 -20 -20 -20 -20 -20 -20 -20 -20 -20 -20 -20 -20 -20 -20 -20 -20 -20 -20 -20 -20 -20 -20 -20 -20 -20 -20 -20 -20 -20 -20 -20 -20 -20
-20 -20 -20 -20 -13 -20 -20 -20 -20 -20 -20 -20 -20 -20 -20 -20 -20 -20 -20 -20 -20 -20 -20 -20 -20 -20 -10 -20 -20 -20 -20 -20 -20 -20 -20 -20 -20 -20
-20 -20 -20 -20 -20 -20 -20 -20 -20 -20 -20 -20 -20 -20 -20 -20 -20 -20 -20 -20 -20 -20 -20 -20 -19 -20 -20 -20 -20 -20 -20 -20 -20 -20 -20 -20 -20 -20
-20 -20 -20 -20 -20 -20 -20 -20 -20 -20 -20 -20 -20 -20 -20 -20 -20 -20 -20 -20 -20 -20 -18 -20 -20 -20 -18 -20 -20 -20 -20 -20 -20 -20 -20 -20 -20 -20
-20 -20 -20 -20 -20 -20 -20 -20 -20 -20 -20 -20 -20 -20 -20 -20 -20 -20 -20 -20 -20 -20 -20 -10 -20 -20 -17 -19 -20 -20 -20 -20 -20 -20 -20 -20 -20 -20
-20 -20 -20 -20 -20 -20 -20 -20 -20 -20 -20 -20 -20 -20 -20 -20 -20 -20 -20 -20 -20 -20 -20 -20 -20 -20 -20 -19 -16 -20 -20 -20 -20 -20 -20 -20 -20 -20
-20 -20 -20 -20 -20 -20 -20 -20 -20 -20 -20 -20 -20 -20 -20 -20 -20 -20 -20 -20 -20 -20 -20 -20 -20 -20 -20 -20 -20 -20 -20 -20 -20 -20 -20 -20 -20 -20
-20 -20 -20 -20 -20 -20 -20 -20 -20 -20 -20 -20 -20 -20 -20 -20 -19 -20 -20 -20 -20 -20 -20 -20 -20 -20 -20 -20 -20 -20 -20 -20 -20 -20 -20 -20 -20 -20
-20 -20 -20 -20 -20 -20 -20 -20 -20 -20 -20 -9 -20 -20 -20 -20 -20 -20 -20 -20 -20 -20 -20 -20 -20 -20 -20 -20 -20 -20 -20 -20 -20 -20 -20 -20 -20 -20
-20 -20 -20 -20 -20 -20 -20 -20 -20 -20 -20 -20 -20 -20 -20 -20 -20 -20 -20 -10 -11 -20 -20 -20 -20 -20 -2 -2 -13 -20 -20 -20 -20 -20 -20 -20 -20 -20
-20 -20 -20 -20 -20 -20 -20 -20 -20 -20 -20 -20 -20 -20 -20 -20 -20 -20 -20 -20 -20 -20 -20 -20 -20 -20 -20 -20 -20 -20 -20 -20 -20 -20 -20 -18 -20 -20
-20 -20 -20 -20 -20 -20 -20 -20 -20 -20 -20 -20 -20 -20 -20 -20 -20 -20 -20 -20 -20 -20 -20 -20 -20 -20 -20 -20 -20 -20 -20 -20 -20 -20 -20 -20 -20 -20

GFSNE_prec_radar_066.txt.gz
Reflectivity
-6 -8 -8 -18 -14 -20 -20 8 11 9 -17 -6 -20 -20 -20 -20 -20 -20 -20 -20 -18 26 28 29 33 31 25 28 32 25 17 23 23 19 19 24 25 28
-20 -20 -20 -20 -20 -20 -20 -20 -20 -4 -14 -20 -20 -20 -20 -20 -8 -20 -18 13 -5 17 31 31 32 35 25 33 29 21 7 5 13 19 25 22 23 21
-20 -20 -20 -20 -20 -20 -20 6 6 -12 -20 -20 -20 -20 -20 -20 -20 -20 -7 -20 13 19 34 31 32 29 26 25 24 24 19 18 14 15 14 12 12 13
-20 -20 -20 -20 -20 -2 -2 2 -19 -9 -20 -20 -20 -20 -20 -20 -20 -20 -20 -20 -6 17 10 12 19 27 23 14 17 10 6 14 -1 -8 -10 -8 -12 -19
-20 -20 -20 -20 -20 -20 -19 -18 -20 -20 -20 -20 -20 -20 -20 -20 -20 -20 -20 -20 -20 -20 -13 -15 8 16 10 6 11 1 -4 -6 -18 -20 -20 -20 -20 -20
-18 5 2 -18 -20 -20 -20 -20 -20 -20 -20 -20 -20 -20 -20 -20 -20 -20 -20 -20 -20 -20 3 -0 3 10 9 9 -2 -20 -20 -20 -20 -20 -20 -20 -20 -20
-20 -20 -20 -10 -8 -7 -20 -20 -20 -20 -20 -20 -20 -20 -20 -20 -20 -20 -20 -20 -20 -20 -20 -20 -20 -20 -20 -20 -20 -20 -20 -20 -20 -20 -20 -20 -20 -20
-20 -20 -20 -18 -20 -20 -20 -20 -20 -20 -20 -20 -20 -20 -20 -20 -20 -20 -20 -20 -20 -20 -20 -20 -20 -20 -20 -20 -20 -20 -20 -20 -20 -20 -20 -6 6 -1
-20 -20 -20 -20 -20 -20 -20 -20 -20 -20 -20 -20 -20 -20 -20 -20 -20 -20 -20 -20 -20 -20 -20 -20 -20 -20 -20 -20 -20 -20 -20 -20 -20 -20 -20 -4 -6 6
-20 -20 -20 -20 -20 -20 -20 -20 -20 -20 -20 -20 -20 -20 -20 -20 -20 -20 -20 -20 -20 -20 -20 -20 -20 -20 -20 -20 -20 -20 -20 -20 -20 -20 -12 -20 -20 -20
-20 -20 -20 -20 -20 -20 -20 -20 -20 -20 -20 -20 -20 -20 -20 -20 -20 -20 -20 -20 -20 -20 -20 -20 -20 -20 -20 -20 -20 -20 -20 -20 -20 -20 -20 -20 -20 -20
-20 -20 -20 -20 -20 -20 -20 -20 -20 -20 -20 -20 -20 -20 -20 -20 -20 -20 -20 -20 -20 -20 -20 -20 -20 -20 -20 -20 -20 -20 -20 -20 -20 -20 -20 -20 -20 -20
-20 -20 -20 -20 -20 -20 -20 -20 -20 -20 -20 -20 -20 -20 -20 -20 -20 -20 -20 -20 -20 -20 -20 -20 -20 -20 -20 -20 -20 -20 -20 -20 -20 -20 -20 -20 -20 -20
-20 -20 -20 -20 -20 -20 -20 -20 -20 -20 -20 -20 -20 -20 -20 -20 -20 -20 -20 -20 -20 -20 -20 -20 -20 -20 -20 -20 -20 -20 -20 -20 -20 -20 -20 -20 -20 -20
-20 -20 -20 -20 -20 -20 -20 -20 -20 -20 -20 -20 -20 -20 -20 -20 -20 -20 -20 -20 -20 -20 -5 -20 -20 -20 -19 -20 -20 -20 -20 -20 -20 -20 -20 -20 -20 -20
-20 -20 -20 -20 -20 -20 -20 -20 -20 -20 -20 -20 -20 -20 -20 -20 -20 -20 -20 -20 -20 -20 -20 -20 -20 -20 -20 -20 -18 -20 -20 -20 -20 -20 -20 -20 -20 -20
-20 -20 -20 -20 -20 -20 -20 -20 -20 -20 -20 -20 -20 -20 -14 -13 -19 -16 -20 -20 -20 -20 -20 -20 -20 -20 -20 -20 -20 -20 -20 -20 -20 -20 -20 -20 -20 -20
-20 -20 -20 -20 -20 -20 -20 -20 -20 -20 -20 -20 -20 -20 -20 -20 -20 -20 -20 -20 -20 -20 -20 -20 -20 -20 -20 -20 -20 -20 -20 -20 -20 -20 -20 -20 -20 -20
-20 -20 -20 -20 -20 -20 -20 -20 -20 -20 -20 -20 -20 -20 -20 -20 -20 -20 -20 -20 -20 -20 -20 -20 -20 -20 -20 -20 -20 -20 -20 -20 -20 -20 -20 -20 -20 -20
-20 -20 -20 -20 -20 -20 -20 -20 -20 -20 -20 -20 -20 -20 -20 -20 -20 -20 -20 -20 -20 -20 -20 -20 -20 -20 -20 -19 -20 -20 -20 -20 -20 -20 -20 -20 -20 -20
-20 -20 -20 -20 -20 -20 -20 -20 -20 -20 -20 -20 -20 -20 -20 -20 -20 -20 -20 -20 -20 -20 -20 -20 -20 -19 3 4 -18 -20 -20 -20 -20 -20 -20 -20 -20 -20
-20 -20 -20 -20 -20 -20 -20 -20 -20 -20 -20 -20 -20 -20 -20 -20 -20 -20 -20 -20 -20 -20 -20 -20 -20 -20 -20 -18 -20 -20 -20 -20 -20 -20 -20 -20 -20 -20
-20 -20 -20 -20 -20 -20 -20 -20 -20 -20 -20 -20 -20 -20 -20 -20 -20 -20 -20 -20 -20 -20 -20 -20 -20 -20 -20 -20 -20 -20 -20 -20 -20 -20 -20 -20 -20 -20

GFSNE_prec_radar_072.txt.gz
Reflectivity
-19 -20 -13 -9 -7 -17 -20 -9 -20 -17 -20 -18 -20 -20 -20 -20 2 -20 -20 4 -3 10 -20 9 -7 0 4 19 29 37 30 19 22 11 26 23 23 15
-20 -20 -20 -20 -20 -20 -20 -20 -20 -11 3 -20 -20 -20 -20 -20 -20 -20 -20 -1 6 7 13 3 -16 -20 18 24 12 28 25 17 17 19 25 23 24 23
-20 -20 -20 -20 -20 -20 -20 -20 -20 -20 -20 -20 -20 -20 -20 -20 -20 -20 -20 -20 -20 -1 1 1 11 2 -16 7 17 17 17 18 17 4 14 10 13 15
-20 -20 -20 -20 -20 -20 -20 -20 -20 -20 -20 -20 -20 -20 -20 -20 -20 -20 -20 -20 -20 -19 -19 -10 -9 -19 -20 -16 10 15 17 12 -11 -20 -20 -7 -0 -16
-20 -20 -20 -20 -20 -20 -20 -20 -20 -20 -20 -20 -20 -20 -20 -20 -20 -20 -20 -20 -20 -20 -17 -13 4 -6 -1 -7 -20 -20 -20 -20 -20 -20 -20 -20 -20 -20
-20 -20 -20 -20 -20 -20 -20 -20 -20 -20 -20 -20 -20 -20 -20 -20 -20 -20 -20 -20 -20 -20 -20 -20 -20 -20 -20 -20 -20 -20 -20 -20 -18 -14 -20 -20 -20 -20
-20 -20 -20 -20 -20 -20 -20 -20 -20 -20 -20 -20 -20 -20 -20 -20 -20 -20 -20 -20 -20 -20 -20 -20 -20 -20 -20 -20 -20 -20 -20 -20 -11 -12 -20 -20 -20 -20
-20 -20 -20 -20 -20 -20 -20 -20 -20 -20 -20 -20 -20 -20 -20 -20 -20 -20 -20 -20 -20 -20 -20 -20 -20 -20 -20 -20 -20 -20 -20 -20 -20 -20 -20 -20 -20 -20
-20 -20 -20 -20 -20 -20 -20 -20 -20 -20 -20 -20 -20 -20 -20 -20 -20 -20 -20 -20 -20 -20 -20 -20 -20 -20 -20 -20 -20 -20 -20 -20 -20 -20 -20 -20 -20 -20
-20 -20 -20 -20 -20 -20 -20 -20 -20 -20 -20 -20 -20 -20 -20 -20 -20 -20 -20 -20 -20 -20 -20 -20 -20 -20 -20 -20 -20 -20 -20 -20 -20 -20 -12 -5 -1 12
-20 -20 -20 -20 -20 -20 -20 -20 -20 -20 -20 -20 -20 -20 -20 -20 -20 -20 -20 -20 -20 -20 -20 -20 -20 -20 -20 -20 -20 -20 -20 -20 -20 -20 -20 -9 10 8
-20 -20 -20 -20 -20 -20 -20 -20 -20 -20 -20 -20 -20 -20 -20 -20 -20 -20 -20 -20 -20 -20 -20 -4 -19 -20 -20 -20 -20 -20 -20 -20 -20 -20 -20 -17 9 -17
-20 -20 -20 -20 -20 -20 -20 -20 -20 -20 -20 -20 -20 -20 -20 -20 -20 -20 -20 -20 -4 -10 -17 -11 -16 -20 -12 -15 -20 -20 -20 -20 -20 -20 -20 -20 -20 -20
-20 -20 -20 -20 -20 -20 -20 -20 -20 -20 -20 -20 -20 -20 -20 -20 -20 -20 -20 -20 -20 -8 -17 5 2 1 -9 -18 -18 -20 -20 -20 -20 -20 -20 -20 -20 -20
-20 -20 -20 -20 -20 -20 -20 -20 -20 -20 -20 -20 -20 -20 -20 -20 -20 -20 -19 -5 -18 -10 1 -3 -0 -0 -1 0 -20 -20 -6 -20 -20 -8 -20 -20 -20 -20
-20 -20 -20 -20 -20 -20 -20 -20 -20 -20 -20 -20 -20 -20 -20 -20 -20 -20 -15 -20 -15 -11 -3 -20 -20 -20 -5 -10 -6 -20 -20 -8 -19 -20 -20 -20 -20 -20
-20 -20 -20 -20 -20 -20 -20 -20 -20 -20 -20 -20 -20 -20 -20 -20 -20 -20 -20 -20 -14 -8 -4 -20 -14 -10 -20 -4 1 -20 -20 -20 -20 -1 -20 -8 -20 -20
-20 -20 -20 -20 -20 -20 -20 -20 -20 -20 -20 -20 -20 -20 -20 -20 -20 -20 -13 -9 -15 -20 -20 -4 -5 -20 -20 -20 -20 -20 -20 -20 -20 -10 -16 -12 -20 -20
-20 -20 -20 -20 -20 -20 -20 -20 -20 -20 -20 -20 -20 -20 -20 -20 -20 -20 -20 -20 -20 -20 -20 -20 -4 -2 -4 -20 -20 -20 -20 -20 -20 -4 -19 1 -4 -20
-20 -20 -20 -20 -20 -20 -20 -20 -20 -20 -20 -20 -20 -20 -20 -20 -20 -20 -20 -20 -20 -20 -20 -20 -14 -12 -6 -19 -2 -20 -20 -18 -18 -16 -5 -13 -18 -20
-20 -20 -20 -20 -20 -20 -20 -20 -20 -20 -20 -20 -20 -20 -20 -20 -20 -20 -20 -20 -20 -20 -12 -20 -14 -3 -7 5 -13 -20 -20 -20 -20 -13 -11 2 -20 -20
-20 -20 -20 -20 -20 -20 -20 -20 -20 -20 -20 -20 -20 -20 -20 -20 -20 -20 -20 -20 -20 -20 -7 -19 -16 -15 -18 -20 -20 -20 -20 -20 -20 -20 -20 -19 -20 -20
6 -12 -20 -20 -20 -20 -20 -20 -20 -20 -20 -20 -20 -20 -20 -20 -20 -20 -20 -20 -20 -20 -20 -20 -9 -4 -20 -7 -19 -20 -20 -20 -20 -20 -20 -20 -20 -20

GFSNE_prec_radar_075.txt.gz
Reflectivity
-20 -20 -13 -2 -16 14 -7 -18 -3 7 -4 -20 -20 -20 -20 -20 -20 -20 -20 1 13 13 9 -2 3 -20 -20 -16 14 -0 -20 21 33 20 11 9 -20 -12
-20 -20 -19 -12 -20 -20 -20 -20 -20 -20 -14 -20 -20 -20 -20 -20 -20 -20 -20 -20 8 10 2 11 8 12 8 2 12 27 22 6 31 33 18 23 23 15
-20 -20 -20 -20 -20 -20 -20 -20 -20 -20 -14 -20 -20 -20 -20 -20 -20 -20 -20 -20 -18 10 14 4 9 10 -12 -20 5 10 20 23 29 30 28 25 14 4
-20 -20 -20 -20 -20 -20 -20 -20 -20 -20 -20 -20 -20 -20 -20 -20 -20 -20 -20 -20 -20 -20 -15 4 8 12 4 -20 -20 -20 -20 10 17 22 26 21 -9 4
-20 -20 -20 -20 -20 -20 -20 -20 -20 -20 -20 -20 -20 -20 -20 -20 -20 -20 -20 -20 -20 -20 -20 -20 -20 -20 -20 -20 -14 -18 -20 -20 -20 9 14 -12 -20 -20
-20 -20 -20 -20 -20 -20 -20 -20 -20 -20 -20 -20 -18 -20 -20 -20 -20 -20 -20 -20 -20 -20 -20 -20 -20 -20 -20 -20 -20 -15 7 4 -16 -20 -13 -14 -20 -20
-20 -20 -20 -20 -20 -20 -20 -20 -20 -20 -20 -20 -20 -20 -20 -20 -20 -20 -20 -20 -20 -20 -20 -20 -20 -20 -20 -20 -20 -20 -20 -20 -20 -5 1 -19 -18 -20
-20 -20 -20 -20 -20 -20 -20 -20 -20 -20 -20 -20 -20 -20 -20 -20 -20 -20 -20 -20 -20 -20 -20 -20 -20 -20 -20 -20 -20 -20 -20 -20 -20 -20 -20 -20 -20 -20
-20 -20 -20 -20 -20 -20 -20 -20 -20 -20 -20 -20 -20 -20 -20 -20 -20 -20 -20 -20 -20 -20 -20 -20 -20 -20 -20 -20 -20 -20 -20 -20 -20 -20 -20 -20 -20 -20
-20 -20 -20 -20 -20 -20 -20 -20 -20 -20 -20 -20 -20 -20 -20 -20 -20 -20 -20 -20 -20 -20 -20 -20 -20 -20 -20 -20 -20 -20 -20 -20 -20 -20 -20 -20 -20 -20
-20 -20 -20 -20 -20 -20 -20 -20 -20 -20 -20 -20 -20 -20 -20 -20 -20 -20 -20 -20 -20 -20 -20 -20 -20 -20 -20 -20 -20 -20 -20 -20 -20 -20 -20 -14 5 13
-20 -20 -20 -20 -20 -20 -20 -20 -20 -20 -20 -20 -20 -20 -20 -20 -20 -20 -20 -20 -20 -20 -20 -20 -20 -20 -20 -20 -20 -20 -20 -20 -20 -20 -20 -20 -20 -20
-20 -20 -20 -20 -20 -20 -20 -20 -20 -20 -20 -20 -20 -20 -20 -20 -20 -20 -20 -20 -20 -20 -20 -15 -8 -20 -20 -20 -20 -20 -20 -20 -20 -20 -20 -20 -20 -18
-20 -20 -20 -20 -20 -20 -20 -20 -20 -20 -20 -20 -20 -20 -20 -20 -20 -20 -20 -20 -20 -16 -20 -12 1 2 -19 -12 -20 -20 -20 -20 -20 -20 -20 -11 -20 -20
-20 -20 -20 -20 -20 -20 -20 -20 -20 -20 -20 -20 -20 -20 -20 -20 -20 -20 -17 -19 -19 -20 -20 -17 -1 -13 -15 -10 -20 -20 -20 -20 -20 -20 -20 -20 -20 -20
-20 -20 -20 -20 -20 -20 -20 -20 -20 -20 -20 -20 -20 -20 -20 -20 -20 -20 -20 -20 -10 -20 -5 -20 -20 -20 -18 -20 -20 -20 -20 -20 -20 -10 -20 -20 -20 -20
-20 -20 -20 -20 -20 -20 -20 -20 -20 -20 -20 -20 -20 -20 -20 -20 -20 -20 -20 -20 -20 -20 -20 -1 -20 -20 -20 -14 -20 -20 -20 -20 -20 -20 -1 -20 -20 -20
-20 -20 -20 -20 -20 -20 -20 -20 -20 -20 -20 -20 -20 -20 -20 -20 -20 -20 -20 -20 -20 -20 -20 -20 -18 -20 -20 -20 -20 -20 -20 -20 -20 -14 -20 -20 -20 -20
-20 -20 -20 -20 -20 -20 -20 -20 -20 -20 -20 -20 -20 -20 -20 -20 -20 -20 -20 -20 -20 -20 -20 -20 -20 -13 -20 -20 -20 -20 -20 -20 -20 -20 -20 -20 -20 -20
-11 -7 -17 -20 -20 -20 -20 -20 -20 -20 -20 -20 -20 -20 -20 -20 -20 -20 -20 -20 -20 -20 -20 -20 -16 -20 -20 -20 -20 -20 -20 -20 -20 -20 -20 -20 -20 -20
-20 -20 -20 -20 -20 -20 -20 -20 -20 -20 -20 -20 -20 -20 -20 -20 -20 -20 -20 -20 -20 -20 -20 -20 -20 -6 6 -4 -12 -20 -20 -20 -20 -20 -20 -20 -20 -20
-20 -20 -20 -20 -20 -20 -20 -20 -20 -20 -20 -20 -20 -20 -20 -20 -20 -20 -20 -20 -20 -20 -20 -20 -19 -20 -20 -20 -20 -20 -20 -20 -20 -20 -20 -20 -20 -20
-20 -20 -20 -19 -17 -20 -20 -20 -20 -20 -20 -20 -20 -20 -20 -20 -20 -20 -20 -20 -20 -20 -20 -20 -13 -9 -5 -20 -19 -20 -20 -20 -20 -20 -20 -20 -20 -20

GFSNE_prec_radar_078.txt.gz
Reflectivity
-6 -18 -20 -20 -20 -20 19 11 -10 -14 -20 -20 -20 -20 -20 -20 -18 -19 -20 2 10 13 18 15 7 14 7 12 -6 -16 5 -20 27 32 29 27 20 26
-20 -20 -20 -20 -20 -0 -20 -10 -20 -20 -20 -20 -20 -20 -20 -20 -7 -20 -20 -9 11 15 16 6 -19 4 9 -4 7 6 8 12 12 27 34 27 27 7
-20 -20 -20 -20 -20 -20 -20 -20 -20 -20 -20 -20 -20 -20 -20 -20 -20 -20 -14 -20 -20 -9 6 -14 -2 -20 -16 -20 -19 -14 9 15 18 18 21 26 31 29
-20 -20 -20 -20 -20 -20 -20 -20 -20 -20 -20 -1 -20 -16 -20 -20 -20 -20 -20 -20 -20 -20 -20 -20 -16 -1 -12 7 -20 -20 -7 -1 13 15 15 2 -8 7
-20 -20 -20 -20 -20 -20 -20 -20 -20 -20 -20 -20 -20 -20 -20 -20 -20 -20 -20 -20 -20 -20 -20 -20 -20 -20 -20 -20 -20 -20 -20 -20 -20 -14 -4 12 14 14
-20 -20 -20 -20 -20 -20 -20 -20 -20 -20 -20 -20 -20 2 -20 -20 -20 -20 -20 -20 -20 -20 -20 -20 -20 -20 -20 -20 -20 -20 -20 -20 -20 -6 1 -10 -12 -10
-20 -20 -20 -20 -20 -20 -20 -20 -20 -20 -20 -20 -20 -20 -20 -20 -20 -20 -20 -20 -20 -20 -20 -20 -20 -20 -20 -20 -20 -20 -20 -20 -20 -20 2 -15 -18 -20
-20 -20 -20 -20 -20 -20 -20 -20 -20 -20 -20 -20 -20 -20 -20 -20 -20 -20 -20 -20 -20 -20 -20 -20 -20 -20 -20 -20 -20 -20 -20 -20 -20 -20 -20 -20 -9 3
-20 -20 -20 -20 -20 -20 -20 -20 -20 -20 -20 -20 -20 -20 -20 -20 -20 -20 -20 -20 -20 -20 -20 -20 -20 -20 -20 -20 -20 -20 -20 -20 -20 -20 -20 -20 -20 -20
-20 -20 -20 -20 -20 -20 -20 -20 -20 -20 -20 -20 -20 -20 -20 -20 -20 -20 -20 -20 -20 -20 -20 -20 -20 -20 -20 -20 -20 -20 -20 -20 -20 -20 -20 -20 -20 -20
-20 -20 -20 -20 -20 -20 -20 -20 -20 -20 -20 -20 -20 -20 -20 -20 -20 -20 -20 -20 -20 -20 -20 -20 -20 -20 -20 -20 -20 -20 -20 -20 -20 -20 -20 -20 -20 -4
-20 -20 -20 -20 -20 -20 -20 -20 -20 -20 -20 -20 -20 -20 -20 -20 -20 -20 -20 -20 -20 -20 -20 -20 -20 -20 -20 -20 -20 -20 -20 -20 -20 -20 -20 -20 -20 -20
-20 -20 -20 -20 -20 -20 -20 -20 -20 -20 -20 -20 -20 -20 -20 -20 -20 -20 -20 -20 -20 -20 -20 -20 -20 -20 -20 -20 -20 -20 -20 -20 -20 -20 -20 -20 -20 -20
-20 -20 -20 -20 -20 -20 -20 -20 -20 -20 -20 -20 -20 -20 -20 -20 -20 -20 -20 -20 -20 -20 -20 -20 -20 -20 -20 -20 -20 -20 -20 -20 -20 -20 -20 -14 -16 -20
-20 -20 -20 -20 -20 -20 -20 -20 -20 -20 -20 -20 -20 -20 -20 -20 -20 -20 -20 -20 -20 -20 -20 -20 -20 -20 -20 -19 -20 -20 -19 -20 -20 -20 -20 -20 -20 -20
-20 -20 -20 -20 -20 -20 -20 -20 -20 -20 -20 -20 -20 -20 -20 -20 -20 -20 -20 -20 -20 -20 -20 -20 -20 -20 -20 -20 -20 -20 -20 -20 -20 -20 -20 -20 -20 -20
-20 -20 -20 -20 -20 -20 -20 -20 -20 -20 -20 -20 -20 -20 -20 -20 -20 -20 -20 -20 -20 -20 -20 -20 -20 -20 -20 -20 -20 -20 -20 -20 -20 -20 -20 -20 -20 -20
-20 -20 -20 -20 -20 -20 -20 -20 -20 -17 -20 -20 -20 -20 -20 -20 -20 -20 -20 -20 -20 -20 -20 -20 -20 -20 -20 -20 -20 -20 -20 -20 -20 -20 -20 -20 -20 -20
-8 5 -3 -2 -9 -6 -0 5 -4 -20 -20 -20 -20 -20 -20 -20 -20 -20 -20 -20 -20 -20 -20 -20 -20 -20 -20 -20 -20 -20 -20 -20 -20 -20 -20 -20 -20 -20
-20 -20 -20 -20 -20 -20 -20 -20 -20 -20 -20 -20 -20 -20 -20 -20 -20 -20 -20 -20 -20 -20 -20 -20 -20 -20 -20 -20 -20 -20 -20 -20 -20 -20 -20 -20 -20 -20
-20 -20 -20 -20 -20 -20 -20 -20 -20 -20 -20 -20 -20 -20 -20 -20 -20 -20 -20 -20 -20 -20 -20 -20 -20 -11 1 -0 -15 -20 -20 -20 -20 -20 -20 -20 -20 -20
-10 -20 -20 -20 -20 -20 -20 -5 -20 -20 -20 -20 -20 -20 -20 -20 -20 -20 -20 -20 -20 -20 -20 -20 -20 -20 -20 -20 -20 -20 -20 -20 -20 -20 -20 -20 -13 -20
3 -1 -3 5 -3 1 -16 -20 -20 -20 -16 -20 -20 -20 -20 -20 -20 -20 -20 -20 -20 -20 -20 -20 -20 -20 -20 -19 -12 -20 -20 -20 -20 -20 -20 -20 -20 -20

GFSNE_prec_radar_081.txt.gz
Reflectivity
-20 -20 -20 -20 -20 -20 -20 -20 -20 -20 -19 -20 -20 -20 -20 -20 -20 -20 -20 -20 -15 13 10 -3 13 12 14 13 7 -17 -16 -4 -14 12 24 8 24 25
-20 -20 -20 -9 -20 -20 -20 -20 -9 -16 7 -20 -20 -20 -20 -20 -20 -20 -20 -20 -16 10 8 9 12 16 4 9 3 7 12 5 10 21 21 25 27 31
-20 -20 -20 -20 -20 -20 -20 -20 -20 -20 -20 -20 -20 -20 -20 -20 -20 -20 -20 -20 -20 -20 8 11 10 -12 -19 4 -5 -3 5 7 7 12 29 32 28 11
-20 -20 -20 -20 -20 -20 -20 -20 -13 -20 -18 -20 -20 -19 -20 -20 -20 -20 -20 -20 -20 -20 -20 -20 -20 -17 -19 -20 -20 -20 -8 -17 16 8 6 10 9 19
-20 -20 -20 -20 -20 -20 -20 -20 -20 -20 -20 -20 -20 -20 -20 -20 -20 -20 -20 -20 -20 -20 -20 -20 -20 -20 -20 -20 -20 -20 -20 -20 -20 7 2 14 14 20
-20 -20 -20 -20 -20 -20 -20 -20 -20 -20 -20 -20 -20 -20 -20 -20 -20 -20 -20 -20 -20 -20 -20 -20 -20 -20 -20 -20 -20 -20 -20 -20 -20 -20 -20 -7 2 7
-20 -20 -20 -20 -15 -11 -20 -20 -20 -20 -20 -20 -20 -20 -20 -20 -20 -20 -20 -20 -20 -20 -20 -20 -20 -20 -20 -20 -20 -20 -20 -20 -20 -20 -20 -18 -16 -8
-20 -20 -20 -20 -20 -20 -20 -20 -20 -20 -20 -20 -20 -20 -20 -20 -20 -20 -20 -20 -20 -20 -20 -20 -20 -20 -20 -20 -20 -20 -20 -20 -20 -20 -20 -20 -20 -20
-20 -20 -20 -20 -20 -19 -20 -20 -20 -20 -20 -20 -20 -20 -20 -20 -20 -20 -20 -20 -20 -20 -20 -20 -20 -20 -20 -20 -20 -20 -20 -20 -20 -20 -20 -20 -20 -20
-20 -20 -20 -11 -14 -20 -20 -20 -20 -20 -20 -20 -20 -20 -20 -20 -20 -20 -20 -20 -20 -20 -20 -20 -20 -20 -20 -20 -20 -20 -20 -20 -20 -20 -20 -20 -20 -20
-20 -19 -20 -20 -20 -12 -16 -20 -20 -20 -20 -20 -20 -20 -20 -20 -20 -20 -20 -20 -20 -20 -20 -20 -20 -20 -20 -20 -20 -20 -20 -20 -20 -20 -20 -20 -20 -20
-20 -20 -20 -20 -20 -20 -19 -20 -20 -20 -20 -20 -20 -20 -20 -20 -20 -20 -20 -20 -20 -20 -20 -20 -20 -20 -20 -20 -20 -20 -20 -20 -20 -20 -20 -20 -20 -20
-20 -18 -17 -20 -20 -20 -20 -20 -20 -20 -20 -20 -20 -20 -20 -20 -20 -20 -20 -20 -20 -20 -20 -20 -20 -20 -20 -20 -20 -20 -20 -20 -20 -20 -20 -20 -20 -20
-20 -20 -20 -20 -20 -20 -20 -20 -20 -20 -20 -20 -20 -20 -20 -20 -20 -20 -20 -20 -20 -20 -20 -20 -20 -20 -20 -20 -20 -20 -20 -20 -20 -20 -20 -20 -20 -20
-20 -20 -20 -20 -20 -20 -20 -20 -20 -20 -20 -20 -20 -20 -20 -20 -20 -20 -20 -20 -20 -20 -20 -20 -20 -20 -20 -20 -20 -20 -20 -20 -20 -20 -20 -20 -20 -20
-20 -20 -20 -20 -20 -20 -20 -20 -20 -20 -20 -20 -20 -11 -12 -20 -20 -20 -20 -20 -20 -20 -20 -20 -20 -20 -20 -20 -20 -20 -20 -20 -20 -20 -20 -20 -20 -20
-20 -20 -20 -20 -20 -20 -20 -20 -20 -20 -20 -20 -20 -18 -16 -20 -20 -20 -20 -20 -20 -20 -20 -20 -20 -20 -20 -20 -20 -20 -20 -20 -20 -20 -20 -20 -20 -20
-20 -20 -20 -20 -17 -12 -7 3 4 -8 -5 1 3 -14 -20 -20 -20 -20 -20 -20 -20 -20 -20 -20 -20 -20 -20 -20 -20 -20 -20 -20 -20 -20 -20 -20 -20 -20
-20 -12 -12 -20 -20 -20 -16 -19 -20 -17 -20 -20 -20 -20 -20 -20 -20 -20 -20 -20 -20 -20 -20 -20 -20 -20 -20 -20 -20 -20 -20 -20 -20 -20 -20 -20 -20 -20
-20 -20 -20 -20 -20 -20 -20 -20 -20 -20 -20 -20 -20 -20 -20 -20 -20 -20 -20 -20 -20 -20 -20 -20 -20 -20 -20 -20 -20 -20 -20 -20 -20 -20 -20 -20 -20 -20
-8 -1 -20 -20 -20 -20 -20 -20 -17 -3 3 -19 -20 -20 -20 -20 -20 -20 -20 -20 -20 -20 -20 -20 -20 -20 -20 -16 -19 -20 -20 -20 -20 -20 -20 -20 -20 -20
5 9 8 2 -4 -20 -20 -20 -19 -3 -3 -16 -13 -20 -19 -20 -20 -20 -20 -20 -20 -20 -20 -20 -20 -20 -20 -20 -20 -20 -20 -20 -20 -20 -20 -20 -20 -20
-17 -14 -1 2 4 -3 -16 -18 -18 -20 -6 2 -20 -6 -17 -20 -20 -20 -20 -20 -20 -20 -20 -20 -20 -20 -20 -20 -15 -20 -20 -20 -20 -20 -20 -20 -20 -20

GFSNE_prec_radar_084.txt.gz
Reflectivity
-20 -20 -20 -20 6 -17 -11 -20 -8 -6 -7 -14 -9 -20 -20 -20 -20 -20 -20 -1 2 -12 -1 0 12 13 12 1 -11 2 13 12 2 -19 -20 22 -1 -12
-20 -20 -20 -20 -18 3 7 -17 -20 -20 -13 -20 15 9 -20 -20 -2 -20 -20 -20 -20 1 12 15 1 12 8 12 14 4 11 14 4 -20 -20 9 23 29
-20 -20 -20 -20 -19 -19 -20 -20 -20 -20 -3 -20 -20 -20 -18 -8 -20 -20 -20 -20 -20 -17 11 9 -11 12 8 8 -20 -16 12 15 6 -5 -12 28 23 17
-20 -20 -20 -20 -20 -20 -20 -20 -20 -20 -20 -20 -20 7 -20 0 -20 -20 -20 -20 -20 -20 -20 -20 -20 4 -20 -20 -20 -20 -20 7 3 15 14 19 25 22
-20 -20 -20 -20 -20 -20 -20 -20 -20 -16 -15 -4 -20 -20 1 -2 -20 -20 -20 -20 -20 -20 -20 -20 -20 -20 -20 -20 -20 -20 -20 -20 -10 -15 19 8 11 25
-20 -20 -20 -20 -20 -20 -20 -20 -20 -20 -20 -20 -20 -20 -20 -20 -20 -20 -20 -20 -20 -20 -20 -20 -20 -20 -20 -20 -20 -20 -20 -20 -20 -20 -6 -11 -20 -20
-20 -20 -20 -20 -12 -1 -20 -20 -20 -20 -20 -20 -20 -20 -20 -20 -20 -20 -20 -20 -20 -20 -20 -20 -20 -20 -20 -20 -20 -20 -20 -20 -20 -20 -20 -20 -20 -20
-20 -20 -20 -9 -20 -19 4 -20 -20 -20 -20 -20 -20 -20 -20 -20 -20 -20 -20 -20 -20 -20 -20 -20 -20 -20 -20 -20 -20 -20 -20 -20 -20 -20 -20 -20 -20 -20
-20 -20 -20 -20 -20 -20 -20 -20 -4 -20 -12 -9 -17 -18 -20 -20 -20 -20 -20 -20 -20 -20 -20 -20 -20 -20 -20 -20 -20 -20 -20 -20 -20 -20 -20 -20 -20 -20
-20 -20 -20 -20 -20 -20 -18 -5 1 -20 -13 -12 -4 -20 -20 -20 -20 -20 -20 -20 -20 -20 -20 -20 -20 -20 -20 -20 -20 -20 -20 -20 -20 -20 -20 -20 -20 -20
-20 -20 -20 -20 -17 9 12 -0 -1 -16 -11 -12 -20 -15 -20 -20 -20 -20 -20 -20 -20 -20 -20 -20 -20 -20 -20 -20 -20 -20 -20 -20 -20 -20 -20 -20 -20 -20
-20 -20 -20 -9 4 5 -7 -20 -7 -2 -20 -20 -20 -20 -20 -20 -20 -20 -20 -20 -20 -20 -20 -20 -20 -20 -20 -20 -20 -20 -20 -20 -20 -20 -20 -20 -20 -20
-20 -20 -18 1 -20 -20 -12 -17 -20 -20 -20 -20 -20 -20 -20 -20 -20 -20 -20 -20 -20 -20 -20 -20 -20 -20 -20 -20 -20 -20 -20 -20 -20 -20 -20 -20 -20 -20
-11 -6 -11 -20 -8 -20 -17 -20 -20 -20 -20 -20 -20 -20 -20 -20 -20 -20 -20 -20 -20 -20 -20 -20 -20 -20 -20 -20 -20 -20 -20 -20 -20 -20 -20 -20 -20 -20
-20 -20 -20 -20 -20 -20 -20 -20 -20 -20 -20 -20 -20 -20 -20 -20 -20 -20 -17 1 -20 -20 -20 -20 -20 -20 -20 -20 -20 -20 -20 -20 -20 -20 -20 -20 -20 -20
-20 -20 -20 -20 -20 -20 -20 -20 -20 -20 -20 -20 -20 -20 -20 -20 -19 4 -11 -16 -20 -20 -20 -20 -20 -20 -20 -20 -20 -20 -20 -20 -20 -20 -20 -20 -20 -20
-20 -20 -20 -20 -20 -20 -20 -20 -20 -20 -20 -20 -20 -8 -5 -19 -8 7 -6 -20 -20 -20 -20 -20 -20 -20 -20 -20 -20 -20 -20 -20 -20 -20 -20 -20 -20 -20
-20 -20 -20 -20 -20 -20 -20 -20 -20 -20 -20 -20 5 6 -17 -19 -18 -20 -20 -20 -20 -20 -20 -20 -20 -20 -20 -20 -20 -20 -20 -20 -20 -20 -20 -20 -20 -20
-3 -20 -20 -20 -20 -20 -20 -20 -20 -20 -20 -20 -20 -20 -20 -20 -20 -20 -20 -20 -20 -20 -20 -20 -20 -20 -20 -20 -20 -20 -20 -20 -20 -20 -20 -20 -20 -20
-20 -20 -20 -20 -20 -20 -20 -20 -20 -20 -20 -20 -20 -20 -20 -20 -16 -12 -20 -20 -20 -20 -20 -20 -20 -20 -20 -20 -20 -20 -20 -20 -20 -20 -20 -20 -20 -20
-20 -20 -20 -10 -20 -20 -20 -20 -20 -20 -20 -20 -20 -20 -20 -20 3 -4 -20 -20 -20 -20 -20 -20 -20 -20 -20 -20 -20 -20 -20 -20 -20 -20 -20 -20 -20 -20
-20 -20 -20 -15 -4 -11 -12 -20 -20 -20 -20 -8 1 -11 1 -20 -20 -20 -20 -20 -20 -20 -20 -20 -20 -20 -20 -20 -20 -20 -20 -20 -20 -20 -20 -20 -20 -20
-19 -20 -20 -20 -19 -13 -10 -13 -20 -20 -20 -20 -20 -18 -8 -20 -2 -7 -2 -18 -20 -20 -20 -20 -20 -20 -20 -20 -20 -20 -20 -20 -20 -20 -20 -20 -20 -20

GFSNE_prec_radar_087.txt.gz
Reflectivity
-20 -20 -20 -20 -20 -20 -20 -9 8 -7 -9 -20 13 -19 -13 -4 -13 -14 -20 -2 8 5 -20 4 7 4 13 3 12 11 9 15 11 9 3 -20 -20 28
-20 -20 -20 -20 -20 -20 -20 -15 10 13 9 -20 -15 -20 -20 2 14 -13 -20 -20 -20 -10 -20 -16 13 11 -0 8 10 13 3 6 -10 7 -20 -20 -20 1
-20 -20 -20 -20 -20 -20 -20 1 11 -15 -20 -0 11 9 0 -16 -20 -19 -20 -20 -20 -20 -20 4 -1 -20 -20 -19 1 -20 7 13 7 16 4 -12 24 13
-20 -20 -20 -20 -20 -20 -20 -20 -20 -20 -20 -5 -12 -13 -18 -20 -20 -20 -20 -20 -20 -20 -20 -20 -20 -20 -18 -20 -20 -20 -7 11 12 14 18 9 25 12
-20 -20 -20 -20 -20 -20 -20 3 -5 -1 -19 7 -13 -12 -5 -4 -20 -20 -20 -20 -20 -20 -20 -20 -20 -20 -20 -20 -20 -20 -20 -20 -16 2 13 19 20 10
-20 -20 -20 -20 -20 -20 -19 -11 -16 -20 -20 4 8 4 -20 -20 -20 -20 -20 -20 -20 -20 -20 -20 -20 -20 -20 -20 -20 -20 -20 -20 -19 -11 -3 11 9 13
-20 -20 -20 -14 -14 1 -20 -20 -20 -20 -10 -19 -20 -20 -7 -20 -20 -20 -20 -20 -20 -20 -20 -20 -20 -20 -20 -20 -20 -20 -20 -20 -20 -20 -20 -20 7 9
-20 -20 -3 3 -10 -8 -4 -20 -20 -20 -20 -20 -20 -8 -18 -20 -20 -20 -20 -20 -20 -20 -20 -20 -20 -20 -20 -20 -20 -20 -20 -20 -20 -20 -20 -20 -20 -20
-20 -20 -20 -20 -20 -20 -20 -20 -20 -20 -20 -0 -12 -18 -20 -20 -16 -20 -20 -20 -20 -20 -20 -20 -20 -20 -20 -20 -20 -20 -20 -20 -20 -20 -20 -20 -20 -20
-6 -20 -20 -20 -20 -20 -20 -20 -20 -20 -20 -15 -20 -13 -14 -2 -19 -20 -20 -20 -20 -20 -20 -20 -20 -20 -20 -20 -20 -20 -20 -20 -20 -20 -20 -20 -20 -20
-11 -20 -20 -20 -20 -20 -20 -20 -20 -20 -12 -13 -20 -20 -11 -19 -16 -20 -20 -20 -20 -20 -20 -20 -20 -20 -20 -20 -20 -20 -20 -20 -20 -20 -20 -20 -20 -20
-20 -20 -20 -20 -20 -20 -20 -7 3 -1 -7 -13 -19 -20 -14 -15 -20 -20 -20 -20 -20 -20 -20 -20 -20 -20 -20 -20 -20 -20 -20 -20 -20 -20 -20 -20 -20 -20
-20 -20 -20 -20 -20 -20 -11 -20 -20 -20 -20 -20 -20 -16 -9 -20 -20 -20 -20 -20 -20 -20 -20 -20 -20 -20 -20 -20 -20 -20 -20 -20 -20 -20 -20 -20 -20 -20
-20 -20 -20 -20 -20 -20 -20 -20 -20 -20 -20 -20 -20 -20 -14 -20 -20 -20 -20 -20 -20 -20 -20 -20 -20 -20 -20 -20 -20 -20 -20 -20 -20 -20 -20 -20 -20 -20
-20 -20 -20 -20 -20 -20 -20 -20 -20 -20 -20 -20 -20 -20 -20 -20 -20 -20 -20 -20 -20 -1 6 -5 -10 -20 -20 -20 -20 -20 -20 -20 -20 -20 -20 -20 -20 -20
-20 -20 -20 -20 -20 -20 -20 -20 -20 -20 -20 -20 -20 -20 -20 -20 -20 -20 -12 3 -13 -4 1 -11 -20 -20 -20 -20 -20 -20 -20 -20 -20 -20 -20 -20 -20 -20
-20 -20 -20 -20 -20 -20 -20 -20 -20 -20 -20 -20 -20 -20 -20 -20 -20 -20 -20 -20 -20 -20 -20 -20 -20 -20 -20 -20 -20 -20 -20 -20 -20 -20 -20 -20 -20 -20
-20 -18 -20 -20 -20 -20 -20 -20 -20 -20 -20 -20 -20 -20 -20 -20 -20 -20 -20 -20 -20 -20 -20 -20 -20 -20 -20 -20 -20 -20 -20 -20 -20 -20 -20 -20 -20 -20
10 2 -8 -20 -20 -20 -20 -20 -20 -20 -20 -20 -20 -20 -20 -20 -20 -20 -20 -20 -20 -20 -20 -20 -20 -20 -20 -20 -20 -20 -20 -20 -20 -20 -20 -20 -20 -20
-8 -20 -20 -20 -20 -20 -20 -20 -20 -13 -20 -20 -20 -20 -20 -20 -20 -20 -20 -20 -20 -20 -20 -20 -20 -20 -20 -20 -20 -17 -20 -20 -20 -20 -20 -20 -20 -20
-4 -15 -20 -20 -20 -20 -20 -20 -20 -20 -20 -20 -18 -19 -20 -20 -20 -20 -20 -20 -20 -20 -20 -15 -20 -20 -20 -20 -20 -20 -20 -20 -20 -20 -20 -20 -20 -20
-19 -20 -20 -20 -19 -20 -20 -20 -20 -20 -20 -20 -20 -20 -18 -11 -15 -20 -20 -20 -20 -20 -20 -20 -13 -18 -20 -20 -20 -20 -15 -20 -20 -20 -20 -20 -20 -20
-15 -18 -20 -20 -20 -20 -20 -18 -18 -19 -16 -18 -20 -18 -19 -20 -11 -13 -20 -20 -20 -20 -20 -20 -14 -19 -20 -20 -20 -19 -20 -20 -20 -20 -20 -20 -20 -20

GFSNE_prec_radar_090.txt.gz
Reflectivity
-20 -12 -20 -20 -20 -20 -20 -20 5 9 8 -20 -8 -13 -19 -11 9 -12 -20 -19 -20 -16 -20 -20 10 12 12 14 17 16 0 13 -14 -4 -4 2 -20 -20
-20 -20 -20 -20 -20 -20 -20 -20 -20 -4 9 -20 -20 -2 -17 -7 -1 -8 -8 -0 -18 -20 -12 1 -4 0 12 12 8 15 10 8 2 10 -10 -20 -20 -15
-20 -20 -20 -20 -20 -20 -20 -20 -20 -8 -11 -15 -7 -20 -6 -3 7 -5 -11 -20 -20 -20 -19 -5 -6 -20 -6 -15 -7 -17 13 14 -2 12 12 -20 -12 -20
-20 -20 -20 -20 -20 -20 -20 -20 -12 -3 -18 14 -15 -19 4 5 -20 -17 -20 -20 -20 -20 -20 -20 -20 -20 -19 -20 -20 -20 -20 10 10 13 16 16 10 12
-20 -20 -20 -20 -20 -20 -20 -20 -20 -20 -20 7 8 -8 -14 -9 -14 -13 -20 -20 -16 -13 -18 -20 -20 -20 -20 -20 -20 -20 -20 -18 -9 10 22 16 14 19
-20 -20 -20 -20 -20 -20 -20 -20 -12 9 -9 -20 -16 6 13 2 -14 -20 -20 -9 -0 -5 -20 -20 -20 -20 -20 -20 -20 -20 -20 -20 -20 -17 13 16 21 11
-20 -20 -20 -3 6 -15 -20 -20 -20 -15 -17 -20 -20 -18 3 -19 -20 -20 -11 -18 -20 -20 -20 -20 -20 -20 -20 -20 -20 -20 -20 -20 -20 -20 0 3 4 10
-20 -20 -20 -4 -16 -16 -10 1 -1 -20 -20 -20 -20 -20 -20 -20 -20 -7 -6 -20 -20 -20 -20 -20 -20 -20 -20 -20 -20 -20 -20 -20 -20 -20 -20 -20 -20 -0
-20 -20 -20 -20 -20 -20 -20 -20 -11 -4 -20 -20 -20 -20 -18 14 8 -9 -20 -20 -20 -20 -20 -20 -20 -20 -20 -20 -19 -20 -20 -20 -20 -20 -20 -20 -20 -20
-20 -20 -20 -20 -20 -20 -20 -20 -20 -20 -20 -20 -20 -20 -8 -6 -10 -20 -19 -20 -20 -13 -20 -20 -20 -20 -20 -20 -15 -14 -19 -20 -20 -20 -20 -20 -20 -20
-20 -20 -19 -20 -20 -20 -20 -20 -20 -20 -20 -20 -3 -9 -19 -10 1 5 -20 -14 -2 -20 -20 -20 -20 -20 -20 -20 -20 -20 1 -20 -13 -20 -20 -20 -20 -20
-20 -20 -20 -20 -20 -20 -20 -20 -20 -20 -20 -20 -20 -20 -20 -20 -20 -20 -11 -20 -20 -20 -20 -20 -20 -20 -20 -20 -20 -20 -20 -20 -20 -20 -20 -20 -20 -20
-20 -20 -20 -20 -20 -20 -20 -20 -20 -20 -20 -20 -20 -20 -20 -20 -19 -7 -20 -20 -20 -20 -20 -20 -20 -20 -20 -20 -20 -20 -20 -20 -20 -20 -20 -20 -20 -20
-20 -20 -20 -20 -20 -20 -20 -20 -20 -20 -20 -20 -20 -20 -20 -20 -20 -19 -17 -20 -20 -20 -20 -3 -2 -1 -1 -9 -20 -20 -20 -20 -20 -20 -20 -20 -20 -20
-20 -20 -20 -20 -20 -20 -20 -20 -20 -20 -20 -20 -20 -20 -20 -20 -20 -20 -20 -20 -20 -20 -20 -16 -20 -20 -20 -20 -20 -20 -20 -20 -20 -20 -20 -20 -20 -20
-20 -20 -20 -20 -20 -20 -20 -20 -20 -20 -20 -20 -20 -20 -20 -20 -20 -20 -20 -20 -20 -20 -20 -20 -20 -20 -20 -20 -20 -20 -20 -20 -20 -20 -20 -20 -20 -20
-20 -20 -20 -20 -20 -20 -20 -20 -20 -20 -20 -20 -20 -20 -20 -20 -20 -20 -20 -20 -20 -20 -20 -20 -20 -20 -20 -20 -20 -20 -20 -20 -20 -20 -20 -20 -20 -20
-20 2 -11 -20 -20 -20 -20 -20 -20 -20 -20 -20 -20 -20 -20 -20 -20 -20 -20 -20 -20 -20 -20 -20 -20 -20 -20 -20 -20 -20 -20 -20 -20 -20 -20 -20 -20 -20
-7 -3 4 6 -2 -20 -20 -20 -20 -20 -20 -20 -20 -20 -20 -20 -20 -20 -20 -20 -20 -20 -20 -20 -20 -20 -20 -20 -20 -20 -20 -20 -20 -20 -20 -20 -20 -20
8 -7 -20 -20 -14 -20 -20 -20 -20 -20 -20 -20 -20 -20 -18 -17 -19 -20 -20 -20 -20 -20 -20 -20 -20 -20 -20 1 -6 8 5 -18 -20 -20 -20 -20 -20 -20
2 -7 1 5 -8 -20 -20 -20 -20 -20 -20 -20 -20 -20 -20 -20 -20 -14 -20 -20 -20 -20 -20 -20 -8 -20 -20 -20 -20 -4 4 -2 -20 -20 -20 -20 -20 -20
-17 -20 -13 -20 -20 -20 -20 -20 -20 -20 -20 -20 -20 -20 -20 -20 -20 -20 -20 -20 -20 -20 -20 -20 -20 -20 -20 -20 -20 -20 -20 -9 -16 -20 -20 -20 -20 -20
-20 -19 -18 -19 -20 -20 -20 -20 -20 -20 -20 -20 -20 -20 -19 -20 -20 -20 -19 -18 -20 -20 -20 -20 -20 -20 -20 -20 -20 -20 -20 -18 -14 -20 -20 -20 -20 -20

GFSNE_prec_radar_093.txt.gz
Reflectivity
-20 -20 -15 -20 -20 -20 -20 -18 -18 -20 -15 -20 -20 -20 -20 -20 9 -14 -20 22 4 -19 -6 0 4 3 -1 -8 9 15 1 -0 -8 3 7 -20 -20 -20
-20 -20 -20 -20 -20 -20 -20 -20 -1 4 5 -20 -20 -20 -20 -20 13 -4 -15 -13 -1 8 -20 -20 -20 -18 -20 -13 14 12 13 8 3 7 4 -20 -20 -20
-20 -20 -20 -20 -15 -9 -20 -20 -20 -6 -4 -20 -20 -20 -0 -1 -20 -19 9 -2 -12 -7 -20 -20 -20 -20 -15 -9 -12 -2 -20 -20 -12 6 -1 -20 -20 -20
-20 -20 -20 -20 -20 -20 -20 -20 -20 -20 -20 0 -20 -20 -19 -18 -3 15 16 -20 -16 12 -20 -20 -20 -20 -20 -17 -20 -20 -20 -20 11 17 4 3 13 -20
-20 -20 -20 -20 -20 -20 -20 -20 -20 -20 -20 -20 -4 -8 4 -13 -20 -9 -2 -5 -19 -20 -20 -8 -10 -8 -4 -20 -20 -20 -20 -20 5 15 15 7 18 19
-20 -20 -20 -20 -20 -20 -20 -20 -20 -20 -20 -20 -14 -11 8 11 -8 0 4 -14 -20 -20 -14 -5 -19 -18 -20 -20 -20 -20 -20 -20 -20 4 16 16 7 10
-20 -20 -20 -20 -20 -20 -20 -20 -20 -20 -16 -1 6 10 8 5 3 -4 -20 -20 -20 -19 -19 -19 -20 -20 -20 -20 -20 -20 -20 -20 -20 -20 1 10 1 11
-20 -20 -20 -20 -1 6 -7 -0 -13 -20 -17 -10 -17 -12 6 7 -20 -20 -20 -20 -20 -17 -20 -20 -20 -20 -20 -20 -20 -20 -20 -20 -20 -20 -20 -20 -18 7
-20 -20 -20 -20 0 -20 -20 -20 -20 -18 0 -20 -20 -20 -20 -20 -20 -20 -10 10 7 -6 -9 -20 -20 -20 -20 -20 -20 -19 -20 -20 -20 -20 -20 -20 -20 -20
-20 -20 -20 -20 -20 -20 -20 -20 -20 -20 -20 -20 -20 -20 -20 -20 -20 -20 -16 -18 -14 -4 -20 -18 -20 -8 -20 -20 -19 -6 -12 -6 -7 -20 -20 -20 -20 -20
-20 -20 -20 -20 -20 -20 -20 -20 -20 -20 -20 -20 -20 -20 -20 -20 -20 -20 -20 -20 -20 -20 -19 -20 -20 -20 -20 -20 -20 -20 -7 -15 -18 -20 -20 -20 -20 -20
-20 -20 6 -15 -20 -20 -20 -20 -20 -20 -20 -20 -20 -20 -20 -20 -20 -20 -20 -20 -18 -20 -19 -11 -20 -20 -20 -20 -20 -20 -20 -20 -20 -20 -20 -20 -20 -20
-20 -20 -20 -20 -20 -20 -20 -20 -20 -20 -20 -20 -20 -20 -20 -20 -20 -20 -20 -20 -20 -13 -19 -20 -20 -20 -20 -20 -20 -20 -20 -20 -20 -20 -20 -20 -20 -20
-20 -20 -20 -20 -20 -20 -20 -20 -20 -20 -20 -20 -20 -20 -20 -20 -20 -20 -20 -20 -20 -19 -20 -20 -20 -20 -20 -20 -20 -20 -20 -19 -19 -20 -20 -20 -20 -20
-20 -20 -20 -20 -20 -20 -20 -20 -20 -20 -20 -20 -20 -20 -20 -20 -20 -20 -20 -20 -20 -20 -20 -20 -20 -20 -20 -20 -20 -20 -20 -20 -20 -20 -20 -20 -20 -20
-15 -20 -20 -20 -20 -20 -20 -20 -20 -20 -20 -20 -20 -20 -20 -20 -20 -20 -20 -20 -20 -20 -20 -20 -20 -20 -20 -20 -20 -20 -20 -20 -20 -20 -20 -20 -20 -20
-18 -20 -20 -20 -20 -20 -20 -20 -20 -20 -20 -20 -20 -20 -20 -20 -20 -20 -20 -20 -20 -20 -20 -20 -20 -20 -20 -20 -20 -20 -20 -20 -20 -20 -20 -20 -20 -20
-18 -20 -20 -20 -20 -17 -16 -20 -20 -20 -20 -20 -20 -20 -20 -20 -20 -20 -20 -20 -20 -20 -20 -20 -20 -20 -20 -20 -20 -20 -20 -20 -20 -20 -20 -20 -20 -20
-20 -20 -20 -20 -20 -11 15 14 -10 -20 -20 -20 -20 -20 -20 -20 -20 -20 -20 -20 -20 -20 -20 -20 -20 -20 -20 -20 -20 -20 -20 -20 -20 -20 -20 -20 -20 -20
-20 -20 -18 -20 -20 -20 -20 -20 -20 -18 -20 -20 -20 -20 -20 -20 -20 -20 -20 -20 -20 -20 -20 -20 -20 -20 -20 -20 -20 -20 -20 -20 -20 -20 -20 -20 -20 -19
-20 -20 7 -19 -20 -20 -20 -20 -2 -4 -20 -20 -20 -20 -20 -20 -20 -20 -20 -20 -20 -20 -20 -20 -20 -20 -20 -20 -20 -20 -20 -20 -20 -20 -20 -20 -20 -20
-20 -20 -12 6 -20 -20 -20 -20 -20 -20 -20 -20 -20 -20 -20 -20 -20 -20 -20 -20 -20 -20 -20 -20 -20 -20 -20 -20 -20 -20 -20 -20 -20 -20 -20 -20 -15 -20
-12 -1 -14 -20 -14 -3 -20 -20 -20 -20 -20 -20 -20 -20 -20 -20 -20 -20 -20 -20 -20 -20 -20 -20 -20 -20 -20 -20 -20 -20 -20 -20 -20 -20 -20 -20 -20 -20

GFSNE_prec_radar_096.txt.gz
Reflectivity
-20 -8 -11 -20 -20 -20 -8 -5 -3 -20 -20 -16 -20 -9 -19 -20 -20 -20 -20 17 13 6 -5 -4 4 -20 -20 -20 -18 -20 -0 5 14 10 5 12 -9 -16
-20 -20 -20 -20 -20 -20 -5 2 -10 -14 -11 -1 -18 -20 -20 -20 -7 -20 -20 13 -3 -16 -14 -15 -20 -20 -20 -20 -9 5 10 11 15 11 6 -8 -20 -11
-20 -20 -17 -5 -9 -4 3 -5 -5 4 11 -17 -20 -20 -20 -20 -20 -18 -6 -20 7 2 -18 -20 -20 -20 -20 -0 -10 -9 5 13 11 -3 5 -2 2 7
-20 -20 -20 -20 -20 -20 -20 -20 -20 4 6 7 -20 -20 -20 -20 -20 -20 -15 -3 9 15 -19 -16 -20 -20 -20 -8 -4 -9 -19 -20 -9 4 8 13 11 -18
-20 -20 -20 -20 -20 -20 -20 -20 -20 -20 -9 0 -16 -20 -20 -20 -3 -20 -20 -9 -3 11 1 -5 -20 -20 -20 -2 -3 -0 -14 -20 -20 -7 19 15 2 7
-20 -20 -20 -20 -20 -20 -20 -20 -20 -20 -20 -7 -1 -20 -20 -20 -20 -20 -19 -17 -10 -4 -9 -20 -20 -20 -15 1 -7 -14 -20 -20 -20 -2 18 26 7 18
-20 -20 -20 -20 -20 -20 -20 -20 -20 -20 -20 -20 -20 -20 -20 -20 -20 -16 -18 -2 -20 -20 -20 -20 -19 -14 -20 1 -6 -20 -20 -20 -20 -20 13 11 17 19
-20 -20 -20 -20 -20 -20 -20 -20 -20 -20 -20 -20 -20 -20 -20 -20 -20 -13 -17 -20 -20 -20 -10 -1 -1 8 -4 -1 -20 -20 -20 -20 -20 -20 -1 7 16 13
-20 -20 -20 -20 -20 -20 -20 -20 -20 -20 -20 -20 -20 -20 -20 -9 -18 -20 -20 -20 -20 -20 -20 -20 -17 -4 -3 -20 -20 -20 -20 -20 -20 -20 -20 -20 6 8
-20 -20 -20 -20 -20 -15 -20 -20 -20 -20 -20 -20 -20 -20 -20 -20 -20 -20 -20 -20 -20 -20 -20 -20 -20 -20 -7 -19 -20 -20 -20 -20 -20 -20 -20 -20 -20 -20
-20 -20 -20 -20 -7 -15 -20 -20 -20 -20 -20 -20 -20 -20 -20 -20 -20 -20 -20 -20 -20 -20 -20 -20 -20 -20 -20 -20 -20 -20 -20 -20 -20 -20 -20 -20 -20 -20
-20 -20 -20 -20 -2 -20 -20 -20 -20 -20 -20 -20 -20 -20 -20 -20 -20 -20 -20 -20 -20 -20 -20 -20 -20 -20 -20 -20 -20 -20 -20 -20 -20 -20 -20 -20 -20 -20
-20 -20 -20 -20 -20 -20 -20 -20 -20 -20 -20 -20 -20 -20 -20 -20 -20 -20 -20 -20 -20 -20 -20 -17 -11 -20 -20 -20 -20 -20 -20 -20 -20 -20 -20 -20 -20 -20
-20 -20 -20 -20 -20 -20 -20 -20 -20 -20 -20 -20 -20 -20 -20 -20 -20 -20 -20 -20 -20 -14 -20 -20 -20 -20 -20 -20 -20 -20 -20 -20 -20 -20 -20 -20 -20 -20
-20 -20 -20 -20 -20 -20 -20 -20 -20 -20 -20 -20 -20 -20 -20 -20 -20 -20 -20 -20 -20 -20 -20 -20 -20 -20 -20 -20 -20 -20 -20 -20 -20 -20 -20 -20 -20 -20
-20 -20 -20 -20 -20 -20 -20 -20 -20 -20 -20 -20 -20 -20 -20 -20 -20 -20 -20 -20 -20 -20 -20 -20 -20 -20 -20 -20 -20 -20 -20 -20 -20 -20 -20 -20 -20 -20
-20 -20 -20 -20 -20 -20 -20 -20 -20 -20 -20 -20 -20 -20 -20 -20 -20 -20 -20 -20 -20 -20 -20 -20 -20 -20 -20 -20 -20 -20 -20 -20 -20 -20 -20 -20 -20 -20
-20 -20 -20 -20 -20 -20 -20 -20 -20 -20 -12 -12 -8 -20 -20 -20 -20 -20 -20 -20 -20 -20 -20 -20 -20 -20 -20 -20 -20 -20 -20 -20 -20 -20 -20 -20 -20 -20
-8 -20 -20 -20 -20 -20 -20 -20 -20 -20 -2 5 4 -20 -20 -20 -20 -20 -20 -20 -20 -20 -20 -20 -20 -20 -20 -20 -20 -20 -20 -20 -20 -20 -20 -20 -20 -20
-16 -20 -20 -20 -20 -20 -20 -20 -20 -20 -16 -8 -2 -4 -3 -20 -20 -20 -20 -20 -20 -20 -20 -20 -20 -20 -20 -20 -20 -20 -20 -20 -20 -20 -20 -20 -20 -20
-20 -20 -19 -20 -20 -20 -20 -20 -20 -20 -20 -19 -20 -20 -20 -20 -20 -20 -20 -20 -20 -20 -20 -20 -20 -20 -20 -20 -20 -20 -20 -20 -20 -20 -20 -20 -20 -20
-18 -20 -18 -14 -20 -20 -20 -20 -20 -20 -20 -9 -20 -20 -20 -20 -20 -20 -20 -20 -20 -20 -20 -20 -20 -20 -20 -20 -20 -20 -20 -20 -20 -20 -20 -11 -20 -20
-18 -20 -5 -12 3 -3 -20 -20 -20 -13 -20 -20 -20 -20 -20 -20 -20 -20 -20 -20 -20 -20 -20 -20 -20 -20 -20 -20 -20 -20 -20 -20 -20 -20 -20 -20 -20 -20

GFSNE_prec_radar_099.txt.gz
Reflectivity
-1 -6 -19 -20 -15 -20 -12 -16 -18 -20 -20 -20 -20 -20 -20 -20 1 -7 -15 -20 -19 1 5 -20 -12 -20 -20 -20 -20 -0 -20 8 13 11 10 11 10 11
-10 -15 -12 -20 -20 -20 -20 -20 -18 -20 -15 -20 -13 -20 -17 -20 -20 -20 -4 -15 4 -19 -17 -20 -18 -17 -20 -20 -20 -20 10 10 14 9 16 10 0 8
-15 -19 -20 -20 -20 -20 -20 -20 -20 1 4 -7 -20 -20 -12 -20 -20 -20 -13 -20 -18 -10 -13 -7 -1 -20 -20 -20 -20 -20 -20 -17 4 6 7 4 13 4
-20 -20 -20 -20 -20 -20 -20 -20 -20 -17 -19 -14 -20 -20 -20 -20 -20 -20 -20 -20 -20 12 8 1 -20 -20 -20 -20 -20 -20 -20 -17 -4 1 -2 4 8 9
-20 -20 -20 -20 -20 -20 -20 -20 -20 -19 -19 4 -15 -20 -20 -20 -20 -20 -20 -20 -20 11 1 -3 -2 -20 -20 -20 -20 -20 -20 2 -8 2 9 9 12 -1
-20 -20 -20 -20 -20 -20 -20 -20 -20 -20 -20 -20 -17 -20 -20 -20 -20 -20 -20 -20 -20 -20 8 -8 -20 -20 -20 -17 -20 -18 -15 -18 9 4 6 21 20 17
-20 -20 -20 -20 -20 -20 -20 -20 -20 -20 -20 -9 -20 -20 -20 -20 -20 -20 -20 -20 -20 -20 -20 -20 -20 -8 2 -9 -7 -20 -20 -11 -15 -20 -2 23 23 18
-20 -20 -20 -20 -20 -20 -20 -20 -20 -20 -20 -20 -20 -20 -20 -20 -20 -20 -20 -20 -20 -20 -20 -20 -20 -20 -20 -14 1 6 -20 -20 -11 -20 -9 19 3 22
-20 -20 -20 -20 -20 -20 -20 -20 -20 -20 -20 -20 -20 -20 -20 -20 -20 -20 -20 -20 -20 -20 -20 -20 -20 -20 -20 -20 -20 -3 1 -20 -6 -18 -20 2 -2 16
-20 -20 -20 -20 -20 -20 -20 -20 -20 -20 -20 -20 -20 -20 -20 -20 -20 -20 -20 -20 -20 -20 -20 -20 -20 -20 -20 -20 -20 -20 -20 -20 -20 -20 -20 -20 -18 -8
-20 -20 -20 -20 -20 -20 -20 -20 -20 -20 -20 -20 -20 -20 -20 -20 -20 -20 -20 -20 -20 -20 -20 -20 -20 -20 -20 -20 -20 -20 -20 -20 -10 -20 -20 -20 -20 -20
-20 -20 -20 -20 -20 -20 -20 -20 -20 -20 -20 -20 -20 -20 -20 -20 -20 -20 -20 -20 -20 -20 -20 -20 -20 -20 -20 -20 -20 -20 -20 -20 -15 -18 -20 -20 -20 -20
-20 -20 -20 -20 -20 -19 -19 -20 -20 -20 -20 -20 -20 -20 -20 -20 -20 -20 -20 -20 -20 -20 -20 -20 -20 -20 -20 -20 -20 -20 -20 -20 -20 -20 -20 -20 -20 -20
-20 -20 -20 -20 -20 -20 -20 -20 -20 -20 -20 -20 -20 -20 -20 -20 -20 -20 -20 -20 -20 -20 -20 -20 -20 -20 -20 -20 -20 -20 -20 -20 -20 -20 -20 -20 -20 -20
-20 -20 -20 -20 -20 -20 -20 -20 -20 -20 -20 -20 -20 -20 -20 -20 -20 -20 -20 -20 -20 -20 -20 -20 -20 -20 -20 -20 -20 -20 -20 -20 -20 -20 -20 -20 -20 -20
-19 -19 -20 -20 -20 -20 -20 -20 -20 -20 -20 -20 -20 -20 -20 -20 -20 -20 -20 -20 -20 -20 -20 -20 -20 -20 -20 -20 -20 -20 -20 -20 -20 -20 -20 -20 -20 -20
27 -7 -20 -20 -20 -20 -20 -20 -20 -20 -20 -20 -20 -20 -20 -20 -20 -20 -20 -20 -20 -20 -20 -20 -20 -20 -20 -20 -20 -20 -20 -20 -20 -20 -20 -20 -20 -20
-9 -20 -20 -20 -20 -20 -20 -20 -20 -20 -20 -20 -20 -20 -20 -20 -20 -20 -20 -20 -20 -20 -20 -20 -20 -20 -20 -20 -20 -20 -20 -20 -20 -20 -20 -20 -20 -20
-3 -15 -20 -20 -20 -20 -20 -20 -20 -20 -20 -20 -20 -20 -17 -0 -1 -20 -20 -20 -20 -20 -20 -20 -20 -20 -20 -20 -20 -20 -20 -20 -20 -20 -20 -20 -20 -20
-14 -20 -20 -20 -20 -20 -20 -20 -20 -20 -20 -20 -20 -20 -20 -15 -20 -16 -17 -20 -20 -20 -20 -20 -20 -20 -20 -20 -20 -20 -20 -20 -20 -20 -20 -20 -20 -20
-8 -15 -10 1 -6 -20 -20 -20 -20 -20 -20 -20 -20 -20 -20 -20 -20 -20 -20 -20 -20 -20 -20 -20 -20 -20 -20 -20 -20 -20 -20 -20 -20 -20 -20 -20 -20 -20
18 -20 -20 -11 -0 -7 -16 -20 -20 -20 -20 -20 -20 -20 -20 -20 -18 -3 -20 -20 -20 -20 -20 -20 -20 -20 -20 -20 -20 -20 -20 -20 -20 -20 -20 -20 -20 -18
-9 -7 -4 -4 1 2 -3 -9 -20 -20 -20 -20 -20 -20 -20 -20 -13 -20 -20 -20 -20 -20 -20 -20 -20 -20 -20 -20 -20 -20 -20 -20 -20 -20 -20 -20 -20 -20

GFSNE_prec_radar_102.txt.gz
Reflectivity
6 7 1 9 8 -9 -20 -20 -20 -20 -20 -20 -20 -20 -20 -20 -20 -20 -20 14 13 -16 -19 -3 -20 -20 -15 -20 -20 -20 -3 8 18 17 8 9 10 10
-20 -18 -16 -9 -5 -11 -20 -20 -20 -20 -20 -20 -20 -20 -20 -20 -20 -17 -6 -2 -4 -17 -8 -20 -13 -20 -13 -20 -20 -20 -5 10 17 16 8 16 9 9
-20 -20 -20 -20 -20 -20 -20 -20 -20 -20 -20 -20 -20 -20 -16 -2 1 -16 -20 -20 -13 -4 10 -2 6 -18 -16 -20 -20 -20 -20 -18 13 13 11 7 9 6
-20 -20 -16 -15 -20 -20 -20 -20 -20 -20 -20 -20 -20 -20 -20 -20 -20 -20 -20 -20 -20 7 -4 8 -13 -7 -20 -20 -20 -20 -20 -20 9 8 -0 6 -1 11
-20 -11 -8 -20 -20 -20 -20 -20 -20 -20 -20 -20 -20 -20 -20 -20 -20 -20 -20 -20 -20 -7 -4 3 -2 -20 -20 -20 -20 -20 -20 -20 -9 -18 -3 17 12 4
1 -20 -20 -20 -20 -20 -20 -20 -20 -20 -20 -19 -20 -20 -20 -20 -20 -20 -20 -20 -20 -20 0 -2 -7 -20 -20 -20 -20 -20 -20 -20 -20 -18 2 20 14 19
-11 -16 -20 -20 -20 -20 -20 -20 -20 -20 -20 -20 -20 -20 -20 -20 -20 -20 -20 -20 -20 -20 -20 -20 -20 -20 -20 -20 -20 -20 -20 -20 -20 -20 -3 16 22 12
-20 -20 -20 -20 -20 -20 -20 -20 -20 -20 0 -1 -12 -20 -20 -20 -20 -20 -20 -20 -20 -20 -20 -20 -20 -20 -20 -20 -20 -20 -20 -20 2 -1 -11 12 23 13
-20 -20 -20 -20 -20 -20 -20 -20 -20 -20 -20 -20 -14 -17 -20 -20 -20 -20 -20 -20 -20 -20 -20 -20 -20 -20 -20 -20 -20 8 10 -18 -20 -20 -20 -20 -12 5
-20 -20 -20 -20 -20 -20 -20 -20 -20 -20 -20 -20 -20 -20 -20 -20 -20 -20 -20 -20 -20 -20 -20 -20 -20 -20 -20 -20 -20 -9 -7 -20 -18 -20 -20 -20 8 -18
-20 -20 -20 -20 -20 -20 -20 -20 -20 -20 -20 -20 -20 -20 -20 -20 -20 -20 -20 -20 -20 -20 -20 -20 -20 -20 -20 -20 -20 -20 -20 -20 -20 -20 -20 -20 -20 -20
-20 -20 -20 -20 -20 -20 -20 -20 -20 -20 -20 -20 -20 -20 -20 -20 -20 -20 -20 -20 -20 -20 -20 -20 -20 -20 -20 -20 -20 -20 -20 -20 -20 -20 -20 -20 -20 -20
-20 -20 -20 -20 -20 -20 -20 -20 -20 -20 -20 -20 -20 -20 -20 -20 -20 -20 -20 -20 -20 -20 -20 -20 -20 -20 -20 -20 -20 -20 -20 -20 -20 -20 -20 -20 -20 -20
7 21 21 -15 -20 -20 -20 -20 -20 -20 -20 -20 -20 -20 -20 -20 -20 -20 -20 -20 -20 -20 -20 -20 -20 -20 -20 -20 -20 -20 -20 -20 -20 -20 -20 -20 -20 -20
13 29 32 25 -0 -20 -20 -20 -20 -20 -20 -20 -20 -20 -20 -20 -20 -20 -20 -20 -20 -20 -20 -20 -20 -20 -20 -20 -20 -20 -20 -20 -20 -20 -20 -20 -20 -20
25 19 15 12 22 10 -7 -9 -20 -20 -20 -20 -20 -20 -20 -20 -20 -20 -20 -20 -20 -20 -20 -20 -20 -20 -20 -20 -20 -20 -20 -20 -20 -20 -20 -20 -20 -20
31 39 32 25 25 27 10 -20 -20 -20 -20 -20 -20 -20 -20 -20 -20 -20 -20 -20 -20 -20 -20 -20 -20 -20 -20 -20 -20 -20 -20 -20 -20 -20 -20 -20 -20 -20
32 26 22 19 23 12 11 -20 -20 -20 -20 -20 -20 -20 -20 -20 -20 -20 -20 -20 -20 -20 -20 -20 -20 -20 -20 -20 -20 -20 -20 -20 -20 -20 -20 -20 -20 -20
36 35 26 26 23 23 4 -20 -20 -20 -19 -20 -20 -18 -18 -20 -20 -20 -20 -20 -20 -20 -13 -20 -20 -20 -20 -20 -20 -20 -20 -20 -20 -20 -20 -20 -20 -20
31 23 29 27 13 -15 -20 -20 -18 -20 -20 -20 -20 -19 -20 -20 -20 -20 -20 -19 -20 -20 -13 5 -12 -20 -20 -20 -20 -20 -20 -20 -20 -20 -20 -20 -20 -20
22 31 35 31 20 3 -16 -17 -20 -18 -18 -20 -20 -20 -20 -20 -20 -20 -20 -20 -20 -20 -19 -20 -20 -20 -20 -20 -20 -20 -20 -20 -20 -20 -20 -20 -20 -20
32 35 31 32 32 26 24 0 -16 -9 -20 -20 -20 -20 -20 -20 -20 -20 -20 -20 -20 -20 -16 -20 -20 -20 -20 -20 -20 -20 -20 -20 -20 -20 -20 -20 -20 -20
36 36 32 30 28 22 -2 -4 -20 -20 -20 -19 -20 -20 -20 -20 -20 -20 -20 -20 -11 -10 -3 -20 -20 -20 -20 -20 -20 -20 -20 -20 -20 -20 -20 -20 -20 -20

GFSNE_prec_radar_108.txt.gz
Reflectivity
22 15 16 12 -20 -9 4 -7 -20 -20 -20 -20 -20 -20 -20 -20 -20 -20 -20 -20 -20 -20 -17 -2 -9 -15 -17 -20 -20 -20 -20 -20 -20 -11 10 9 12 14
-20 -20 -20 -20 -20 -14 -16 -13 -6 -20 -20 -20 -20 -20 -20 -20 -20 -20 -20 -20 -20 -20 -20 -20 -17 -20 -20 -20 -20 -20 -20 -20 -20 -20 16 16 11 18
-9 -20 -20 -20 -20 -20 -20 -20 -20 -20 -20 -20 -20 -20 -20 -20 -20 -20 -20 -20 -20 -20 -20 -20 -20 -20 -20 -20 -20 -20 -20 -20 -20 -20 15 15 11 14
22 23 11 27 30 -20 17 -4 -20 -20 -20 -20 -20 -20 -20 -20 -20 -20 -20 -20 -20 -20 -20 -20 -20 -20 -20 -20 -20 -20 -20 -20 -20 -20 12 3 2 14
19 21 33 28 21 -14 32 -17 -20 6 -20 -9 -20 -20 -20 -20 -20 -20 -20 -20 -20 -20 -20 8 -20 -20 -20 -20 -20 -20 -20 -20 -19 7 13 -3 6 2
-15 -1 16 20 20 25 31 -18 32 -20 16 -19 -20 -20 -20 -20 -20 -20 -20 -20 -20 -20 -20 -20 -7 -16 -2 -20 -20 -20 -20 -20 -3 -1 12 -16 14 20
2 -5 -19 -2 3 27 33 10 32 26 13 -8 -20 -20 -20 -20 -20 -20 -20 -20 -20 -20 -20 -20 -20 -20 -20 -20 -20 -20 -20 -20 -20 -12 -1 9 9 14
-20 6 -20 16 6 -6 9 4 29 21 28 6 25 -20 -20 -20 -20 -20 -20 -20 -20 -20 -20 -20 -20 -20 -20 -20 -20 -20 -20 -20 -20 -20 -20 11 13 19
-20 -20 -20 -17 15 13 9 14 -13 15 15 26 1 -3 -20 -20 -20 -9 -20 -20 -20 -20 -20 -20 -20 -20 -20 -20 -20 -20 -20 -20 -20 -20 -20 -15 13 17
-20 -20 -20 -20 -5 -4 -11 -9 -8 -15 -0 -19 -20 -20 -20 -20 -20 -20 -20 -20 -20 -20 -20 -20 -20 -20 -20 -20 -20 -20 -20 -20 -20 -20 -20 -20 -1 10
-20 -20 -13 1 8 11 11 15 1 -3 -16 -17 -20 -20 -20 -20 -16 -20 -20 -20 -20 -20 -20 -20 -20 -20 -20 -20 -20 -20 -20 -20 -20 -20 -20 -20 -20 2
-20 -20 15 6 16 12 -1 -5 -20 -19 -14 -20 -20 -20 -20 -20 -20 -20 -20 -20 -20 -20 -20 -20 -20 -20 -20 -20 -20 -20 -20 -20 -20 -20 -20 -20 -20 -20
-20 -20 -8 15 11 10 9 -4 -8 -12 -19 -20 -20 -20 -20 -20 -20 -20 -20 -20 -20 -20 -20 -20 -20 -20 -20 -20 -20 -20 -20 -20 -20 -20 -20 -20 -20 -20
-15 -20 -11 23 21 12 26 12 14 14 -16 -20 -20 -20 -20 -20 -20 -20 -20 -20 -20 -20 -20 -20 -20 -20 -20 -20 -20 -20 -20 -20 -20 -20 -20 -20 -20 -20
10 11 14 -2 32 25 32 20 16 23 20 8 -11 3 -18 -20 -20 -20 -20 -20 -20 -20 -20 -20 -20 -20 -20 -20 -20 -20 -20 -20 -20 -20 -20 -20 -20 -20
19 21 17 9 25 22 21 32 23 24 22 15 23 21 -4 -20 -8 -0 0 -4 -3 -20 -20 -20 -20 -20 -20 -20 -20 -20 -20 -20 -20 -20 -20 -20 -20 -20
13 5 9 12 7 13 24 15 28 26 23 26 29 28 21 7 17 17 15 -15 -20 -20 -20 -20 -20 -20 -20 -20 -20 -20 -20 -20 -20 -20 -20 -20 -20 -20
8 10 1 2 1 -7 3 22 21 21 29 22 26 27 23 18 15 5 -7 -20 -20 -20 -20 -20 -20 -20 -20 -20 -20 -20 -20 -20 -20 -20 -20 -20 -20 -20
6 15 2 -9 -6 -0 4 21 20 8 20 24 26 24 23 26 1 -20 -20 -20 -20 -20 -20 -20 -20 -20 -20 -20 -20 -20 -20 -20 -20 -20 -20 -20 -20 -20
8 25 22 7 -9 -10 23 23 27 20 6 16 19 19 16 23 7 -20 -20 -20 -20 -20 -20 -20 -20 -20 -20 -20 -20 -20 -18 -20 -2 -20 -20 -20 -20 -20
1 17 25 11 9 -3 17 20 22 15 2 10 6 20 20 19 -13 -20 -20 -20 -20 -20 -19 -9 -14 -19 -20 -20 -1 -9 -20 -20 -20 -20 -20 -20 -20 -20
-2 1 16 17 3 -4 10 25 19 13 16 27 17 21 19 13 -20 -20 -20 -20 -19 5 8 -9 -20 -20 -20 2 2 -18 -20 -20 -20 -20 -20 -20 -20 -20
-10 5 19 17 13 9 16 20 9 15 28 23 22 17 12 -10 -2 -20 -20 -20 -19 -19 -20 -20 -20 -20 -6 -5 -20 -20 -20 -20 -20 -20 -20 -20 -20 -20

GFSNE_prec_radar_111.txt.gz
Reflectivity
-10 27 18 13 21 15 -1 31 35 31 27 27 9 -14 -20 -20 -20 -20 -20 -20 -20 -20 -10 -11 -18 -20 -20 -20 -20 -20 -20 -20 -20 -20 -20 -16 6 11
-5 10 13 27 22 -10 20 -19 5 -5 -0 -10 -13 -1 -11 -11 -9 -15 -20 -20 -20 -20 -20 -20 -20 -20 -20 -20 -20 -20 -20 -20 -20 -20 -20 -18 17 14
-7 -19 -10 21 16 4 -20 -20 3 27 20 28 3 -14 -20 -20 -20 -18 -20 -20 -20 -20 -20 -20 -20 -20 -20 -20 -20 -20 -20 -20 -20 -20 -20 12 13 16
20 -13 -1 12 18 21 -16 -14 4 11 22 0 -6 -5 -12 -20 -20 -20 -20 -20 -20 -20 -20 -20 -20 -20 -20 -20 -20 -20 -20 -20 -20 -20 2 15 11 5
12 22 17 15 18 -1 13 45 34 37 31 29 24 -13 -20 -20 -20 -20 -20 -20 -20 -20 -20 -20 -20 -20 -20 -20 -20 -20 -20 -20 -20 -20 -11 15 -3 -1
-16 -12 -1 -10 -2 0 26 3 31 40 14 28 29 23 4 -7 8 -9 -20 -20 -20 -20 -20 -20 -20 -20 -20 -20 -20 -20 -20 -20 -20 -20 -13 3 -8 3
-20 -20 -20 -13 -13 1 10 25 17 13 32 34 39 30 25 33 26 13 -1 6 -16 -20 -20 -20 -20 -20 -20 -20 -20 -20 -20 -20 -20 -20 -20 -4 4 15
-20 -20 -20 -20 -13 13 9 2 26 8 23 2 22 42 24 36 30 15 -20 -20 -20 -20 -16 -20 -20 -20 -20 -20 -20 -20 -20 -20 -20 -20 4 -16 6 10
-20 -20 -20 -20 -19 -20 9 15 -5 21 10 3 9 22 -3 32 33 21 15 -6 -20 -20 -20 -20 -20 -20 -20 -20 -20 -20 -20 -20 -20 -20 -20 5 -20 -20
-20 -20 -20 -20 -20 -20 -16 9 -20 8 -6 25 24 30 15 5 -17 -11 -10 2 -6 -17 -20 -20 -20 -20 -20 -20 -20 -20 -20 -20 -20 -20 -20 -20 -20 -18
-20 -20 -20 -20 3 7 -2 -11 -6 -11 -7 -20 -20 -18 1 -20 -20 -20 -20 -20 -20 -19 -20 -20 -20 -20 -20 -20 -20 -20 -20 -20 -20 -20 -20 -20 -20 -18
-20 -20 9 -4 -8 17 11 2 -6 -17 8 34 12 29 -20 -19 -20 -20 -20 -20 2 -20 -20 -20 -20 -20 -20 -20 -20 -20 -20 -20 -20 -20 -20 -20 -20 -20
-10 -20 -20 10 18 -10 16 13 16 16 29 10 -8 -20 -20 10 -20 -20 -20 -20 -20 -20 -20 -20 -20 -20 -20 -20 -20 -20 -20 -20 -20 -20 -20 -20 -20 -20
3 4 8 14 9 17 9 16 12 17 29 15 5 -14 -7 -10 -20 -20 -20 -20 -20 -20 -20 -20 -20 -20 -20 -20 -20 -20 -20 -20 -20 -20 -20 -20 -20 -20
8 8 8 16 21 14 23 7 26 15 18 25 12 -13 -7 -3 19 -20 -20 -20 -20 -20 -17 -20 -20 -20 -20 -20 -20 -20 -20 -20 -20 -20 -20 -20 -20 -20
-2 0 8 10 23 24 17 29 23 2 20 16 25 18 26 24 17 5 -18 2 -20 -19 -3 -15 -20 -20 -20 -20 -20 -20 -20 -20 -20 -20 -20 -20 -20 -20
8 -11 -7 -11 22 22 25 26 24 15 32 34 20 20 23 20 16 18 19 20 -19 -6 3 -2 -20 -20 -20 -20 -20 -20 -20 -20 -20 -20 -20 -20 -20 -20
4 -0 -3 7 5 11 23 22 25 24 20 19 15 19 22 11 7 17 17 16 18 17 12 1 0 -20 -20 -20 -20 -20 -20 -20 -20 -20 -20 -20 -20 -20
-18 -9 4 17 9 15 21 21 18 20 17 22 21 21 17 16 20 20 24 28 17 -2 -0 6 -19 -20 -20 -20 -20 -20 -20 -20 -20 -20 -20 -20 -20 -20
-10 -1 -4 13 18 26 21 20 22 24 7 6 11 8 15 14 10 8 19 23 19 6 -2 -20 -20 -20 -19 -20 -20 -20 -20 -20 -20 -20 -4 4 -5 -20
-20 -20 0 8 18 19 19 24 23 22 3 10 -10 -20 -20 -5 6 5 18 24 15 -20 -20 -20 -20 -20 -20 -20 -20 -20 -20 -20 -20 -20 -20 -20 -20 -20
-19 -12 -19 5 15 20 19 25 26 22 12 -11 -14 -17 -14 5 7 7 15 17 -10 -20 -20 -20 -20 -20 -20 -12 -20 -20 -20 -20 -20 -20 -20 -20 -20 -20
-20 -20 -7 -11 -10 16 22 24 22 18 22 -3 -10 -16 -4 12 9 15 15 12 -20 -20 -20 -20 -20 -20 -13 -4 -19 -20 -20 -20 -20 -20 -20 -20 -20 -20

GFSNE_prec_radar_114.txt.gz
Reflectivity
27 20 4 -2 -7 9 9 19 29 25 25 -8 24 21 19 24 31 24 15 -20 -20 -20 -20 -18 -15 -4 -12 -20 -20 -20 -20 -20 -20 -20 -20 -20 -20 -8
-1 14 8 18 9 15 24 17 31 23 19 -9 12 9 29 33 26 22 21 -15 -20 -20 -20 -20 -20 -20 -20 -20 -20 -20 -20 -20 -20 -20 -20 -20 2 15
-7 -3 -16 -4 10 11 -4 -1 -3 25 -14 -19 -20 20 17 17 30 27 23 -2 -20 -20 -20 -20 -20 -20 -20 -20 -20 -20 -20 -20 -20 -20 -20 -20 16 18
20 8 18 -15 -3 15 4 10 30 27 38 38 6 26 35 36 25 32 13 -16 -20 -20 -20 -7 -20 -20 -20 -20 -20 -20 -20 -20 -20 -20 -20 -20 6 14
-20 -20 -20 -17 -6 -10 -9 -17 10 22 24 27 11 25 32 24 36 36 14 8 -14 -20 -18 2 -20 -20 -20 -20 -20 -20 -20 -20 -20 -20 -20 -20 6 11
-20 -20 -20 -10 1 -9 1 -20 -20 -19 -17 17 28 28 8 22 34 33 36 36 25 23 18 17 10 -5 -16 -20 -20 -20 -20 -20 -20 -20 -20 1 8 12
-20 -20 -20 -20 -20 -20 -20 -16 -15 -20 -17 -9 0 -3 28 28 16 22 27 34 30 23 20 1 10 8 5 1 -13 -16 -20 -20 -20 -20 -20 -20 3 11
-20 -20 -20 -20 -20 -20 -20 -20 -19 3 6 -9 26 -9 10 -9 24 27 14 20 31 26 2 8 -13 -20 -20 -20 -20 -20 -20 -20 -20 -20 -20 13 9 8
-20 -20 -20 -20 -20 -20 -20 -12 -13 5 -1 -4 5 -15 3 12 8 8 18 8 16 19 12 6 -15 -7 -17 -20 -20 -20 -20 -20 -20 -20 -20 0 -20 -6
-20 -20 -20 -20 -20 -20 -20 -20 1 -17 -0 5 0 23 0 10 35 15 22 4 -13 -20 -8 -7 -15 -15 -19 -20 -20 -20 -20 -20 -20 -20 -20 -20 -20 -20
-20 -20 -20 -20 -20 -19 -20 -20 -19 -11 13 21 17 13 27 7 35 16 30 31 2 -7 -5 -20 -20 -20 -20 -20 -20 -20 -20 -20 -20 -20 -20 -20 -20 -20
-20 -5 8 3 -18 8 11 -10 -19 -20 3 14 23 16 38 2 18 2 -20 -20 -20 -20 3 -20 -20 -20 -20 -20 -20 -20 -20 -20 -20 -20 -20 -20 -20 -20
-17 0 -6 4 -0 4 11 19 10 10 6 4 33 18 21 31 32 29 30 12 -17 -20 -12 -20 -20 -20 -20 -20 -20 -20 -20 -20 -20 -20 -20 -20 -20 -20
-15 -2 6 5 -5 -2 -4 4 28 21 27 -0 18 14 22 30 35 32 38 41 22 -20 4 -11 -20 -20 -20 -20 -20 -20 -20 -20 -20 -20 -20 -20 -20 -20
-15 -20 0 12 0 -7 -14 2 19 29 13 26 20 18 17 21 34 34 34 2 -20 -12 3 -20 -20 -20 -20 -20 -20 -20 -20 -20 -20 -20 -20 -20 -20 -20
7 -8 1 8 13 8 4 6 7 29 23 22 25 21 27 25 13 19 23 24 20 11 -5 3 -20 -20 -20 -20 -20 -20 -20 -20 -20 -20 -20 -20 -20 -20
9 -20 3 2 -9 17 2 0 -6 30 29 16 29 27 13 14 9 2 -0 18 15 9 8 8 11 -19 -17 -13 2 -1 -20 -20 -20 -20 -20 -20 -20 -20
-12 -20 -6 6 8 7 7 11 4 19 22 23 20 16 14 22 15 11 7 14 21 8 14 12 20 -1 -7 -5 -3 -2 -20 -20 -20 -20 -20 -20 -20 -20
-20 -20 -19 1 9 6 -0 12 23 23 28 24 10 -0 11 15 13 13 20 4 4 8 16 15 17 21 1 -17 5 -5 -20 -20 -20 -20 -20 -20 -20 -20
-20 -20 -19 9 -0 -2 6 7 16 18 17 24 8 -13 -1 7 12 10 7 4 12 -12 -3 12 15 11 8 15 12 -17 -20 -20 -20 -20 -20 -20 -20 -20
-20 -13 3 -19 -20 -18 9 4 4 16 21 17 15 8 6 16 9 17 14 19 16 11 13 8 17 10 11 -5 -20 -20 -20 -20 -20 -20 -20 -20 -20 -20
-20 -14 -7 -7 -20 -20 -5 10 2 9 17 12 7 10 13 10 -15 -19 -4 14 16 15 17 15 15 0 -17 -20 -20 -11 -20 -20 -20 -20 -20 -20 -20 -20
-20 -1 -20 -20 -20 -19 -17 8 12 -9 10 17 8 7 3 4 -19 -11 6 11 13 17 14 1 -14 -20 -20 -20 -20 -20 -20 -9 -5 -17 -20 -20 -20 -20

GFSNE_prec_radar_117.txt.gz
Reflectivity
29 18 -4 12 18 27 25 28 18 9 -10 -20 -1 -2 17 23 12 7 23 29 19 17 9 3 11 9 2 6 -20 -20 -20 -20 -20 -20 -20 -20 -20 -20
23 18 23 6 1 26 8 19 20 19 29 -11 -15 -8 19 -19 -5 1 17 26 17 12 -17 -3 4 -4 -7 -20 -20 -20 -20 -20 -20 -20 -20 -20 -20 -17
31 21 -11 15 8 19 21 9 13 28 8 19 15 23 14 7 -12 2 21 20 29 17 21 -5 -20 -20 -20 -20 -20 -20 -20 -20 -20 -20 -20 -20 -20 7
-19 -11 7 12 -0 0 -6 -16 -15 -20 -10 4 -20 -7 9 9 -15 -2 -16 10 4 22 26 15 9 -20 -20 -20 -20 -20 -20 -20 -20 -20 -20 -20 -20 8
-20 -20 -20 -20 -20 -19 -8 -18 8 12 14 1 7 15 -20 2 10 18 26 21 6 20 14 23 26 19 12 -12 -14 -6 -16 -17 -20 -20 -20 -16 -10 7
-20 -20 -20 -20 -20 -19 -1 3 -20 -20 -18 -0 8 -4 0 -7 -6 -10 17 20 27 14 22 26 28 6 8 13 7 7 10 7 -5 -20 -20 -20 3 1
-20 -20 -20 -20 -20 -20 -20 -17 -9 -4 -20 -20 -10 -8 8 0 25 -19 -6 10 17 -12 2 20 31 -1 -5 -5 -18 -7 -20 -20 -20 -20 -20 -20 7 -20
-20 -20 -20 -20 -20 -20 -20 -20 -20 -5 -19 16 2 18 -19 -5 28 3 22 35 10 4 -6 20 25 9 -2 5 -8 -7 -20 -20 -20 -20 -20 -19 10 8
-20 -20 -20 -20 -20 -20 -20 -20 -20 -20 -20 -15 -8 -2 9 16 8 -6 -1 41 16 -11 1 14 11 10 12 -20 -14 -7 -20 -20 -20 -20 -20 -20 -20 -20
-20 -20 -20 -20 -20 -17 -14 -20 -20 -20 -20 8 7 -15 -20 12 7 18 27 30 32 21 18 1 -17 3 -20 -18 -17 -20 -20 -20 -20 -20 -20 -20 -20 -20
-20 -20 -10 -4 -6 -2 7 3 -20 -20 -20 -2 18 19 23 21 30 15 26 30 32 16 10 10 11 -19 -20 -20 -20 -20 -20 -20 -20 -20 -20 -20 -20 -20
-20 -20 -20 -11 3 3 3 7 -20 -20 -20 -14 -9 12 24 13 28 21 27 37 41 35 31 39 36 17 -6 -20 -20 -20 -20 -20 -20 -20 -20 -20 -20 -20
-20 -20 -20 -20 -15 -12 8 2 7 9 2 7 -5 -9 19 4 26 12 18 16 36 26 22 27 11 5 -20 -20 -20 -20 -20 -20 -20 -20 -20 -20 -20 -20
-20 -20 -20 8 9 10 8 9 -4 10 4 -5 -2 8 25 22 27 24 34 34 23 30 30 31 19 -6 -1 -20 -20 -20 -20 -20 -20 -20 -20 -20 -20 -20
-20 -8 11 10 10 9 11 10 11 5 3 2 5 -4 14 35 29 32 25 30 20 35 39 38 40 31 6 -6 -19 -20 -20 -20 -20 -20 -20 -20 -20 -20
-17 0 -7 -15 9 9 6 -10 -1 7 16 21 9 9 26 17 18 20 16 16 12 20 25 29 31 15 -2 -14 -19 -20 -20 -20 -20 -20 -20 -20 -20 -20
-2 -20 -20 -20 -20 -20 -20 -13 5 1 2 6 20 15 14 7 13 17 9 19 10 10 20 26 22 -4 -20 5 -10 -20 -20 -20 -20 -20 -20 -20 -20 -20
-20 -10 -7 -20 -4 -20 2 -20 0 10 20 14 4 3 8 10 14 13 5 8 4 8 9 15 22 22 14 4 -10 -20 -20 -20 4 -15 -20 -20 -20 -20
-20 -1 2 -5 4 3 3 3 -18 -11 3 11 18 -11 -6 -16 6 -12 -11 6 16 3 9 4 16 22 19 10 20 -2 -4 3 -9 -15 -20 -20 -20 -20
-8 -3 0 -1 0 4 2 -18 -19 -7 -4 3 9 -9 -9 -11 0 -17 2 17 16 8 11 8 17 11 9 17 21 15 14 3 -8 -14 -20 -20 -20 -20
-10 -0 -20 -0 3 3 -1 1 -19 -20 -3 0 4 -13 -19 -17 -17 -19 -3 17 15 15 -5 -7 15 21 19 14 8 11 3 8 5 -18 -20 -20 -20 -20
-3 -20 -14 4 -1 -16 -0 3 5 3 -20 -3 1 1 -20 -14 -15 -20 8 4 2 17 16 19 12 3 7 -19 3 12 12 7 3 -20 -20 -20 -20 -20
-20 -20 -20 -20 -20 -20 -20 -20 -20 -20 -20 -1 14 3 -18 -20 -19 -1 7 -9 1 18 15 17 11 9 9 2 7 8 9 -8 -20 -20 -20 -20 -20 -20

GFSNE_prec_radar_120.txt.gz
Reflectivity
19 18 22 21 25 25 28 30 26 11 -17 16 13 -20 -6 13 -19 -14 -20 -20 14 16 20 12 -20 -20 -17 -20 -12 -20 -20 -20 -20 -20 -20 -20 -20 -20
30 31 25 28 32 26 10 -5 9 26 30 15 8 -8 9 -20 2 -20 -14 -20 -12 -18 -4 -11 -20 -17 -20 -9 4 -10 -15 -20 -20 -20 -20 -20 -20 -20
29 24 29 10 2 2 -13 15 24 3 17 16 14 -20 -20 -20 -20 -20 -14 16 3 11 14 -9 -7 -1 -16 -7 -14 -5 -19 -5 -20 -20 -20 -20 -20 -20
12 5 25 5 -17 15 8 23 7 5 6 7 -19 -1 -20 -20 -20 -20 -20 -6 16 22 22 13 -0 14 11 9 -20 -20 -12 6 -20 -20 -9 -7 -20 -20
24 12 9 -13 -6 -20 -20 -20 -10 -8 2 -12 -20 -20 -20 -11 -20 7 2 -15 2 24 21 16 17 15 17 12 -3 3 -20 -20 -5 -20 -20 -20 -20 -20
-0 2 -8 -20 -20 -20 -20 -20 -20 -8 -7 -2 -20 -13 -8 -9 -2 2 8 8 18 16 32 18 4 20 17 13 14 3 -20 -20 -16 -7 -12 -20 -20 -20
-20 -20 -20 -20 -20 -20 -20 -11 -20 -19 1 -16 -20 -14 -20 -20 -19 -14 -4 -11 19 -3 15 32 36 18 19 24 23 7 2 -20 -20 -20 -20 -20 -20 -20
-20 -20 -20 -20 -20 -20 -20 -20 -19 2 2 5 -19 10 11 13 -4 -20 -20 6 7 5 18 24 8 25 36 24 24 22 3 -20 -20 -20 -20 -12 -20 4
-20 -20 -20 -20 -20 -20 -20 -20 -20 -18 11 5 0 -1 6 9 17 8 -17 -8 11 14 14 26 15 20 9 11 27 10 24 24 2 -2 -20 -20 -20 -20
-20 -20 -20 -20 -20 -20 -20 -5 -5 -6 -20 -9 7 6 1 -1 14 16 14 15 27 23 23 30 14 30 2 16 29 9 13 3 -1 6 -8 -20 -20 -20
-20 -20 -20 -20 -20 -20 -20 -18 -20 -20 -16 -2 9 -2 -20 -15 7 9 19 21 22 13 -2 33 38 31 32 23 28 -1 -20 -20 7 -11 -20 -20 -20 -20
-20 -20 -20 -20 -20 -3 -8 -20 -20 -20 -19 -19 -19 -14 -20 -20 -3 6 17 19 29 23 30 24 26 23 27 31 30 26 2 -2 -20 -20 -20 -20 -20 -20
-20 -20 -20 -20 -20 -1 -8 -17 -3 9 8 9 5 5 -20 -20 -19 7 4 26 25 16 26 21 29 29 33 29 38 23 4 -20 -20 -20 -20 -20 -20 -20
-20 -20 -20 -13 -20 -18 -11 10 10 9 6 2 -3 6 10 -17 -12 21 11 22 28 30 32 29 22 30 27 26 30 21 2 -10 -20 -20 -20 -20 -20 -20
-20 -6 7 -20 -20 -19 -12 -8 1 2 -19 -6 -4 -5 -10 1 12 15 19 18 29 30 33 29 32 20 27 28 28 24 -1 -20 -20 -20 -20 -20 -20 -20
-20 -20 -20 -20 -20 -20 -20 -20 -1 2 2 5 14 13 -4 7 4 8 -7 -1 10 8 14 23 27 31 11 17 27 -2 -1 -12 -20 -20 -20 -20 -20 -20
-3 -20 -20 -20 -20 -20 -15 -4 2 4 -5 1 -4 2 9 3 -13 -2 -15 -8 -3 -18 7 16 19 22 27 21 22 24 13 -20 -20 -20 -20 -20 -20 -20
-20 -20 -20 -20 -15 -6 -2 -1 -1 1 1 -13 -5 -2 -1 9 -12 3 -16 -11 15 -7 -1 11 16 21 25 25 29 13 -20 -20 -20 -20 -19 -5 -19 -20
-20 -20 -20 -20 -20 -1 3 2 4 2 -20 2 -20 -4 10 -5 10 -20 -13 7 10 -10 7 6 17 19 22 17 18 2 -6 -19 -4 -10 1 -9 -16 -20
-20 -20 -20 -20 0 -17 -2 6 5 4 3 1 0 -11 7 -11 -18 -19 -19 -15 -1 9 -15 2 8 5 10 16 15 12 7 12 -5 5 -3 -20 -20 -20
-20 -20 -16 -18 2 2 3 -11 5 4 4 4 1 3 -2 -13 -19 -20 -20 -5 3 8 12 6 2 11 7 7 15 4 4 17 14 8 -4 -20 -20 -20
-20 -20 -20 -20 -20 -7 -20 -20 -20 -1 -20 1 2 -7 1 3 -15 -2 -8 -6 -1 3 15 10 8 6 -1 -20 -18 1 14 18 12 -18 -5 -10 -18 -18
-19 -20 -20 -20 -20 -5 -20 -20 2 -20 -20 0 -1 2 6 -14 -3 2 -3 -3 -2 5 -2 8 -17 -16 -15 -15 -0 -3 3 12 5 5 3 5 -9 -20

GFSNE_prec_radar_123.txt.gz
Reflectivity
26 13 -7 5 10 5 11 23 25 14 -13 -20 -15 -8 -11 -18 -13 -14 -20 -20 -20 -20 -20 -20 -15 -6 -20 -20 -20 -20 -20 -20 -20 -20 -20 -20 -20 -20
8 13 13 16 22 25 22 17 8 10 15 -1 -5 2 -15 -7 12 -0 -20 -20 -20 -20 -20 -20 -10 -19 -20 -20 -20 -20 -20 -20 -20 -20 -20 -20 -20 -20
22 11 -3 12 22 17 10 10 13 16 18 10 13 16 -2 -19 -13 -16 -20 -20 -20 -20 -8 17 8 5 -20 1 -0 -16 -20 -20 -20 -20 -20 -20 -20 -20
23 15 12 6 -3 11 19 4 9 12 15 16 2 -19 -20 -20 -14 -1 -20 -20 -20 -20 -0 4 24 24 18 22 22 16 13 7 -18 -6 -20 -20 -20 -20
14 21 24 21 13 15 -2 -11 -20 -20 -18 0 -5 1 -20 -20 -20 -20 -20 -20 -20 -18 -20 -3 19 19 15 25 29 13 10 1 0 13 2 -20 -20 -20
-17 -15 -14 -6 -0 -0 -9 -13 -20 -20 -20 -20 -20 -20 -13 -8 -16 -14 -16 -20 -20 -20 -20 -20 11 22 20 15 20 23 23 18 19 4 22 -17 -20 -20
-20 -20 -19 -17 -20 -20 -20 -20 -20 -20 -16 -14 3 -10 -20 -1 -0 -10 -8 -16 -15 -18 -20 -20 -20 -14 7 23 25 27 30 31 24 14 19 20 -20 -20
-20 -20 -20 -20 -20 -20 -20 -20 -20 -20 -20 -20 8 -1 -5 5 9 11 11 5 3 -6 -20 -13 -20 -20 -5 21 25 28 22 21 26 18 21 26 7 23
-20 -20 -20 -20 -20 -20 -20 -20 -20 -20 -20 -18 -11 -10 -2 -3 12 1 -1 12 7 -14 9 6 -9 -17 -20 10 29 38 33 40 38 35 29 21 11 21
-20 -20 -20 -20 -20 -20 -20 -20 -20 -20 -20 -20 -20 -18 2 -19 7 12 12 6 -2 -0 5 15 -9 -3 28 17 29 35 34 37 27 27 29 22 15 11
-20 -20 -20 -20 -20 -5 -8 -20 -20 -20 -20 -20 -20 -14 -20 -20 8 14 -8 12 4 -7 3 -2 10 2 -1 28 29 39 37 34 25 19 26 -10 16 25
-20 -20 -20 -20 -20 -20 -20 -20 -20 -20 -20 -20 -20 -20 -20 -18 8 10 8 -0 24 10 8 3 16 -0 16 19 -5 24 26 31 37 34 27 16 4 -1
-20 -20 -20 -20 -20 -20 -20 -20 -13 -2 -3 -4 -14 -20 -20 -15 -13 11 2 9 15 19 20 22 30 2 4 13 15 28 37 38 38 31 13 -1 -14 4
-20 -20 -20 -20 -20 -20 -20 -20 -20 -11 -20 -20 -16 9 -2 11 6 -10 7 11 11 23 13 19 24 13 16 12 17 14 22 34 35 42 13 15 -20 -20
-20 -20 -20 -20 -20 -20 -20 -20 -20 -20 -20 -18 -17 15 -3 -19 -15 -11 -19 8 -9 -2 16 17 29 27 22 6 2 13 26 20 36 32 18 0 -20 -20
-20 -20 -20 -20 -20 -20 -20 -20 -19 -4 -18 -20 -20 -20 -6 -15 -8 12 -18 -10 -20 -20 -13 5 19 13 11 17 24 14 16 20 22 16 -20 -20 -20 -20
-20 -20 -20 -20 -20 -20 -20 -20 -20 -20 -15 1 -5 -20 -13 -9 -12 11 -18 -20 1 -19 -20 -2 9 3 16 2 -20 -20 -2 16 19 -20 -20 -20 -20 -20
-20 -20 -20 -20 -20 -20 -20 -20 -16 -20 -12 -15 -11 -2 -10 -15 -11 -11 -19 -17 -17 -13 -8 -20 -18 7 6 -5 11 -1 5 -0 17 -9 -15 -15 -20 -20
-20 -20 -20 -20 -20 -20 -7 -2 -1 -1 -13 -19 -20 -12 -20 3 12 -20 -19 -20 -18 -13 -14 1 1 -14 11 12 16 7 4 -0 6 8 5 -8 -18 -20
-20 -20 -20 -20 -20 -15 -5 -0 -5 -4 -4 -5 -1 -5 -13 1 -11 -20 -20 -18 -8 -18 -20 -13 -19 1 13 15 15 16 17 11 8 8 7 1 -14 -19
-20 -20 -20 -20 -20 -12 -7 -20 -20 -20 -13 -20 -20 -11 0 -0 5 -20 -20 2 -3 -20 -20 -20 -17 -3 10 11 14 9 9 19 7 13 9 -6 -15 -20
-20 -20 -20 -8 -12 -19 -20 -20 -11 -18 -19 -19 -20 -17 -6 -3 -0 -8 -6 -20 -9 -20 -0 -20 -20 -20 -20 -11 2 9 -2 -3 14 11 13 -20 -20 -8
-20 -20 -20 -18 -20 -20 -20 -19 -19 -20 -20 -20 -20 -13 -6 2 3 -16 0 -20 -6 -19 -20 -17 -1 -14 -20 -19 -16 -19 2 10 9 1 7 3 4 -6

GFSNE_prec_radar_126.txt.gz
Reflectivity
-3 12 24 19 25 -3 -4 8 7 2 -13 -10 4 13 -15 -15 -2 -3 -20 -20 -20 -20 -20 -20 -20 -20 -20 -20 -16 6 -20 -1 -20 -20 -20 -20 -20 -20
5 21 10 21 21 8 8 12 1 12 15 13 -18 -14 -4 -18 21 -9 -14 4 -14 -20 -20 -20 -20 -16 -20 -15 -20 -6 9 -20 -20 -20 -20 -20 -20 -20
23 -7 14 25 15 25 22 18 17 13 17 5 16 5 -3 -4 -19 -17 3 -19 -20 -20 -20 -20 -15 -5 -9 -11 12 11 12 6 -20 0 -3 -20 -20 -16
20 17 20 16 25 19 5 -16 14 18 11 13 -2 -6 -15 -20 -19 -19 -20 -20 -20 2 8 13 16 12 13 10 0 14 16 16 19 24 27 0 -9 -20
28 13 18 18 22 21 17 8 -1 7 16 -13 -20 -20 -20 -20 -20 -20 -20 -20 -20 -20 -20 -18 -5 6 10 12 11 11 13 16 18 20 19 24 2 -12
6 0 -18 -14 -8 -2 -8 -20 -17 -20 -20 -20 -20 -20 -20 -20 -20 -4 -17 -20 -20 -20 -20 -20 -20 -20 -20 -15 12 19 9 19 18 23 15 26 12 20
-15 -7 -7 -20 -20 -20 -20 -20 -20 -20 -20 -20 -20 -20 -20 -20 -13 -7 1 -6 -6 -6 -15 -20 -20 -20 -20 -19 -14 22 17 14 19 22 19 27 20 29
-20 -20 -20 -20 -20 -20 -20 -20 -20 -20 -20 -20 -20 -20 -20 -20 -5 -1 -10 1 4 -20 -3 5 -16 -20 -20 -20 -14 13 13 18 24 25 25 30 33 13
-20 -20 -20 -20 -20 -20 -20 -20 -20 -20 -20 -20 -20 -20 -20 -20 1 -20 -10 3 -2 -5 4 -6 -16 -7 -14 -17 9 6 14 20 25 28 36 30 28 16
-20 -20 -20 -20 -20 -20 -20 -20 -20 -20 -20 -20 -20 -20 -20 -20 -20 -20 -20 5 5 -14 -20 -14 -9 -20 -13 -20 -13 -2 3 22 22 27 32 29 36 27
-20 -20 -20 -20 -20 -20 -20 -20 -20 -20 -20 -20 -2 -20 -9 2 3 13 1 -7 10 10 -4 -14 -16 -20 16 -20 -8 8 1 19 28 24 35 36 36 35
-20 -20 -20 -20 -20 -20 -20 -20 -20 -20 -20 -20 -20 -17 -13 2 -17 7 18 11 12 15 -17 16 8 -5 3 9 -20 -20 -20 25 31 30 32 36 27 27
-20 -20 -20 -20 -20 -20 -20 -20 -20 -20 -20 -20 -20 -20 -20 -20 -20 -20 -13 -2 12 10 3 24 7 1 5 -4 -17 -20 -19 14 31 27 26 31 28 28
-20 -20 -20 -20 -20 -20 -20 -20 -20 -20 -20 -20 -20 -20 -20 -20 -20 -20 -20 -7 -1 13 18 14 17 -2 2 -13 -20 -20 -11 25 26 25 33 34 32 33
-20 -20 -20 -20 -20 -20 -20 -20 -20 -20 -20 -20 -20 -19 -20 -20 -15 -18 -20 -11 -20 -10 -16 -6 15 9 17 -3 -19 11 -15 9 25 17 17 19 17 12
-20 -20 -20 -20 -20 -20 -20 -20 -20 -20 -20 -20 -20 -20 -20 -20 -6 -6 -2 -14 -20 -20 -20 -20 -16 0 -20 -20 -18 -15 -7 -12 4 13 1 -7 -1 11
-20 -20 -20 -20 -20 -20 -20 -20 -20 -20 -20 -20 -20 -20 -20 -20 -20 -7 -4 -17 -18 -20 -20 -20 -20 -20 -19 -16 -20 -3 8 -2 18 16 7 14 8 6
-20 -20 -20 -20 -20 -20 -20 -20 -20 -16 -2 -12 -15 -20 -20 -18 -20 -20 -4 -14 -18 -20 -20 -20 -20 -20 -20 -18 -2 -17 -20 -11 9 20 10 14 -14 -20
-20 -20 -20 -20 -20 -20 -20 -20 -10 -16 -15 0 -17 -4 -18 -9 -1 -20 -18 -20 -20 -20 -20 -20 -20 -20 -20 -20 -20 -3 -20 -20 -2 7 10 3 -10 -19
-20 -20 -20 -20 -20 -20 -20 -20 -20 -20 -20 -20 -20 -20 -20 -17 -17 -13 -4 -20 -20 -20 -20 -20 -20 -20 -17 -20 -20 -20 -20 -20 -2 -20 -20 -15 -4 -18
-20 -20 -20 -20 -20 -20 -20 -20 -3 -17 -20 -20 -20 -20 -20 -20 -20 -20 -20 9 7 -14 -20 -20 -20 -6 -20 -20 -20 -2 -9 -5 -20 -20 1 1 5 -1
-20 -20 -20 -20 -20 -20 -20 -20 -20 -20 -20 -20 -20 -20 -20 -20 -19 -3 -4 3 -10 -20 -20 -20 -16 -17 -19 -20 -10 13 -1 1 3 -5 -4 3 -1 -20
-20 -20 -20 -20 -20 -20 -20 -20 -20 -20 -20 -20 -20 -20 -20 -20 -20 -20 -5 5 6 -20 -20 -20 -20 -17 -18 -20 -11 7 13 13 16 15 10 -16 -20 -20

GFSNE_prec_radar_129.txt.gz
Reflectivity
4 2 -18 -19 -17 -12 9 28 21 17 4 -12 -3 -5 9 20 13 6 -11 12 2 -19 -20 -20 -20 -20 -7 2 8 -1 10 -17 -20 -20 9 10 12 -20
-11 -2 -10 16 23 6 37 35 22 20 17 10 15 13 -19 -20 9 1 -20 -10 -19 -20 -9 8 11 12 11 13 10 1 4 15 5 6 19 10 3 -13
-1 -17 14 21 24 7 13 16 26 30 27 18 16 -11 -15 0 -9 -6 3 -12 -13 -20 -20 -20 -12 -16 -19 9 12 -9 10 10 17 14 17 6 -1 10
-14 38 33 31 15 13 10 23 26 -0 -7 -10 6 11 18 8 -4 -19 -20 -20 -20 -20 -20 -20 -20 -20 -20 -20 -20 -20 -20 5 5 13 21 20 19 10
19 39 36 34 25 32 35 31 25 16 5 22 -7 -20 -20 -20 -20 -20 -20 -20 -20 -20 -20 -20 -20 -20 -20 -20 -20 -20 -20 -18 -6 11 14 19 12 23
37 27 22 12 14 9 -18 -15 -10 -6 -17 -20 -20 -20 -20 -20 -20 -20 -20 -20 -20 -20 -20 -20 -20 -20 -20 -20 -20 -20 -20 -20 -6 12 16 16 16 29
-19 -19 -12 -19 -15 -20 -15 -4 -15 -20 -20 -20 -20 -20 -20 -20 -20 -20 -20 -20 -20 -20 -20 -20 -20 -20 -20 -20 -20 -20 -20 -20 -17 14 15 13 14 30
-2 -7 -20 -20 -19 -20 -20 -20 -20 -20 -20 -20 -20 -20 -20 -20 -20 -20 -20 -7 -20 -20 -20 -20 -16 -20 -20 -20 -20 -20 -20 -20 -20 14 21 23 19 30
-17 -20 -20 -20 -20 -20 -20 -20 -20 -20 -20 -20 -20 -20 -20 -20 -20 -20 -20 -20 -17 -20 2 -20 -15 -20 -20 -20 -20 -20 -20 -6 2 -19 16 16 21 16
-14 -19 -20 -20 -20 -20 -20 -20 -20 -20 -20 -20 -20 -20 -20 -20 -19 1 9 8 -1 -15 -20 -14 -20 -20 -20 -20 -20 -20 -18 -5 -1 3 13 19 9 24
-20 -20 -20 -20 -20 -20 -20 -20 -20 -20 -20 -20 -20 5 12 3 4 7 -20 -15 -11 -8 -20 0 -19 4 -20 -20 -15 5 -20 -20 -8 -16 16 18 22 27
-20 -20 -20 -20 -20 -20 -20 -20 -20 -20 -20 -20 -20 -20 -20 1 9 -6 3 -6 -5 8 -12 3 -15 -15 -0 -20 -20 -10 -18 -5 -13 16 24 24 21 19
-20 -20 -20 -20 -20 -18 -20 -20 -20 -16 -20 -20 -20 -20 -20 -20 -20 -19 -14 -7 -13 -10 -9 20 6 -12 -4 -5 -16 -19 -8 -20 -20 5 19 13 16 17
-20 -20 -20 -20 -20 -20 -20 -20 -20 -20 -20 -20 -20 -20 -20 -20 -20 -20 -20 -15 -6 9 -13 14 8 6 18 3 -15 -20 -20 -20 -17 20 12 20 -5 2
-20 -20 -20 -20 -20 -20 -20 -20 -20 -20 -20 -20 -20 -20 -20 -20 -20 -20 -20 9 -14 -20 -20 -15 -16 -6 1 -16 -14 -17 -17 -20 -10 -9 10 9 4 6
-20 -20 -20 -20 -20 -20 -20 -20 -20 -20 -20 -20 -7 -2 -20 -20 -20 -20 -20 -20 -20 -20 -20 -20 -20 -20 -20 -20 -20 -20 -20 -20 -20 -17 -20 -15 14 1
-19 -20 -20 -20 -20 -20 -20 -20 -20 -20 -16 1 -20 -20 -20 -20 -20 -20 -20 -20 -19 -20 -20 -20 -20 -20 -20 -20 -20 -20 -15 -18 -20 -20 -18 -20 -4 -4
-14 -20 -20 -20 -20 -20 -20 -20 -20 -20 -7 -20 -15 -20 -18 -3 -12 -20 -20 -20 -18 -20 -20 -20 -20 -20 -20 -19 -9 -20 -16 -20 -1 8 9 -20 -20 -20
-20 -20 -20 -20 -20 -20 -20 -20 -20 -20 -20 -20 -20 -20 -5 -20 -19 -20 -20 -20 -20 -20 -20 -20 -19 -20 -20 -20 -20 -4 -20 -20 -19 10 8 -20 -18 -20
-20 -20 -20 -20 -20 -20 -20 -20 -20 -20 -20 -20 -19 -11 -20 -20 -20 -20 -20 -14 -18 -20 -20 -20 -20 -20 -20 -20 -20 -20 -20 -20 -20 -4 9 3 15 7
-20 -20 -20 -20 -20 -20 -20 -20 -20 -20 -20 -20 -20 -20 -20 -20 -20 -20 -20 -12 -1 -20 -20 -20 -20 -16 -20 -20 -20 -5 -10 -14 -20 -17 -0 15 11 4
-20 -20 -20 -20 -20 -20 -20 -20 -20 -20 -20 -20 -20 -20 -20 -20 -20 -20 -20 -20 -20 -19 -20 -20 -20 -20 -20 -20 -4 12 -2 3 -13 -2 7 6 2 7
-20 -20 -20 -20 -20 -20 -20 -20 -20 -20 -20 -20 -20 -20 -20 -20 -20 -20 -20 -20 -20 -20 -20 -20 -20 -20 -10 -20 2 16 9 -17 -3 -1 3 5 -17 -3

GFSNE_prec_radar_132.txt.gz
Reflectivity
1 -5 -2 7 12 -3 12 -14 19 15 9 25 21 16 7 6 14 16 19 29 22 10 -9 -2 -16 -20 -20 -20 4 13 11 10 -20 -12 11 -18 -9 10
12 11 -4 -8 11 12 6 19 15 25 4 24 36 16 22 25 33 24 -11 11 13 -16 -6 -20 -20 -20 -20 -20 -20 -20 -20 -5 -2 9 5 18 18 20
-12 -14 -15 -9 -12 18 3 14 -6 23 28 21 27 23 30 32 32 9 9 10 -3 1 -20 -20 -20 -20 -20 -20 -20 -20 -20 -20 -18 -8 -2 7 7 22
-6 -3 -3 -12 1 16 -1 29 25 32 18 27 29 34 28 23 15 -18 -14 -18 -20 -20 -20 -20 -20 -20 -20 -18 2 7 -14 -19 -20 -13 -5 -19 -19 1
-20 -3 7 -15 11 36 28 39 27 29 34 32 30 21 -5 -4 -20 -20 -20 -20 -20 -20 -20 -20 -20 -20 -20 -20 -20 -20 -20 -20 -20 -20 -20 -20 -18 7
-18 8 20 28 25 21 30 24 -9 -4 7 -3 8 -1 -20 -20 -20 -20 -20 -20 -20 -20 -20 -20 -20 -20 -20 -20 -20 -20 -20 -20 -20 -20 -20 -20 -16 2
18 28 24 29 16 1 -10 -20 -20 -20 -18 -19 -20 -12 -20 -15 -15 -20 -20 -20 -20 -20 -20 -20 -20 -20 -20 -20 -20 -20 -20 -20 -16 -12 -20 -20 -18 10
10 4 7 3 -3 -14 -20 -20 -20 -20 -20 -7 -20 -20 -20 -20 -20 -20 -20 -20 -20 -20 -20 -20 -20 -20 -20 -20 -20 -20 -20 -20 -3 -1 -0 -20 -20 10
-13 -7 -12 -19 -20 -20 -20 -19 -20 -20 -20 -20 -20 -20 -20 -20 -20 -20 -20 -7 6 -19 -7 -20 -20 -20 -20 -20 -20 -20 -20 -20 -20 -20 -5 -0 -13 0
-20 -20 -20 -20 -20 -20 -20 -20 -20 -20 -20 -20 -20 -20 -20 -20 -9 -5 5 5 -0 -16 -20 8 -16 -13 -20 -20 -20 -11 0 2 -16 -20 -20 -20 -20 -18
-20 -20 -20 -20 -20 -20 -20 -20 -20 -20 -20 -20 -20 -20 -20 -20 3 -2 -5 -15 -5 -5 -13 16 -0 -19 -20 -20 -20 -20 -20 -17 -17 -20 3 -17 -20 7
-20 -20 -20 -20 -20 -20 -20 -20 -20 -20 -20 -20 -20 -20 -20 -20 6 -11 -12 -18 -16 -0 -18 7 -19 3 -20 -20 -20 -1 -19 -20 -20 -20 13 15 13 -3
-20 -20 -20 -20 -20 -20 -20 -20 -20 -20 -20 -20 -20 -20 -20 -20 -20 -20 -20 -19 -9 -4 20 19 4 -20 -12 -15 -20 -19 -20 -20 -20 -14 17 7 19 21
-20 -20 -20 -20 -20 -20 -20 -20 -20 -20 -20 -20 -20 -20 -20 -20 -20 -20 -20 -20 -8 11 2 -2 7 -18 -16 -20 -20 -20 -20 -20 -20 -20 3 22 19 15
-20 -20 -20 -20 -20 -20 -20 -20 -20 -20 -20 -20 -20 -20 -20 -20 -20 -20 -19 -20 -20 -20 -13 2 -18 -19 -16 -9 -19 -13 2 -20 -20 -20 -20 -17 -12 -19
-20 -20 -20 -20 -20 -20 -20 -20 -20 -20 -20 -20 -20 -20 -20 -20 -20 -20 -20 -20 -17 -20 -20 -20 -20 -19 -20 -20 -16 -20 -20 -20 -20 -20 -20 -20 -20 -12
-20 -20 -20 -20 -20 -20 -20 -20 -20 -20 -20 -19 -20 -13 -20 -20 -20 -20 -20 -13 -2 -14 -20 -20 -20 -20 -20 -20 -19 -20 -20 -20 -20 -20 -20 -20 -20 -12
-20 -20 -20 -20 -20 -20 -20 -20 -20 -20 -8 -20 -20 -20 -20 -20 -20 -20 -20 -20 -2 -17 -20 -20 -20 -20 -20 -20 -8 -20 -20 -20 -20 -18 -20 -20 -20 -20
-20 -20 -20 -20 -20 -20 -20 -20 -20 -20 -20 -20 -20 -20 -20 -18 -19 -20 -20 -20 -20 -20 -20 -20 -20 -20 -20 -20 -20 -20 -20 -20 -20 -20 -19 -20 -20 -16
-20 -20 -20 -20 -20 -20 -20 -20 -20 -20 -20 -20 -20 -20 -20 -20 -20 -20 -20 -20 -20 -20 -12 -20 -20 -20 -20 -20 -20 -20 -20 -20 -20 -20 -17 -17 -19 3
-20 -20 -20 -20 -20 -20 -20 -20 -20 -20 -20 -20 -20 -20 -20 -20 -20 -20 -20 -14 -6 -20 -20 -20 -20 -9 -20 -20 -20 -20 -20 -20 -20 -18 1 11 5 6
-20 -20 -20 -20 -20 -20 -20 -20 -20 -20 -20 -20 -20 -20 -20 -20 -20 -20 -20 -20 -20 -20 -20 -20 -20 -20 -20 -20 -20 -20 -20 -20 -20 1 21 20 15 15
-20 -20 -20 -20 -20 -20 -20 -20 -20 -20 -20 -20 -20 -20 -20 -20 -20 -20 -20 -20 -20 -20 -20 -20 -20 -20 -20 -20 -20 -20 -20 -20 -17 9 10 14 7 -0